[[{"header":{"parameterUnit":"m.s-1","parameterCategory":1,"la1":30.6,"la2":29.2853,"lo1":-89.7004,"lo2":-87.6739,"dy":0.0162,"dx":0.0183,"nx":112,"ny":82,"refTime":"2026-03-23T00:00:00:Z","depth":0,"parameterNumber":2,"parameterNumberName":"U-component_of_WINDS"},"data":[0.0,0.0,0.0,0.0,0.0,0.0,0.0,0.0,0.0,0.0,0.0,0.0,0.0,0.0,0.0,0.0,0.0,0.0,0.0,0.0,0.0,0.0,0.0,0.0,0.0,0.0,0.0,0.0,0.0,0.0,0.0,0.0,0.0,0.0,0.0,0.0,0.0,0.0,0.0,0.0,0.0,0.0,0.0,0.0,0.0,0.0,0.0,0.0,0.0,0.0,0.0,0.0,0.0,0.0,0.0,0.0,0.0,0.0,0.0,0.0,0.0,0.0,0.0,0.0,0.0,0.0,0.0,0.0,0.0,0.0,0.0,0.0,0.0,0.0,0.0,0.0,0.0,0.0,0.0,0.0,0.0,0.0,0.0,0.0,0.0,0.0,0.0,0.0,0.0,0.0,0.0,-2.9973,-3.0592,-3.064,-2.9913,-2.8471,-2.7158,-2.627,0.0,0.0,0.0,0.0,0.0,0.0,0.0,0.0,0.0,0.0,0.0,0.0,0.0,0.0,0.0,0.0,0.0,0.0,0.0,0.0,0.0,0.0,0.0,0.0,0.0,0.0,0.0,0.0,0.0,0.0,0.0,0.0,0.0,0.0,0.0,0.0,0.0,0.0,0.0,0.0,0.0,0.0,0.0,0.0,0.0,0.0,0.0,0.0,0.0,0.0,0.0,0.0,0.0,0.0,0.0,0.0,0.0,0.0,0.0,0.0,0.0,0.0,0.0,0.0,0.0,0.0,0.0,0.0,0.0,0.0,0.0,0.0,0.0,0.0,0.0,0.0,0.0,0.0,0.0,0.0,0.0,0.0,0.0,0.0,0.0,0.0,0.0,0.0,0.0,0.0,0.0,0.0,0.0,0.0,0.0,0.0,0.0,0.0,0.0,0.0,0.0,0.0,0.0,0.0,-3.0921,-3.2618,-3.2846,-3.2373,-3.1052,-2.9894,-2.8373,-2.639,0.0,0.0,0.0,0.0,0.0,0.0,0.0,0.0,0.0,0.0,0.0,0.0,0.0,0.0,0.0,0.0,0.0,0.0,0.0,0.0,0.0,0.0,0.0,0.0,0.0,0.0,0.0,0.0,0.0,0.0,0.0,0.0,0.0,0.0,0.0,0.0,0.0,0.0,0.0,0.0,0.0,0.0,0.0,0.0,0.0,0.0,0.0,0.0,0.0,0.0,0.0,0.0,0.0,0.0,0.0,0.0,0.0,0.0,0.0,0.0,0.0,0.0,0.0,0.0,0.0,0.0,0.0,0.0,0.0,0.0,0.0,0.0,0.0,0.0,0.0,0.0,0.0,0.0,0.0,0.0,0.0,0.0,0.0,0.0,0.0,0.0,0.0,0.0,0.0,0.0,0.0,0.0,0.0,0.0,0.0,0.0,0.0,0.0,0.0,0.0,0.0,0.0,0.0,-3.1168,-3.2053,-3.3382,-3.3444,-3.2997,-3.2042,-3.0351,-2.8678,-2.7098,-2.4508,0.0,0.0,0.0,0.0,0.0,0.0,0.0,0.0,0.0,0.0,0.0,0.0,0.0,0.0,0.0,0.0,0.0,0.0,0.0,0.0,0.0,0.0,0.0,0.0,0.0,0.0,0.0,0.0,0.0,0.0,0.0,0.0,0.0,0.0,0.0,0.0,0.0,0.0,0.0,0.0,0.0,0.0,0.0,0.0,0.0,0.0,0.0,0.0,0.0,0.0,0.0,0.0,0.0,0.0,0.0,0.0,0.0,0.0,0.0,0.0,0.0,0.0,0.0,0.0,0.0,0.0,0.0,0.0,0.0,0.0,0.0,0.0,0.0,0.0,0.0,0.0,0.0,0.0,0.0,0.0,0.0,0.0,0.0,0.0,0.0,0.0,0.0,0.0,0.0,0.0,0.0,0.0,0.0,0.0,0.0,0.0,0.0,0.0,0.0,0.0,0.0,0.0,-3.2493,-3.2967,-3.356,-3.3577,-3.3225,-3.2471,-3.0593,-2.889,-2.7508,-2.4979,0.0,0.0,0.0,0.0,0.0,0.0,0.0,0.0,0.0,0.0,0.0,0.0,0.0,0.0,0.0,0.0,0.0,0.0,0.0,0.0,0.0,0.0,0.0,0.0,0.0,0.0,0.0,0.0,0.0,0.0,0.0,0.0,0.0,0.0,0.0,0.0,0.0,0.0,0.0,0.0,0.0,0.0,0.0,0.0,0.0,0.0,0.0,0.0,0.0,0.0,0.0,0.0,0.0,0.0,0.0,0.0,0.0,0.0,0.0,0.0,0.0,0.0,0.0,0.0,0.0,0.0,0.0,0.0,0.0,0.0,0.0,0.0,0.0,0.0,0.0,0.0,0.0,0.0,0.0,0.0,0.0,0.0,0.0,0.0,0.0,0.0,0.0,0.0,0.0,0.0,0.0,0.0,0.0,0.0,0.0,0.0,0.0,0.0,0.0,0.0,0.0,0.0,-3.3149,-3.3707,-3.3698,-3.3698,-3.3164,-3.1862,-3.097,-2.9484,-2.7092,-2.533,0.0,0.0,0.0,0.0,0.0,0.0,0.0,0.0,0.0,0.0,0.0,0.0,0.0,0.0,0.0,0.0,0.0,0.0,0.0,0.0,0.0,0.0,0.0,0.0,0.0,0.0,0.0,0.0,0.0,0.0,0.0,0.0,0.0,0.0,0.0,0.0,0.0,0.0,0.0,0.0,0.0,0.0,0.0,0.0,0.0,0.0,0.0,0.0,0.0,0.0,0.0,0.0,0.0,0.0,0.0,0.0,0.0,0.0,0.0,0.0,0.0,0.0,0.0,0.0,0.0,0.0,0.0,0.0,0.0,0.0,0.0,0.0,0.0,0.0,0.0,0.0,0.0,0.0,0.0,0.0,0.0,0.0,0.0,0.0,0.0,0.0,0.0,0.0,0.0,0.0,0.0,0.0,0.0,0.0,0.0,0.0,0.0,0.0,0.0,0.0,0.0,0.0,-3.3632,-3.386,0.0,-3.3671,-3.3089,-3.176,-3.0567,-2.9005,-2.6858,0.0,0.0,0.0,0.0,0.0,0.0,0.0,0.0,0.0,0.0,0.0,0.0,0.0,0.0,0.0,0.0,0.0,0.0,0.0,0.0,0.0,0.0,0.0,0.0,0.0,0.0,0.0,0.0,0.0,0.0,0.0,0.0,0.0,0.0,0.0,0.0,0.0,0.0,0.0,0.0,0.0,0.0,0.0,0.0,0.0,0.0,0.0,0.0,0.0,0.0,0.0,0.0,0.0,0.0,0.0,0.0,0.0,0.0,0.0,0.0,0.0,0.0,0.0,0.0,0.0,0.0,0.0,0.0,0.0,0.0,0.0,0.0,0.0,0.0,0.0,0.0,0.0,0.0,0.0,0.0,0.0,0.0,0.0,0.0,0.0,0.0,0.0,0.0,0.0,0.0,0.0,0.0,0.0,0.0,0.0,0.0,0.0,0.0,0.0,0.0,0.0,0.0,-3.3744,-3.3972,-3.3947,0.0,-3.3671,-3.2951,-3.1324,-3.0149,-2.8578,-2.6401,0.0,0.0,0.0,0.0,0.0,0.0,0.0,0.0,0.0,0.0,0.0,0.0,0.0,0.0,0.0,0.0,0.0,0.0,0.0,0.0,0.0,0.0,0.0,0.0,0.0,0.0,0.0,0.0,0.0,0.0,0.0,0.0,0.0,0.0,0.0,0.0,0.0,0.0,0.0,0.0,0.0,0.0,0.0,0.0,0.0,0.0,0.0,0.0,0.0,0.0,0.0,0.0,0.0,0.0,0.0,0.0,0.0,0.0,0.0,0.0,0.0,0.0,0.0,0.0,0.0,0.0,0.0,0.0,0.0,0.0,0.0,0.0,0.0,0.0,0.0,0.0,0.0,0.0,0.0,0.0,0.0,0.0,0.0,0.0,0.0,0.0,0.0,0.0,0.0,0.0,0.0,0.0,0.0,0.0,0.0,0.0,0.0,0.0,0.0,0.0,0.0,0.0,-3.3883,-3.4136,-3.4062,-3.3797,-3.3652,-3.2669,-3.045,-2.9784,-2.8356,0.0,0.0,0.0,0.0,0.0,0.0,0.0,0.0,0.0,0.0,0.0,0.0,0.0,0.0,0.0,0.0,0.0,0.0,0.0,0.0,0.0,0.0,0.0,0.0,0.0,0.0,0.0,0.0,0.0,0.0,0.0,0.0,0.0,0.0,0.0,0.0,0.0,0.0,0.0,0.0,0.0,0.0,0.0,0.0,0.0,0.0,0.0,0.0,0.0,0.0,0.0,0.0,0.0,0.0,0.0,0.0,0.0,0.0,0.0,0.0,0.0,0.0,0.0,0.0,0.0,0.0,0.0,0.0,0.0,0.0,0.0,0.0,0.0,0.0,0.0,0.0,0.0,0.0,0.0,0.0,0.0,0.0,0.0,0.0,0.0,0.0,0.0,0.0,0.0,0.0,0.0,0.0,0.0,0.0,0.0,0.0,0.0,0.0,0.0,0.0,0.0,0.0,0.0,-3.24,-3.2488,-3.2376,-3.2194,-3.1971,-3.1183,-2.952,-2.8804,-2.7554,-2.5519,0.0,0.0,0.0,0.0,0.0,0.0,0.0,0.0,0.0,0.0,0.0,0.0,0.0,0.0,0.0,0.0,0.0,0.0,0.0,0.0,0.0,0.0,0.0,0.0,0.0,0.0,0.0,0.0,0.0,0.0,0.0,0.0,0.0,0.0,0.0,0.0,0.0,0.0,0.0,0.0,0.0,0.0,0.0,0.0,0.0,0.0,0.0,0.0,0.0,0.0,0.0,0.0,0.0,0.0,0.0,0.0,0.0,0.0,0.0,0.0,0.0,0.0,0.0,0.0,0.0,0.0,0.0,0.0,0.0,0.0,0.0,0.0,0.0,0.0,0.0,0.0,0.0,0.0,0.0,0.0,0.0,0.0,0.0,0.0,0.0,0.0,0.0,0.0,0.0,0.0,0.0,0.0,0.0,0.0,0.0,0.0,0.0,0.0,0.0,0.0,0.0,0.0,-3.1818,-3.1874,-3.1745,-3.1549,-3.1276,-3.0513,-2.9094,-2.8278,-2.7126,-2.5351,0.0,0.0,0.0,0.0,0.0,0.0,0.0,0.0,0.0,0.0,0.0,0.0,0.0,0.0,0.0,0.0,0.0,0.0,0.0,0.0,0.0,0.0,0.0,0.0,0.0,0.0,0.0,0.0,0.0,0.0,0.0,0.0,0.0,0.0,0.0,0.0,0.0,0.0,0.0,0.0,0.0,0.0,0.0,0.0,0.0,0.0,0.0,0.0,0.0,0.0,0.0,0.0,0.0,0.0,0.0,0.0,0.0,0.0,0.0,0.0,0.0,0.0,0.0,0.0,0.0,0.0,0.0,0.0,0.0,0.0,0.0,0.0,0.0,0.0,0.0,0.0,0.0,0.0,0.0,0.0,0.0,0.0,0.0,0.0,0.0,0.0,0.0,0.0,0.0,0.0,0.0,0.0,0.0,0.0,0.0,0.0,0.0,0.0,0.0,0.0,0.0,0.0,-3.1699,-3.1759,-3.1619,-3.1288,-3.0954,-3.0134,-2.8687,-2.7837,-2.6683,-2.5099,0.0,0.0,0.0,0.0,0.0,0.0,0.0,0.0,0.0,0.0,0.0,0.0,0.0,0.0,0.0,0.0,0.0,0.0,0.0,0.0,0.0,0.0,0.0,0.0,0.0,0.0,0.0,0.0,0.0,0.0,0.0,0.0,0.0,0.0,0.0,0.0,0.0,0.0,0.0,0.0,0.0,0.0,0.0,0.0,0.0,0.0,0.0,0.0,0.0,0.0,0.0,0.0,0.0,0.0,0.0,0.0,0.0,0.0,0.0,0.0,-2.9754,-2.9588,0.0,0.0,0.0,0.0,0.0,0.0,0.0,0.0,0.0,0.0,0.0,0.0,0.0,0.0,0.0,0.0,0.0,0.0,0.0,0.0,0.0,0.0,0.0,0.0,0.0,0.0,0.0,0.0,0.0,0.0,0.0,0.0,0.0,0.0,0.0,0.0,0.0,0.0,0.0,0.0,-3.0016,-2.9998,-2.9617,-2.8769,-2.8306,-2.7486,-2.6125,-2.5285,-2.4464,-2.3531,-2.2184,0.0,0.0,0.0,0.0,0.0,0.0,0.0,0.0,0.0,0.0,0.0,0.0,0.0,0.0,0.0,0.0,0.0,0.0,0.0,0.0,0.0,0.0,0.0,0.0,0.0,0.0,0.0,0.0,0.0,0.0,0.0,0.0,0.0,0.0,0.0,0.0,0.0,0.0,0.0,0.0,0.0,0.0,0.0,0.0,0.0,0.0,0.0,0.0,0.0,0.0,0.0,0.0,0.0,0.0,0.0,0.0,0.0,0.0,0.0,-3.0091,-2.9533,0.0,0.0,0.0,0.0,0.0,0.0,0.0,0.0,0.0,0.0,0.0,0.0,0.0,0.0,0.0,0.0,0.0,0.0,0.0,0.0,0.0,0.0,0.0,0.0,0.0,0.0,0.0,0.0,0.0,0.0,0.0,0.0,0.0,0.0,0.0,0.0,0.0,0.0,0.0,0.0,-2.9512,-2.9436,-2.9001,-2.7951,-2.7387,-2.6561,-2.5188,-2.4418,-2.3704,-2.2976,-2.1723,0.0,0.0,0.0,0.0,0.0,0.0,0.0,0.0,0.0,0.0,0.0,0.0,0.0,0.0,0.0,0.0,0.0,0.0,0.0,0.0,0.0,0.0,0.0,0.0,0.0,0.0,0.0,0.0,0.0,0.0,0.0,0.0,0.0,0.0,0.0,0.0,0.0,0.0,0.0,0.0,0.0,0.0,0.0,0.0,0.0,0.0,0.0,0.0,0.0,0.0,0.0,0.0,0.0,-3.1979,-3.2302,-3.2017,-3.2169,-3.2203,-3.2095,-3.0709,-3.0067,-2.9983,-2.9632,0.0,0.0,0.0,0.0,0.0,0.0,0.0,0.0,0.0,0.0,0.0,0.0,0.0,0.0,0.0,0.0,0.0,0.0,0.0,0.0,0.0,0.0,-2.8823,-2.825,-2.8203,-2.8428,-2.8951,0.0,0.0,0.0,0.0,0.0,0.0,0.0,0.0,0.0,0.0,0.0,-2.9101,-2.9045,-2.8572,-2.7485,-2.6898,-2.6003,-2.4631,-2.3894,-2.3227,-2.2611,-2.1416,-2.0462,0.0,0.0,0.0,0.0,0.0,0.0,0.0,0.0,0.0,0.0,0.0,0.0,0.0,0.0,0.0,0.0,0.0,0.0,0.0,0.0,0.0,0.0,0.0,0.0,0.0,0.0,0.0,0.0,0.0,0.0,0.0,0.0,-3.0323,-3.0336,0.0,0.0,0.0,0.0,0.0,0.0,0.0,0.0,0.0,0.0,0.0,0.0,0.0,-2.9474,-3.0234,-3.0289,-3.0314,-3.0347,-3.1904,-3.1909,-3.05,-3.1206,-3.1164,-3.0557,-3.112,0.0,-3.1992,-3.1579,0.0,0.0,0.0,0.0,0.0,0.0,0.0,0.0,0.0,0.0,0.0,0.0,0.0,0.0,0.0,0.0,0.0,0.0,0.0,0.0,0.0,0.0,-2.9068,-2.8351,-2.8367,-2.8401,-2.7865,-2.767,-2.7589,-2.7522,-2.7398,-2.727,0.0,0.0,0.0,0.0,0.0,0.0,-2.7488,-2.738,-2.6879,-2.5752,-2.5139,-2.4302,-2.2995,-2.2336,-2.1769,-2.1197,-2.0314,-1.9634,-1.9301,-1.8811,0.0,0.0,0.0,0.0,0.0,0.0,0.0,0.0,0.0,0.0,0.0,0.0,0.0,0.0,0.0,0.0,0.0,0.0,0.0,0.0,0.0,0.0,0.0,0.0,0.0,0.0,0.0,0.0,0.0,-3.0492,-2.9849,-2.7929,-2.9397,-3.0548,0.0,0.0,0.0,0.0,0.0,0.0,0.0,0.0,0.0,-2.9052,-2.9139,-2.9361,-2.9737,-3.064,-3.1087,-3.1052,-3.225,-3.2434,-3.1724,-3.207,-3.2064,-3.177,-3.2666,-3.2872,-3.2521,-3.1693,-3.0711,-2.9665,0.0,0.0,0.0,0.0,-2.8378,-2.8378,-2.8378,-2.8378,-2.8378,-2.8378,0.0,0.0,0.0,0.0,0.0,0.0,0.0,-2.8077,-2.78,-2.7859,-2.783,-2.7186,-2.7126,-2.7053,-2.6312,-2.6121,-2.6365,-2.7218,-2.7296,-2.7198,-2.7076,-2.699,0.0,0.0,0.0,-2.7299,-2.7201,-2.7095,-2.6562,-2.5421,-2.4751,-2.3892,-2.2703,-2.2068,-2.1554,-2.1103,-2.0379,-1.9823,-1.9536,-1.9087,-1.8784,0.0,0.0,0.0,0.0,0.0,0.0,0.0,0.0,0.0,0.0,0.0,0.0,0.0,0.0,0.0,0.0,0.0,0.0,0.0,0.0,0.0,0.0,0.0,0.0,0.0,0.0,0.0,0.0,-2.9983,-2.8481,-2.5921,-2.7876,-2.975,0.0,0.0,0.0,0.0,0.0,0.0,-2.8074,-2.8094,-2.8107,-2.8107,-2.8476,-2.889,-2.9326,-3.0557,-3.1246,-3.1427,-3.2208,-3.2492,-3.2281,-3.2281,-3.2281,-3.2338,-3.3205,-3.3012,-3.2053,-3.1777,-3.0904,-2.9671,-2.9361,-2.9088,-2.8839,-2.8761,-2.8737,-2.8737,-2.8712,-2.8712,-2.8712,-2.8712,-2.8712,-2.8712,-2.8712,0.0,0.0,0.0,0.0,-2.7779,-2.7065,-2.6989,-2.6942,-2.6273,-2.6186,-2.604,-2.5284,-2.5168,-2.5531,-2.6675,-2.6835,-2.6763,-2.6616,-2.6559,0.0,0.0,0.0,-2.6748,-2.6626,-2.6456,-2.5986,-2.5032,-2.4382,-2.3613,-2.2649,-2.2101,-2.1631,-2.1214,-2.063,-2.0154,-1.9909,-1.9493,-1.9199,-1.902,0.0,0.0,0.0,0.0,0.0,0.0,0.0,0.0,0.0,0.0,0.0,0.0,0.0,0.0,0.0,0.0,0.0,0.0,0.0,0.0,0.0,0.0,0.0,0.0,0.0,0.0,0.0,0.0,0.0,-2.5715,-2.586,0.0,0.0,0.0,0.0,-2.6062,-2.5819,-2.65,-2.8023,-2.8096,-2.809,-2.8098,-2.7404,-2.7787,-2.9383,-2.9416,-2.984,-3.0673,-3.1418,-3.1356,-3.0614,-3.0614,-3.0614,-3.0672,-3.1468,-3.1282,-3.0573,-3.2623,-3.2411,-3.079,-3.0522,-2.9946,-2.924,-2.9112,-2.9067,-2.9085,-2.9017,-2.8994,-2.8994,-2.8994,-2.8994,-2.8994,-2.9062,-2.9181,0.0,0.0,-2.8166,-2.8108,-2.7373,-2.7283,-2.7165,-2.6375,-2.6294,-2.6173,-2.5382,-2.521,-2.5199,-2.5227,-2.5165,-2.5094,-2.5034,0.0,-2.495,-2.5021,-2.508,-2.5099,-2.5031,-2.4782,-2.4464,-2.4018,-2.3486,-2.297,-2.2525,-2.2061,-2.1617,-2.1247,-2.0761,-2.0342,-2.01,-1.9833,-1.9581,-1.9376,-1.9205,0.0,0.0,0.0,0.0,0.0,0.0,0.0,0.0,0.0,0.0,0.0,0.0,0.0,0.0,0.0,0.0,0.0,0.0,0.0,0.0,0.0,0.0,0.0,0.0,0.0,0.0,0.0,0.0,-2.5953,-2.5702,0.0,-2.7402,-2.7519,-2.6992,-2.5722,-2.5683,-2.5956,-2.6517,-2.6568,-2.6561,-2.6557,-2.6822,-2.7257,-2.7857,-2.8349,-2.8728,-2.8994,-2.9776,-3.0012,-2.9741,-3.0311,-3.0554,-3.0616,-3.1419,-3.1229,-3.0458,-3.1675,-3.1431,-3.0224,-3.0018,-2.9712,-2.9411,-2.9349,-2.9265,-2.9218,-2.9152,-2.9089,-2.9044,-2.9044,-2.9044,-2.8997,-2.8632,-2.8552,-2.8314,-2.7099,-2.6773,-2.6648,-2.5899,-2.5783,-2.5796,-2.5545,-2.5551,-2.5554,-2.5268,-2.5191,-2.5191,-2.5168,-2.5156,-2.5113,-2.5101,-2.5069,-2.5076,-2.5101,-2.5113,-2.5076,-2.4921,-2.4697,-2.4405,-2.4002,-2.3459,-2.2958,-2.2571,-2.2101,-2.1648,-2.1294,-2.0893,-2.0595,-2.0357,-2.0185,-2.001,-1.9869,-1.9603,-1.942,0.0,0.0,0.0,0.0,0.0,0.0,0.0,0.0,0.0,0.0,0.0,0.0,0.0,0.0,0.0,0.0,0.0,0.0,0.0,0.0,0.0,0.0,0.0,0.0,0.0,0.0,-2.8173,-2.5901,-2.5658,-2.5687,-2.5693,-2.5676,-2.564,-2.5564,-2.564,-2.5683,-2.5696,-2.5975,-2.5996,-2.5703,-2.6558,-2.7001,-2.7005,-2.7514,-2.7881,-2.8145,-2.8954,-2.9324,-2.9357,-3.0238,-3.0632,-3.0653,-3.1166,-3.1033,-3.0455,-3.0861,-3.0648,-3.0007,-2.9789,-2.9682,-2.9626,-2.9551,-2.9493,-2.9411,-2.9246,-2.9156,-2.9085,-2.9089,-2.9134,-2.9055,-2.8384,-2.826,-2.8012,-2.6494,-2.6113,-2.5958,-2.5196,-2.5032,-2.5076,-2.5113,-2.5168,-2.5191,-2.5191,-2.5191,-2.5191,-2.5191,-2.5191,-2.5191,-2.5191,-2.5191,-2.5191,-2.5191,-2.5191,-2.5125,-2.4929,-2.4697,-2.4405,-2.4022,-2.3459,-2.2933,-2.2537,-2.1998,-2.157,-2.1246,-2.0893,-2.0628,-2.0426,-2.0289,-2.015,-2.001,-1.9762,-1.9581,-1.9472,0.0,0.0,0.0,0.0,0.0,0.0,0.0,0.0,0.0,0.0,0.0,0.0,0.0,0.0,0.0,0.0,0.0,0.0,0.0,0.0,0.0,0.0,0.0,-2.5648,-2.5581,-2.5496,-2.5493,-2.5552,-2.5624,-2.5695,-2.5636,-2.5566,-2.5509,-2.5551,-2.5636,-2.5722,-2.655,-2.6615,-2.5799,-2.6562,-2.6992,-2.7009,-2.6901,-2.7276,-2.8131,-2.8963,-2.9377,-2.9405,-3.03,-3.0697,-3.0698,-3.0642,-3.0565,-3.0492,-3.0356,-3.0311,-3.0279,-2.9996,-2.9902,-2.9902,-2.9834,-2.975,-2.9644,-2.9334,-2.9119,-2.9017,-2.9071,-2.9166,-2.9109,-2.8352,-2.831,-2.8199,-2.6617,-2.6256,-2.6173,-2.5401,-2.5191,-2.5191,-2.5191,-2.5191,-2.5191,-2.5191,-2.5172,-2.5153,-2.5153,-2.5134,-2.5134,-2.5191,-2.5191,-2.5191,-2.5191,-2.5191,0.0,-2.4929,-2.4663,-2.4352,-2.3945,-2.3432,-2.2875,-2.2358,-2.179,-2.137,-2.1087,-2.0728,-2.0426,-2.0304,-2.015,-1.9995,-1.9762,-1.9647,-1.9538,-1.9376,0.0,0.0,0.0,0.0,0.0,0.0,0.0,0.0,0.0,0.0,0.0,0.0,0.0,0.0,0.0,0.0,0.0,0.0,0.0,0.0,0.0,-2.6262,-2.6333,-2.8851,-2.7062,-2.5456,-2.5376,-2.5456,-2.5556,-2.5608,-2.5622,-2.5562,-2.551,-2.5523,-2.5801,-2.6456,-2.6762,-2.7094,-2.7436,-2.712,-2.6935,-2.6921,-2.6284,-2.6093,-2.6405,-2.7883,-2.8598,-2.8652,-3.0105,-3.0774,-3.0774,-3.0706,-3.0659,-3.0634,-3.0492,-3.046,-3.0414,-3.0194,-3.0094,-3.0045,-3.003,-2.9869,-2.9681,-2.9531,-2.937,-2.9148,-2.8625,-2.8461,-2.8278,-2.705,-2.676,-2.6655,-2.5678,-2.5468,-2.5478,-2.5268,-2.5203,-2.5206,-2.5206,-2.5198,-2.519,-2.519,-2.4749,-2.4328,-2.4328,-2.382,-2.3771,-2.4981,-2.5191,-2.5191,-2.5191,-2.5191,0.0,-2.4929,-2.4712,-2.4405,-2.4022,-2.3441,-2.2873,-2.2341,-2.1731,-2.1214,-2.0893,-2.0561,-2.0289,-2.015,-1.9925,-1.9654,-1.9288,-1.925,-1.9213,0.0,0.0,0.0,0.0,0.0,0.0,0.0,0.0,0.0,0.0,0.0,0.0,0.0,0.0,0.0,0.0,0.0,0.0,0.0,0.0,0.0,0.0,-2.592,-2.5985,-2.8006,-2.6593,-2.5293,-2.5188,-2.5293,-2.5406,-2.5509,-2.5511,-2.5503,-2.5471,-2.5464,-2.5691,-2.6236,-2.6973,-2.7307,-2.7055,-2.7288,-2.7071,-2.6364,-2.5843,-2.5622,-2.5715,-2.7479,-2.8301,-2.8358,-3.0053,-3.0648,-3.0281,-3.0225,-2.9995,-2.9648,-2.9505,-2.9457,-2.9506,0.0,0.0,0.0,0.0,-3.0026,-2.9817,-2.9754,-2.9608,-2.9342,-2.854,-2.8314,-2.8084,-2.659,-2.6214,-2.6123,-2.5373,-2.5168,-2.5191,-2.5203,-2.5217,-2.525,-2.5241,-2.5253,-2.5187,-2.4812,-2.437,-2.3928,-2.3573,-2.3093,0.0,-2.4024,-2.4462,-2.4812,-2.5157,-2.5203,-2.5137,-2.4929,-2.4712,-2.4458,-2.4041,-2.3464,-2.288,-2.2395,-2.1685,0.0,0.0,0.0,-1.9565,-1.9038,-1.8733,0.0,0.0,0.0,0.0,0.0,0.0,0.0,0.0,-2.0204,-2.0697,0.0,0.0,0.0,0.0,0.0,0.0,0.0,0.0,0.0,0.0,0.0,0.0,0.0,0.0,0.0,0.0,-2.507,-2.5069,-2.5077,-2.508,-2.5064,-2.5018,-2.4945,-2.5024,-2.5332,-2.5359,-2.5374,-2.5371,-2.5374,-2.5448,-2.5665,0.0,0.0,0.0,0.0,-2.7234,-2.5745,-2.5648,-2.5629,-2.5718,-2.7444,-2.8274,-2.8359,-3.0098,-3.0407,-2.9597,-2.9523,-2.9012,-2.8194,-2.8061,-2.8024,-2.8158,-2.958,-3.0121,-3.0121,-3.0061,-2.9914,-2.9746,-2.9684,0.0,0.0,-2.8437,-2.8237,-2.8063,-2.655,-2.6187,-2.614,-2.5413,-2.5214,-2.5214,-2.5209,-2.5271,-2.5312,-2.5313,-2.5283,-2.5048,-2.4287,-2.3951,-2.3584,-2.2813,-2.2582,-2.2562,-2.2639,-2.3419,-2.4253,-2.496,-2.5152,-2.5141,-2.4942,-2.4746,-2.4458,-2.4041,-2.3486,0.0,-2.2449,-2.1761,-2.0876,-1.9861,-1.9259,-1.848,-1.7467,-1.7156,-1.7001,-1.6892,-1.7434,-1.7748,-1.7782,-1.8561,-1.9089,-1.9457,-2.017,-2.0778,0.0,0.0,0.0,0.0,0.0,0.0,0.0,0.0,0.0,0.0,0.0,0.0,0.0,0.0,0.0,-2.5038,-2.4981,-2.4923,-2.4869,-2.4855,-2.4891,-2.4979,-2.3835,-2.3591,-2.5015,-2.5147,-2.5168,-2.5157,-2.5157,-2.562,-2.6641,-2.6824,-2.7305,-2.8229,-2.7423,-2.6834,-2.6572,-2.5868,-2.5543,-2.5634,-2.7331,0.0,-2.8288,-3.0023,-3.0346,-2.9511,-2.9511,-2.9012,-2.8207,-2.8164,-2.8132,-2.8105,-2.8309,-2.8385,-2.8385,-2.8373,-2.8318,-2.8217,-2.8154,-2.7994,-2.7725,-2.6949,-2.6711,-2.658,-2.5669,-2.5461,0.0,-2.5311,-2.5283,-2.5283,-2.5284,-2.5331,-2.5378,-2.5376,-2.4899,-2.4393,-2.4219,-2.3079,-2.2028,-2.1854,-2.1313,-2.1062,-2.1719,-2.3083,-2.4128,-2.4293,-2.4879,-2.5198,-2.5006,-2.4823,-2.4526,-2.4117,-2.3592,-2.3045,-2.2529,-2.179,-2.0923,-1.9861,-1.8555,-1.7537,-1.6878,-1.6691,-1.6494,-1.6286,-1.6395,-1.6697,-1.7177,-1.7651,-1.8321,-1.9213,-2.0015,-2.073,0.0,0.0,0.0,0.0,0.0,0.0,0.0,0.0,0.0,0.0,0.0,-2.4406,-2.509,0.0,-2.4873,-2.4814,-2.4663,-2.442,-2.3995,-2.3596,-2.3708,-2.4733,-2.379,-2.355,-2.4822,-2.4624,-2.4576,-2.5022,-2.5053,-2.5337,-2.6006,-2.6359,-2.6718,-2.7094,-2.6968,-2.6635,-2.6091,-2.5681,-2.549,-2.5564,-2.685,-2.7468,-2.7532,-2.8848,-2.8987,-2.8203,-2.8198,-2.7715,-2.6947,-2.6916,-2.6879,-2.6835,-2.6786,-2.7268,-2.8004,-2.7995,-2.7969,-2.7942,-2.7865,-2.7761,-2.7527,-2.6715,-2.6447,-2.6316,-2.5524,-2.532,-2.5343,-2.5343,-2.5343,-2.5363,-2.5398,-2.5414,-2.5352,-2.4953,-2.4548,-2.4019,-2.314,-2.2268,-2.1532,-2.1125,-2.0718,-2.0582,-2.0989,-2.2075,-2.3028,-2.3383,-2.3793,-2.3985,-2.3774,-2.3572,-2.3313,-2.2941,-2.2443,-2.1965,-2.1487,-2.029,-1.916,-1.83,-1.7055,-1.6131,-1.5721,-1.5555,-1.5353,-1.5209,-1.5494,-1.5942,-1.6552,-1.7274,-1.8133,-1.9101,-1.9945,-2.0648,0.0,0.0,0.0,0.0,0.0,0.0,0.0,0.0,-2.3111,-2.396,-2.3516,-2.339,-2.4732,-2.4733,-2.4516,-2.4456,-2.4117,-2.3658,-2.3069,-2.2308,-2.2425,-2.4099,-2.3547,-2.3385,-2.4181,-2.3577,-2.3498,-2.4377,-2.4606,-2.4822,-2.5068,-2.5811,-2.5924,-2.5273,-2.6227,-2.6284,-2.5367,-2.5367,-2.5385,-2.5456,-2.6339,-2.6738,-2.6773,-2.7647,-2.7604,-2.684,-2.6705,-2.6278,-2.5683,-2.5637,-2.562,-2.5626,-2.5626,-2.6443,-2.7623,-2.762,-2.7608,-2.7602,-2.7554,-2.7481,-2.7314,-2.6611,-2.6379,-2.6262,-2.5627,-2.5446,-2.5447,-2.5447,-2.5447,-2.5408,-2.5292,-2.5265,-2.5057,-2.4261,-2.3936,-2.3436,-2.2018,-2.1595,-2.1284,-2.0623,-2.0506,-2.0511,-2.0511,-2.1035,-2.1726,-2.2465,-2.2711,-2.2728,-2.2528,-2.2325,-2.2062,-2.1728,-2.1291,-2.0798,-2.0254,-1.8683,-1.7421,-1.6697,-1.5724,-1.4994,-1.4651,-1.4461,-1.4365,-1.43,-1.4761,-1.5372,-1.6118,-1.6995,-1.8018,-1.9101,-1.9874,-2.0614,-2.4873,-2.4667,-2.421,-2.4199,-2.3497,-2.2814,0.0,0.0,-2.2945,-2.3688,-2.3709,-2.3796,-2.4452,-2.4379,-2.4155,-2.3946,-2.3222,-2.265,-2.2578,-2.1932,-2.1788,-2.2735,-2.183,-2.1436,-2.2238,-2.1585,-2.1484,-2.235,-2.3201,-2.4068,-2.4966,-2.5171,-2.5225,-2.5126,-2.5316,-2.5348,-2.5214,-2.5214,-2.5233,-2.5243,-2.6118,-2.6523,-2.6564,-2.7431,-2.743,-2.6699,-2.6038,-2.5687,-2.5613,-2.5677,-2.5681,-2.5683,-2.5683,-2.58,-2.5956,-2.5896,-2.5886,-2.5881,-2.5878,-2.5809,-2.5757,-2.5648,-2.5622,-2.5608,-2.5593,-2.5571,-2.557,-2.557,-2.557,-2.5394,-2.4623,-2.4425,-2.423,-2.3435,-2.2633,-2.2025,-2.1831,-2.1172,-2.061,-2.0516,-2.0506,-2.0492,-2.0492,-2.057,-2.0896,-2.1693,-2.2376,-2.2744,-2.2611,-2.2363,-2.2062,-2.1728,-2.1329,-2.0653,-1.9591,-1.8459,-1.7392,-1.6496,-1.5542,-1.4811,-1.4351,-1.4332,-1.43,-1.43,-1.4368,-1.4965,-1.6118,-1.6577,-1.7591,-1.9101,-1.9874,-2.0614,-2.5141,-2.4823,0.0,0.0,-2.2118,-2.105,-2.0996,-2.0944,-2.1237,-2.245,-2.267,-2.2952,-2.397,-2.4295,-2.4194,0.0,-2.2592,-2.1819,-2.1344,-2.028,-1.9823,-2.0598,-2.0601,-2.1218,-2.2886,-2.1898,-2.153,-2.2442,-2.2467,-2.289,-2.3892,-2.4077,-2.4369,-2.4842,-2.4885,-2.4905,-2.4854,-2.4816,-2.4848,-2.4968,-2.5374,-2.5571,-2.5583,-2.5944,-2.5979,-2.5764,-2.5522,-2.5477,-2.5531,-2.557,-2.5603,-2.5634,-2.5634,-2.5634,-2.5642,-2.5644,-2.5659,-2.5658,-2.5664,-2.56,-2.555,-2.5565,-2.5565,-2.5559,-2.5584,-2.5627,-2.5659,-2.5659,-2.5659,-2.5463,-2.4583,-2.3973,-2.3263,-2.1915,-2.0911,-2.0141,-1.9634,-1.9639,-1.9741,-1.9749,-2.0127,-2.0444,-2.0483,-2.0464,-2.0573,-2.0961,-2.1224,-2.1343,-2.1214,-2.0975,-2.0606,-2.0062,-1.9697,-1.9148,-1.8311,-1.7617,-1.6854,-1.598,-1.546,-1.4951,-1.442,-1.4433,-1.4401,-1.4365,-1.4365,-1.4754,-1.5576,-1.6327,-1.737,-1.8608,-1.9657,-2.0481,-2.4646,0.0,0.0,-2.2185,-2.0745,-1.9432,-1.9404,-1.936,-1.9771,-2.1301,-2.1619,-2.2027,-2.3353,-2.3807,-2.3742,-2.2943,-2.1987,-2.1105,-2.0542,-1.9371,-1.8865,-1.9593,-2.0164,-2.1257,-2.3111,-2.1982,-2.1337,-2.1816,-2.1443,-2.1622,-2.2608,-2.3082,-2.368,-2.447,-2.4498,-2.4473,-2.4436,-2.4398,-2.4448,-2.4625,-2.4723,-2.4756,-2.4771,-2.4795,-2.4847,-2.4939,-2.5109,-2.5252,-2.5367,-2.5421,-2.5477,-2.5542,-2.5542,-2.5542,-2.5547,-2.5619,-2.5664,-2.5677,-2.5683,-2.566,-2.5607,-2.5625,-2.5625,-2.5553,-2.5349,-2.5292,-2.5286,-2.505,-2.4972,-2.4757,-2.3901,-2.3045,-2.1992,-2.0508,-1.9471,-1.8726,-1.8318,-1.8729,-1.9238,-1.9472,-1.9996,-2.0382,-2.046,-2.0421,-2.0407,-2.0467,-2.0433,-2.0342,-2.0219,-1.9914,-1.9508,-1.8912,-1.8548,-1.8086,-1.7455,-1.7043,-1.647,-1.5681,-1.5433,-1.5104,-1.461,-1.4578,-1.4515,-1.4433,-1.4415,-1.4651,-1.5216,-1.602,-1.7055,-1.822,-1.9306,-2.0208,0.0,0.0,-2.0026,-2.0825,-1.9777,-1.8556,-1.8628,-1.8646,-1.9074,-2.0604,-2.0921,-2.1312,-2.2601,-2.2635,-2.2388,-2.2164,-2.1306,-2.0626,-2.0593,-2.0003,-1.983,-2.0572,-2.0727,-2.1128,0.0,-2.1054,-2.0176,-1.9555,-1.9722,-2.0258,-2.1219,-2.2319,-2.3253,-2.4007,-2.4026,-2.4026,-2.4026,-2.4026,-2.4081,-2.4228,-2.4353,-2.4407,-2.4424,-2.4472,-2.45,-2.4545,-2.4799,-2.4948,-2.5037,-2.5226,-2.5346,-2.5414,-2.5414,-2.5414,-2.5403,-2.5483,-2.5546,-2.5615,-2.5685,-2.5662,-2.5603,-2.5683,-2.5644,-2.5448,-2.4662,-2.4434,-2.4269,-2.3422,-2.3127,-2.2909,-2.2088,-2.1221,-2.035,-1.9441,-1.8572,-1.8148,-1.8895,-1.9088,-1.9353,-2.0207,-2.032,-2.0327,-2.0385,-2.0346,-2.0329,-2.0392,-2.0399,-2.0345,-2.0218,-1.9804,-1.9382,-1.903,-1.8643,-1.8115,-1.7455,-1.7101,-1.6533,-1.5739,-1.5521,-1.5209,-1.4808,-1.4746,-1.4624,-1.4501,-1.4433,-1.4651,-1.5216,-1.5574,-1.6564,-1.822,-1.8771,-1.9675,0.0,0.0,-1.7624,-1.8433,-1.7838,-1.7154,-1.7373,-1.7434,-1.7935,-1.9566,-1.993,-2.0357,-2.1653,-2.172,-2.1546,-2.1383,-2.06,-1.9997,-1.9997,-1.9388,-1.9196,-1.9931,-2.049,0.0,0.0,0.0,0.0,-2.0483,-1.9676,-1.9621,-2.0609,-2.117,-2.1795,-2.2583,-2.3075,-2.3343,-2.3343,-2.3343,-2.3388,-2.3538,-2.3177,-2.3002,-2.2984,-2.2519,-2.2337,-2.2392,-2.2613,-2.2813,-2.2946,-2.3164,-2.3301,-2.3417,-2.3417,-2.3417,-2.3417,-2.3487,-2.3888,-2.4517,-2.5342,-2.5657,-2.5676,-2.5693,-2.5675,-2.5519,-2.4659,-2.3972,-2.3287,-2.2414,-2.1735,-2.1085,-2.0225,-1.9359,-1.8485,-1.7625,-1.6708,-1.6249,-1.7064,-1.7667,-1.8261,-1.9049,-1.9654,-2.0068,-2.0123,-2.0084,-2.006,-2.0113,-2.0297,-2.0354,-2.0221,-1.9972,-1.9695,-1.9374,-1.9004,-1.8535,-1.7919,-1.7486,-1.6885,-1.6019,-1.5724,-1.5404,-1.4951,-1.4856,-1.4794,-1.47,-1.4637,-1.4621,-1.4664,-1.5445,-1.6451,-1.7627,-1.8564,-1.9659,-1.5125,-1.5136,-1.4921,-1.5909,-1.579,-1.5546,-1.5927,-1.62,-1.6827,-1.8411,-1.9021,-1.959,-2.0464,-2.0711,-2.0736,-2.0431,-1.9909,-1.958,-1.961,-1.9258,-1.9149,-1.963,-2.0131,-2.0395,0.0,0.0,0.0,-2.0541,-1.9475,-1.916,-1.9858,-1.9863,-2.0211,-2.097,-2.1703,-2.2074,-2.2074,-2.2323,-2.2522,-2.2735,-2.213,-2.1849,-2.1814,-2.111,-2.0781,-2.0844,-2.1126,-2.1334,-2.1526,-2.1792,-2.1975,-2.2082,-2.2101,-2.2101,-2.2115,-2.2193,-2.2748,-2.3579,-2.4285,-2.4782,-2.504,-2.4728,-2.4635,-2.4471,-2.3597,-2.2685,-2.1778,-2.0882,-1.9999,-1.9194,-1.8641,-1.7851,-1.7151,-1.6861,-1.6086,-1.5699,-1.6785,-1.7396,-1.7975,-1.8707,-1.9247,-1.963,-1.9673,-1.9628,-1.9601,-1.9678,-1.9831,-1.9992,-2.0141,-2.0085,-1.993,-1.9637,-1.933,-1.8899,-1.8251,-1.7759,-1.7109,-1.6251,-1.5938,-1.5551,-1.5118,-1.5041,-1.4949,-1.4873,-1.4763,-1.4637,-1.4433,-1.5202,-1.6149,-1.7305,-1.8218,-1.9412,-1.1795,-1.1978,-1.1844,-1.3268,-1.3544,-1.3617,-1.4265,-1.4808,-1.5608,-1.7043,-1.8143,-1.8877,0.0,0.0,-1.9773,-1.9288,-1.92,-1.9251,-1.9406,-1.953,-1.9603,0.0,0.0,0.0,0.0,0.0,0.0,-1.9561,0.0,-1.8736,-1.8949,-1.8496,-1.8572,-1.9262,-2.0007,-2.0357,-2.0328,-2.097,-2.146,-2.1742,-2.1107,-2.0814,-2.0797,-2.0136,-1.9813,-1.9838,-2.024,-2.0469,-2.0646,-2.0946,-2.1171,-2.1312,-2.1383,-2.14,-2.14,-2.1482,-2.2023,-2.2682,-2.2451,-2.3043,-2.3755,-2.2874,-2.257,-2.2373,-2.1507,-2.0629,-1.976,-1.882,-1.7909,-1.7244,-1.7244,-1.6713,-1.6345,-1.7036,-1.6591,-1.6438,-1.7932,-1.8204,-1.8374,-1.9118,-1.9139,-1.9044,-1.9044,-1.8971,-1.8947,-1.8989,-1.9013,-1.9268,-1.9977,-2.0058,-1.9997,-1.9798,-1.9554,-1.9066,-1.8271,-1.7783,-1.7136,-1.6204,-1.5909,-1.561,-1.5238,-1.5192,-1.5102,-1.4968,-1.4856,-1.47,-1.4501,-1.478,-1.5748,-1.7324,-1.7799,-1.9028,-0.6599,-0.738,-0.7955,-0.9241,-0.987,-1.0399,-1.1462,-1.2058,-1.2963,-1.4792,-1.5942,-1.6747,0.0,0.0,0.0,-1.7787,-1.7825,0.0,-1.8249,-1.8419,0.0,-1.8655,0.0,-1.8679,-1.8616,-1.8574,0.0,0.0,-1.7881,-1.7974,-1.8238,-1.7909,-1.7793,-1.7984,-1.913,-1.9657,-1.9515,-1.9625,-1.9783,-1.9955,-1.8773,-1.831,-1.8361,-1.7588,-1.7241,-1.7267,-1.7517,-1.7732,-1.792,-1.8155,-1.8375,-1.86,-1.8659,-1.872,-1.8761,-1.8803,-1.9363,-2.0073,-1.9471,-2.0656,-2.2315,-2.1537,-2.089,-2.0222,-1.9344,-1.8477,-1.7612,-1.6718,-1.5847,-1.5157,-1.5157,-1.5421,-1.5709,-1.5858,-1.6136,-1.6605,-1.7514,-1.7621,-1.7736,-1.8485,-1.8445,-1.8241,-1.8146,-1.7999,-1.7832,-1.7642,-1.775,-1.8228,-1.9363,-1.9559,-1.9537,-1.9448,-1.9375,-1.8264,-1.5627,-1.6028,-1.5366,-1.2888,-1.3568,-1.4078,-1.4187,-1.4401,-1.456,-1.4627,-1.4686,-1.4655,-1.4501,-1.498,-1.6031,-1.7605,-1.8146,-1.9074,-0.3727,-0.4801,-0.5665,-0.6699,-0.7544,-0.8486,-0.9683,-1.0538,-1.1634,-1.3517,-1.4925,0.0,0.0,0.0,0.0,0.0,0.0,0.0,-1.6957,-1.7122,-1.7259,0.0,-1.745,0.0,-1.734,-1.7129,-1.6798,0.0,-1.678,-1.6996,-1.6934,-1.6547,-1.6323,-1.6323,-1.7552,-1.8346,-1.8634,-1.846,-1.8347,-1.8352,-1.7158,-1.6503,-1.6349,-1.5814,-1.5399,-1.5173,-1.5624,-1.5866,-1.5995,-1.6234,-1.6276,-1.6249,-1.6361,-1.6298,-1.6171,-1.6199,-1.6775,-1.7429,-1.6685,-1.7366,-1.8655,-1.9121,-1.8756,-1.805,-1.754,-1.6798,-1.5997,-1.5473,-1.467,-1.4007,-1.3975,-1.4456,-1.5041,-1.5367,-1.5991,-1.6675,-1.7272,-1.7267,-1.7199,-1.7395,-1.7269,-1.7073,-1.6945,-1.667,-1.6383,-1.6174,-1.6178,-1.6481,-1.7181,-1.7978,-1.8366,-1.8099,-1.7122,-1.517,-1.1902,-1.194,-1.1262,-0.9214,-1.062,-1.2037,-1.3187,-1.369,-1.4084,-1.4401,-1.4479,-1.4529,-1.4501,-1.4996,-1.6094,-1.7832,-1.808,-1.9007,-0.219,-0.3279,-0.4207,-0.4973,-0.5957,-0.7065,-0.8373,-0.955,-1.0903,-1.2607,0.0,-1.5356,-1.48,0.0,-1.5905,-1.5188,0.0,-1.5342,-1.5596,-1.5776,-1.592,-1.6003,-1.6077,-1.6009,-1.5775,-1.5259,-1.4865,-1.4795,-1.5258,-1.5515,-1.5413,-1.4957,-1.4742,-1.4858,-1.5817,-1.6747,-1.7567,-1.7174,-1.6909,-1.678,-1.584,-1.5109,-1.4614,-1.4467,-1.4084,-1.3576,-1.4279,-1.4595,-1.4617,-1.4873,-1.4718,-1.4389,-1.4448,-1.4283,-1.3995,-1.399,-1.4426,-1.4934,-1.4319,-1.4054,-1.4284,-1.6188,-1.6342,-1.5775,-1.5741,-1.529,-1.4772,-1.4639,-1.4075,-1.3532,-1.3379,-1.3832,-1.4493,-1.5121,-1.585,-1.6509,-1.6945,-1.6824,-1.6457,-1.5999,-1.5796,-1.5641,-1.5484,-1.5067,-1.4684,-1.4504,-1.4368,-1.4251,-1.4184,-1.5775,-1.6713,-1.6177,-1.4136,-1.142,-0.8008,-0.7059,-0.6184,-0.5083,-0.6787,-0.8825,-1.1101,-1.2077,-1.2868,-1.3605,-1.3847,-1.41,-1.4392,-1.4907,-1.6157,-1.813,-1.8111,-1.9029,-0.0663,-0.1483,-0.2259,-0.3061,-0.3737,-0.4668,-0.6469,-0.78,0.0,0.0,0.0,-1.3902,-1.3284,-1.3747,0.0,-1.3522,0.0,0.0,0.0,0.0,-1.4722,0.0,0.0,0.0,0.0,0.0,0.0,0.0,-1.1889,-1.2365,-1.433,-1.4239,-1.4444,-1.51,-1.501,-1.5237,-1.5836,-1.5062,-1.4704,-1.4702,-1.396,-1.3454,-1.3098,-1.3323,-1.3154,-1.2659,-1.3238,-1.3537,-1.3664,-1.3684,-1.3735,-1.3735,-1.3479,-1.3439,-1.3488,-1.3022,-1.3003,-1.3166,-1.3094,-1.2747,-1.2512,-1.376,-1.3724,-1.3172,-1.3153,-1.3423,-1.3719,-1.3597,-1.3674,-1.3709,-1.3118,-1.3752,-1.4467,-1.4101,-1.4937,-1.5829,-1.5832,-1.537,-1.4876,-1.4455,-1.4177,-1.3925,-1.361,-1.3264,-1.2889,-1.2387,-1.2118,-1.1827,-1.1441,-1.34,-1.4652,-1.4223,-1.3025,-1.0449,-0.6071,-0.4482,-0.2648,-0.0122,-0.0626,-0.2007,-0.4234,-0.6413,-0.8308,-0.9973,-1.1353,-1.265,-1.3828,-1.4805,-1.6484,-1.8828,-1.9375,-2.0021,-0.011,-0.0874,-0.1593,-0.2256,-0.2957,-0.3889,-0.5559,0.0,0.0,0.0,0.0,-1.3015,-1.2744,0.0,0.0,0.0,0.0,0.0,0.0,0.0,0.0,0.0,0.0,0.0,0.0,0.0,0.0,0.0,-1.0494,-1.0769,-1.246,-1.278,-1.3288,-1.4046,-1.4075,-1.4161,-1.435,-1.3631,-1.3057,-1.2683,-1.2094,-1.152,-1.1003,-1.1609,-1.1625,-1.1146,-1.1873,-1.2271,-1.2401,-1.2401,-1.2425,-1.2401,-1.2287,-1.2209,-1.2038,-1.1565,-1.1307,-1.1117,-1.0946,-1.0702,-1.0586,-1.1415,-1.198,-1.2349,-1.2349,-1.2758,-1.3214,-1.3069,-1.3153,-1.3173,-1.2664,-1.3159,-1.3672,-1.3277,-1.3824,-1.4323,-1.3866,-1.361,-1.3349,-1.304,-1.2618,-1.2259,-1.2001,-1.1631,-1.1226,-1.0887,-1.0459,-1.0021,-0.9485,-1.016,-1.0697,-1.0833,-0.9189,-0.6533,-0.2667,-0.1334,-0.0017,0.1616,0.0941,-0.0321,-0.2097,-0.3865,-0.5517,-0.7044,-0.8955,-1.0957,-1.3087,-1.4452,-1.6583,-1.9336,-1.9687,-2.0568,0.0074,-0.063,-0.1294,-0.182,-0.255,-0.354,-0.4987,-0.6502,0.0,0.0,0.0,-1.2335,-1.2372,0.0,0.0,0.0,0.0,0.0,0.0,0.0,0.0,0.0,0.0,0.0,0.0,0.0,0.0,-1.0121,-0.9413,-0.9506,-1.063,-1.1352,-1.1981,-1.2549,-1.3011,-1.314,-1.2898,-1.2365,-1.1722,-1.0991,-1.0518,-0.9912,-0.9267,-1.0014,-1.0106,-0.973,-1.0587,-1.1074,-1.1255,-1.1255,-1.1233,-1.1221,-1.1255,-1.1151,-1.0922,-1.0311,-0.9921,-0.9582,-0.908,-0.8971,-0.9147,-0.9638,-1.0678,-1.1788,-1.1887,-1.2318,-1.2705,-1.2607,-1.2616,-1.2539,-1.2141,-1.235,-1.2634,-1.2416,-1.2585,-1.2636,-1.1964,-1.1873,-1.1807,-1.1491,-1.101,-1.0623,-1.0376,-0.9983,-0.967,-0.9482,-0.889,-0.8262,-0.7613,-0.6955,-0.6611,-0.6881,-0.5336,-0.3099,-0.0272,0.1111,0.2054,0.2522,0.1966,0.1037,-0.0295,-0.1231,-0.2367,-0.369,-0.5442,-0.7789,-1.075,-1.2609,-1.5245,-1.8571,-1.9181,-2.0552,0.0255,-0.028,-0.0896,-0.1406,-0.2121,-0.301,-0.4386,0.0,0.0,0.0,-1.0629,-1.1821,-1.1652,0.0,0.0,0.0,0.0,0.0,0.0,0.0,0.0,0.0,0.0,0.0,0.0,0.0,0.0,-0.8413,-0.7642,-0.7918,-0.9655,-1.0437,-1.0941,-1.1171,-1.1866,-1.1934,-1.1308,-1.102,-1.0583,-1.0015,-0.9731,-0.9263,-0.8694,-0.9061,-0.915,-0.9038,-0.9615,-1.0052,-1.04,-1.04,-1.0656,-1.0994,-1.0645,-1.0794,-1.1134,-0.9918,-0.9447,-0.9325,-0.8536,-0.8553,-0.8919,-0.9052,-0.9677,-1.0456,-1.0887,-1.1449,-1.1898,-1.1826,-1.2092,-1.2267,-1.1635,-1.1595,-1.1662,-1.1326,-1.1211,-1.1095,-1.0747,-1.0464,-1.0176,-0.9661,-0.9284,-0.8884,-0.8529,-0.8333,-0.8129,-0.7923,-0.712,-0.6265,-0.5476,-0.4578,-0.3695,-0.2835,-0.3344,-0.3038,-0.1287,0.158,0.3502,0.3978,0.5223,0.5471,0.442,0.3938,0.286,0.1097,0.0625,-0.14,-0.5062,-0.7465,-1.0899,-1.5206,-1.7589,-1.9672,0.0279,-0.0154,-0.0677,-0.1286,-0.1969,-0.2842,-0.426,0.0,0.0,-0.8581,-1.0078,-1.1253,-1.1385,-1.1556,0.0,0.0,0.0,0.0,0.0,0.0,0.0,0.0,0.0,0.0,0.0,0.0,0.0,-0.7253,-0.6731,-0.6696,-0.7181,-0.8449,-0.9313,-0.9593,-1.0282,-1.0467,-1.0086,-0.9644,-0.9262,-0.8927,-0.8383,-0.8033,-0.7872,-0.7897,-0.7961,-0.8096,-0.8529,-0.905,-0.9582,-0.9665,-1.0063,-1.0651,-1.0543,-1.0668,-1.074,-0.9817,-0.9197,-0.8665,-0.789,-0.7706,-0.7945,-0.8253,-0.868,-0.9301,-1.0254,-1.0887,-1.1311,-1.1143,-1.1176,-1.1174,-1.072,-1.0487,-1.0204,-0.9705,-0.9811,-0.9857,-0.9392,-0.9202,-0.8996,-0.8585,-0.8064,-0.7578,-0.7126,-0.6923,-0.6706,-0.6495,-0.5899,-0.5211,-0.437,-0.3679,-0.2923,-0.2053,-0.2442,-0.2444,-0.1683,-0.0196,0.0777,0.0996,0.2371,0.3343,0.3668,0.3437,0.2812,0.1725,0.0402,-0.1756,-0.4779,-0.6591,-0.8944,-1.1799,-1.3851,-1.5777,0.0339,0.0081,-0.0317,-0.1037,-0.1765,-0.2684,0.0,0.0,-0.7042,-0.8093,-0.9513,-1.0667,-1.1052,-1.1308,-1.1481,0.0,0.0,0.0,0.0,0.0,0.0,0.0,0.0,0.0,0.0,0.0,-0.7386,-0.6287,-0.6045,-0.5813,-0.5494,-0.6839,-0.7839,-0.8321,-0.8892,-0.9126,-0.9076,-0.8513,-0.8115,-0.7804,-0.7172,-0.6915,-0.6965,-0.6868,-0.6975,-0.7237,-0.7534,-0.8095,-0.8814,-0.8832,-0.931,-1.0019,-0.9998,-1.0076,-1.0098,-0.9199,-0.8521,-0.7968,-0.7198,-0.7015,-0.7181,-0.7509,-0.7847,-0.8308,-0.915,-0.9807,-1.0234,-1.0079,-0.9915,-0.972,-0.9464,-0.9213,-0.8833,-0.8337,-0.8469,-0.8584,-0.822,-0.8071,-0.79,-0.7529,-0.6981,-0.6355,-0.5808,-0.5556,-0.5336,-0.5029,-0.46,-0.4077,-0.3325,-0.2804,-0.2279,-0.157,-0.1591,-0.1644,-0.1681,-0.135,-0.1095,-0.0977,0.0167,0.1306,0.2335,0.2805,0.2822,0.2332,0.1276,-0.0483,-0.2968,-0.4443,-0.6231,-0.8358,-1.0342,-1.2391,0.0518,0.0448,0.0198,-0.0539,-0.1471,-0.2478,0.0,-0.5335,-0.6894,-0.7576,-0.8943,-1.0155,-1.0555,-1.1122,-1.1512,-1.1188,0.0,0.0,0.0,0.0,0.0,0.0,0.0,0.0,0.0,0.0,-0.6219,-0.5566,-0.539,0.0,-0.5201,-0.5927,-0.6671,-0.7487,-0.7764,-0.8038,-0.8323,-0.7717,-0.717,-0.67,-0.6305,-0.6037,-0.5936,-0.6135,-0.6354,-0.6622,-0.6702,-0.7255,-0.8077,-0.7821,-0.829,-0.9141,-0.8701,-0.8812,-0.9064,-0.7787,-0.7309,-0.7213,-0.6554,-0.657,-0.6892,-0.6892,-0.7194,-0.7472,-0.7288,-0.785,-0.8521,-0.8521,-0.8342,-0.809,-0.7859,-0.775,-0.7634,-0.737,-0.7328,-0.7328,-0.7321,-0.7036,-0.67,-0.6283,-0.5851,-0.525,-0.447,-0.4204,-0.3982,-0.3588,-0.3102,-0.2662,-0.2178,-0.1697,-0.1256,-0.0764,-0.0649,-0.0826,-0.1375,-0.1162,-0.0927,-0.0708,0.0,0.0701,0.1383,0.3135,0.3997,0.3791,0.4931,0.4368,0.2022,0.0289,-0.206,-0.4904,-0.7595,-1.0291,0.0096,-0.0091,-0.0435,-0.1225,-0.2113,-0.3039,-0.4199,-0.5758,-0.7179,-0.8138,-0.9334,-1.0358,-1.087,-1.131,-1.1593,-1.1483,-1.1224,0.0,0.0,0.0,0.0,0.0,0.0,0.0,0.0,0.0,-0.6044,-0.5094,-0.5052,-0.5004,-0.4784,-0.5655,-0.6298,-0.6593,-0.6775,-0.71,-0.753,-0.6769,-0.6439,-0.6552,-0.5934,-0.5611,-0.5628,-0.5364,-0.5396,-0.565,-0.5656,-0.6144,-0.6954,-0.6957,-0.7328,-0.7893,-0.7592,-0.7568,-0.7622,-0.6787,-0.6375,-0.6145,-0.58,-0.58,-0.595,-0.595,-0.6194,-0.6465,-0.65,-0.7004,-0.7517,-0.7418,-0.7356,-0.7273,-0.7189,-0.7021,-0.6852,-0.667,-0.6586,-0.6507,-0.641,-0.6161,-0.5825,-0.5524,-0.4957,-0.4347,-0.3649,-0.3341,-0.2987,-0.2583,-0.2359,-0.2117,-0.1673,-0.1413,-0.1115,-0.0731,-0.0595,-0.0586,-0.07,-0.065,-0.0514,-0.0298,0.0072,0.0397,0.0633,0.1278,0.1495,0.1203,0.1473,0.1168,0.0191,-0.0377,-0.1447,-0.3047,-0.4395,-0.6204,0.0,-0.0912,-0.1278,-0.2066,-0.2911,-0.3803,-0.4919,-0.6324,-0.7617,-0.8585,-0.9661,-1.0618,-1.0996,-1.1373,-1.1622,-1.1622,-1.1392,0.0,0.0,0.0,0.0,0.0,0.0,0.0,0.0,-0.6221,-0.5838,-0.5103,-0.5113,-0.5114,-0.4987,-0.5748,-0.6148,-0.6053,-0.6169,-0.6382,-0.6743,-0.5846,-0.5537,-0.5744,-0.5166,-0.4917,-0.5052,-0.479,-0.4829,-0.5096,-0.5096,-0.5433,0.0,-0.6048,-0.6292,-0.6712,-0.6327,-0.6197,-0.6191,-0.5588,-0.5233,-0.5074,-0.499,-0.4976,-0.5009,-0.5009,-0.5156,-0.5365,-0.5456,-0.6063,-0.6671,-0.6482,-0.6447,-0.6447,-0.6447,-0.6227,-0.6007,-0.5867,-0.5696,-0.5572,-0.5394,-0.5135,-0.4879,-0.4618,-0.4136,-0.3565,-0.2857,-0.2504,-0.2105,-0.1655,-0.1523,-0.1411,-0.1183,-0.1051,-0.0925,-0.0716,-0.0548,-0.0339,-0.0129,-0.0202,-0.0155,0.0078,0.0267,0.0419,0.0432,0.052,0.045,0.0126,-0.0043,-0.0262,-0.0583,-0.0672,-0.1134,-0.1998,-0.2715,-0.3871,0.0,-0.2079,-0.2397,-0.3014,-0.3826,-0.4786,-0.5727,-0.7026,0.0,-0.8959,-1.0037,-1.087,-1.1122,-1.1373,-1.1615,-1.1593,0.0,0.0,0.0,0.0,0.0,0.0,0.0,0.0,-0.5881,-0.5771,-0.5657,-0.5475,-0.5424,-0.5424,-0.5499,-0.6043,-0.6205,-0.5809,-0.5837,-0.5888,-0.5969,-0.506,-0.4547,-0.4476,-0.4125,-0.4068,-0.4261,-0.4393,-0.4602,-0.4841,-0.4841,-0.5047,-0.5318,-0.5106,-0.5315,-0.5641,-0.4993,-0.4826,-0.4948,-0.4295,-0.4038,-0.4038,-0.4108,-0.4108,-0.4108,-0.4108,-0.4164,-0.4242,-0.4242,-0.501,-0.5867,-0.5696,-0.5626,-0.5636,-0.5636,-0.5458,-0.5198,-0.5009,-0.4748,-0.4487,-0.4272,-0.4128,-0.3942,-0.3679,-0.3365,-0.2876,-0.2079,-0.173,-0.1378,-0.0802,-0.0668,-0.0702,-0.0671,-0.0668,-0.0669,-0.0671,-0.0419,-0.0085,0.0401,0.0216,0.0166,0.0438,0.0633,0.0751,0.0754,0.0745,0.0592,0.0296,0.0088,-0.018,-0.0404,-0.0627,-0.103,-0.1614,-0.2322,-0.3067,-0.5888,0.0,-0.391,-0.4529,-0.5216,-0.5912,0.0,-0.7799,-0.8813,0.0,0.0,0.0,0.0,0.0,0.0,0.0,0.0,0.0,0.0,0.0,0.0,0.0,0.0,0.0,-0.632,-0.6243,-0.5912,-0.5159,-0.5116,-0.4954,-0.4607,-0.5487,-0.5916,-0.5716,-0.5392,-0.5389,-0.5777,-0.5002,-0.4437,-0.4117,-0.393,-0.3802,-0.3686,-0.3886,-0.4086,-0.4302,-0.4384,-0.4534,-0.4696,-0.4548,-0.469,-0.4957,-0.4246,-0.4086,-0.419,-0.3612,-0.3368,-0.3331,-0.3364,-0.3298,-0.3196,-0.3196,-0.3348,-0.3527,-0.3527,-0.4242,-0.4988,-0.4946,-0.5027,-0.5159,-0.5159,-0.4975,-0.4709,-0.4535,-0.4272,-0.4012,-0.3796,-0.3523,-0.3266,-0.3139,-0.2648,-0.2145,-0.1698,-0.1337,-0.1015,-0.069,-0.0568,-0.0519,-0.0418,-0.034,-0.0268,-0.0159,0.008,0.0371,0.0756,0.0604,0.068,0.1129,0.1179,0.1176,0.1173,0.1054,0.0794,0.0397,-0.0134,-0.0448,-0.0627,-0.103,-0.1344,-0.1614,-0.2107,-0.2504,-0.8259,-0.7088,-0.5943,-0.6358,-0.6876,-0.7395,-0.8014,0.0,0.0,0.0,0.0,0.0,0.0,0.0,0.0,0.0,0.0,0.0,0.0,0.0,0.0,0.0,0.0,-0.6931,0.0,-0.601,-0.5891,-0.5354,-0.5323,-0.522,-0.4949,-0.4981,-0.4957,-0.487,-0.473,-0.4852,-0.5245,-0.4581,-0.4041,-0.3723,-0.3607,-0.3526,-0.352,-0.3599,-0.3814,-0.4108,-0.4192,-0.4244,-0.4252,-0.4109,-0.4132,-0.414,-0.3602,-0.3411,-0.3448,-0.3033,-0.2841,-0.2808,-0.2775,-0.2739,-0.2673,-0.2673,-0.2757,-0.2891,-0.2891,-0.3319,-0.3875,-0.4284,-0.4453,-0.4555,-0.4648,-0.4495,-0.4228,-0.4008,-0.3788,-0.3527,-0.3312,-0.3025,-0.2719,-0.255,-0.21,-0.1646,-0.1294,-0.1021,-0.0792,-0.0526,-0.0406,-0.0281,0.0,0.0117,0.0236,0.0485,0.0688,0.0916,0.1203,0.1142,0.1182,0.1477,0.1447,0.1399,0.1298,0.1164,0.0895,0.0403,0.0,-0.0314,-0.0583,-0.0895,-0.1208,-0.1478,-0.1928,-0.2152,-0.9869,-0.9099,-0.8264,-0.8215,-0.8393,-0.8692,-0.9023,0.0,0.0,0.0,0.0,0.0,0.0,0.0,0.0,0.0,0.0,0.0,0.0,0.0,0.0,0.0,0.0,0.0,-0.5353,-0.5507,-0.5636,-0.5496,-0.542,-0.5382,-0.5387,-0.443,-0.3891,-0.3847,-0.4089,-0.4328,-0.4546,-0.4058,-0.3668,-0.3435,-0.3356,-0.3424,-0.3514,-0.3514,-0.3712,-0.402,-0.4064,-0.4026,-0.3969,-0.3817,-0.3655,-0.3414,-0.3048,-0.2887,-0.2758,-0.2531,-0.242,-0.2401,-0.231,-0.2292,-0.2275,-0.2275,-0.2275,-0.2275,-0.2275,-0.2387,-0.2706,-0.3471,-0.3773,-0.3869,-0.4022,-0.3889,-0.3677,-0.3497,-0.3237,-0.3023,-0.2811,-0.2502,-0.2215,-0.2011,-0.1662,-0.1264,-0.0884,-0.0735,-0.0591,-0.041,-0.0249,-0.0042,0.0332,0.0539,0.0749,0.1049,0.1218,0.1368,0.1563,0.1614,0.1614,0.1614,0.1614,0.1478,0.1208,0.1074,0.0807,0.0404,0.0314,0.009,-0.027,-0.0493,-0.0805,-0.1208,-0.1761,-0.1992,-1.1717,-1.1219,-1.0528,-0.9512,-0.916,-0.9063,0.0,0.0,0.0,0.0,0.0,0.0,0.0,0.0,0.0,0.0,0.0,0.0,0.0,0.0,0.0,0.0,0.0,-0.5687,-0.5096,-0.543,-0.5371,-0.4587,-0.4148,-0.3934,-0.3902,-0.3858,-0.3774,-0.3646,-0.3741,-0.3818,-0.3836,-0.3771,-0.3677,-0.3554,-0.3554,-0.3567,-0.3588,-0.3625,-0.3719,-0.3788,-0.388,-0.3913,-0.388,-0.3658,-0.3412,-0.3202,-0.2753,-0.2482,-0.2271,-0.212,-0.2032,-0.1981,-0.1859,-0.1776,-0.1707,-0.1707,-0.1707,-0.1707,-0.1707,-0.1753,-0.1823,-0.212,-0.2639,-0.3076,-0.3099,-0.3033,-0.2918,-0.2717,-0.2555,-0.2396,-0.2162,-0.1888,-0.1599,-0.1456,-0.1109,-0.0758,-0.0517,-0.0429,-0.0333,-0.0336,-0.0155,0.0079,0.0357,0.0555,0.0766,0.1007,0.1137,0.1285,0.1429,0.1658,0.1749,0.1749,0.1569,0.1254,0.0805,0.0626,0.0492,0.0493,0.0582,0.0538,0.036,-0.009,-0.0447,-0.0806,-0.1579,-0.2029,-1.2605,-1.2174,-1.1677,-1.0912,-1.0073,-0.9407,0.0,0.0,0.0,0.0,0.0,0.0,0.0,0.0,0.0,0.0,0.0,0.0,0.0,0.0,0.0,0.0,0.0,-0.4955,-0.4994,-0.4748,-0.4287,-0.3608,-0.3574,-0.3541,-0.3372,-0.3334,-0.3296,-0.3217,-0.3262,-0.3303,-0.3344,-0.3344,-0.3435,-0.3581,-0.3581,-0.3581,-0.3581,-0.3619,-0.366,-0.3697,-0.3707,-0.3748,-0.3785,-0.3364,-0.3074,-0.2774,-0.233,-0.2028,-0.1783,-0.1753,-0.1702,-0.1617,-0.1542,-0.1478,-0.1444,-0.1444,-0.1444,-0.1444,-0.1444,-0.1444,-0.1486,-0.1629,-0.2028,-0.2382,-0.2487,-0.2426,-0.2327,-0.21,-0.195,-0.1758,-0.1638,-0.1343,-0.1102,-0.0985,-0.0721,-0.0403,-0.022,-0.015,-0.0153,-0.0157,0.0,0.0206,0.0505,0.0718,0.0894,0.1174,0.1265,0.1317,0.1386,0.1523,0.1658,0.1794,0.1523,0.1164,0.0805,0.0538,0.0359,0.0359,0.0493,0.0449,0.0135,0.0,-0.0358,-0.0806,-0.1496,-0.1905,-1.3346,-1.292,-1.2397,-1.2005,0.0,-0.9654,-0.9493,0.0,0.0,0.0,0.0,0.0,0.0,0.0,0.0,0.0,0.0,0.0,0.0,-0.5501,-0.5109,-0.4405,-0.4316,-0.4408,-0.4718,-0.4029,-0.344,-0.304,-0.3274,-0.3331,-0.3161,-0.2943,-0.286,-0.2821,-0.2821,-0.2818,-0.2901,-0.2901,-0.3081,-0.349,-0.349,-0.349,-0.349,-0.349,-0.3527,-0.3568,-0.3486,-0.3483,-0.3435,-0.299,-0.262,-0.2221,-0.1879,-0.1558,-0.1288,-0.1392,-0.1377,-0.1325,-0.1361,-0.1316,-0.126,-0.126,-0.126,-0.126,-0.126,-0.1295,-0.1329,-0.1469,-0.1655,-0.1895,-0.2039,-0.1932,-0.1765,-0.157,-0.1342,-0.1194,-0.1121,-0.0847,-0.066,-0.0619,-0.0402,-0.0196,-0.0039,0.0,0.0,0.0,0.0127,0.0303,0.058,0.0716,0.0896,0.121,0.1256,0.1256,0.1344,0.1344,0.1478,0.1703,0.1478,0.1254,0.094,0.0583,0.0269,0.0135,0.027,0.018,-0.018,-0.0091,-0.0318,-0.0909,-0.1436,-0.1813,-1.401,-1.358,-1.3064,-1.2293,0.0,0.0,-0.9853,0.0,0.0,0.0,0.0,0.0,0.0,0.0,0.0,0.0,0.0,0.0,-0.5611,0.0,-0.487,-0.4361,-0.4316,-0.4228,-0.3997,-0.3767,-0.3504,-0.3287,-0.3073,-0.2946,-0.2909,-0.2776,-0.264,-0.2551,-0.2549,-0.2549,-0.2549,-0.2549,-0.2771,-0.3214,-0.3214,-0.3214,-0.3214,-0.3214,-0.3214,-0.3214,-0.3078,-0.2948,-0.2729,-0.246,-0.2004,-0.1458,-0.1316,-0.1127,-0.0964,-0.1092,-0.1124,-0.1127,-0.1248,-0.1253,-0.1206,-0.1206,-0.1206,-0.1206,-0.1206,-0.1243,-0.1317,-0.1472,-0.1593,-0.1719,-0.167,-0.1496,-0.1279,-0.1019,-0.0811,-0.0635,-0.051,-0.0356,-0.0276,-0.0316,-0.0197,-0.0079,0.0,0.0,0.0,0.0,0.0131,0.0269,0.0404,0.0494,0.0584,0.0719,0.0764,0.0853,0.112,0.1254,0.1344,0.1433,0.1523,0.1433,0.1119,0.0537,0.0134,0.0,-0.009,-0.018,-0.018,-0.0186,-0.0379,-0.0807,-0.1433,-0.1956,-1.407,-1.3588,-1.3,-1.249,0.0,0.0,0.0,0.0,0.0,0.0,0.0,0.0,0.0,0.0,0.0,0.0,0.0,-0.5826,-0.4847,-0.4646,-0.4556,-0.4317,-0.4192,-0.3965,-0.351,-0.3378,-0.3117,-0.2765,-0.2768,-0.2726,-0.264,-0.2595,-0.2551,-0.2504,-0.2415,-0.2324,-0.2188,-0.2103,-0.2059,-0.2101,-0.2549,-0.2771,-0.2771,-0.2771,-0.2771,-0.2771,-0.2544,-0.2413,-0.2279,-0.1923,-0.1542,-0.1246,-0.0973,-0.0884,-0.0889,-0.0973,-0.1006,-0.1054,-0.1094,-0.1063,-0.1022,-0.1022,-0.1022,-0.1022,-0.1022,-0.1099,-0.1178,-0.1295,-0.1413,-0.1558,-0.1722,-0.1558,-0.1204,-0.0789,-0.0479,-0.0162,0.0085,0.0214,0.0214,0.0128,0.0171,0.0214,0.0257,0.026,0.0263,0.0263,0.0311,0.036,0.0405,0.0405,0.0405,0.0405,0.0322,0.0324,0.054,0.078,0.0966,0.1076,0.1344,0.13,0.0853,0.0449,0.0045,-0.0225,-0.0315,-0.0405,-0.0494,-0.0374,-0.0572,-0.105,-0.1391,-0.1759,-1.4172,-1.3519,-1.2879,0.0,0.0,0.0,0.0,0.0,0.0,0.0,0.0,0.0,0.0,0.0,0.0,0.0,-0.5897,-0.5305,-0.4321,-0.4318,-0.4345,-0.4131,-0.3972,-0.37,-0.3205,-0.3031,-0.2815,-0.2415,-0.2462,-0.2509,-0.2417,-0.2417,-0.2417,-0.2417,-0.2237,-0.2057,-0.1832,-0.1657,-0.1435,-0.1166,-0.1703,-0.2014,-0.2148,-0.2148,-0.2148,-0.2148,-0.1923,-0.1787,-0.1698,-0.1343,-0.1101,-0.0944,-0.0688,-0.0645,-0.0734,-0.0756,-0.0794,-0.086,-0.086,-0.0843,-0.0822,-0.0822,-0.0822,-0.0822,-0.0822,-0.0945,-0.1069,-0.1149,-0.1272,-0.1436,-0.168,-0.1485,-0.1114,-0.0707,-0.0294,0.0085,0.0445,0.0539,0.0539,0.0494,0.0494,0.0494,0.0494,0.045,0.045,0.045,0.0405,0.0405,0.0405,0.0405,0.036,0.0225,0.0093,0.0047,0.018,0.0466,0.0656,0.0764,0.1031,0.1076,0.0853,0.05,0.0137,-0.0183,-0.0325,-0.0467,-0.0654,-0.0534,-0.0692,-0.1188,-0.137,-0.1572,-1.4382,-1.3606,0.0,0.0,0.0,0.0,0.0,0.0,0.0,0.0,0.0,0.0,0.0,0.0,0.0,-0.6127,-0.5578,-0.5043,-0.4317,-0.4322,-0.421,-0.3762,-0.3653,-0.3432,-0.3031,-0.2815,-0.2595,-0.2324,-0.2241,-0.2201,-0.2201,-0.2201,-0.2201,-0.2201,-0.1928,-0.1658,-0.1389,-0.1208,-0.0941,-0.0674,-0.0674,-0.0943,-0.1389,-0.1389,-0.1389,-0.1389,-0.1344,-0.1164,-0.0895,-0.076,-0.0583,-0.0405,-0.0405,-0.0405,-0.0405,-0.0405,-0.045,-0.0494,-0.0494,-0.0584,-0.0719,-0.0719,-0.0719,-0.0719,-0.0719,-0.0809,-0.0944,-0.1075,-0.1208,-0.1299,-0.1389,-0.1263,-0.0996,-0.0667,-0.0295,0.0085,0.0445,0.0584,0.0719,0.0719,0.0719,0.0719,0.0719,0.0584,0.0494,0.0494,0.045,0.0405,0.0405,0.0405,0.036,0.0225,0.0093,0.0047,0.018,0.0327,0.0423,0.0496,0.063,0.0809,0.1074,0.0698,0.038,0.019,-0.0198,-0.0454,-0.0605,-0.0576,-0.0746,-0.112,-0.1214,-0.1403,-1.3855,-1.2835,0.0,0.0,0.0,0.0,0.0,0.0,0.0,0.0,0.0,0.0,0.0,0.0,0.0,-0.5229,-0.4791,-0.4332,-0.3855,-0.383,-0.367,-0.3262,-0.3164,-0.2898,-0.2364,-0.2237,-0.2152,-0.1971,-0.2018,-0.2109,-0.2201,-0.2201,-0.2201,-0.2201,-0.1839,-0.1478,-0.1074,-0.0763,-0.0359,0.009,0.009,-0.0269,-0.0898,-0.0898,-0.0898,-0.0898,-0.0808,-0.0674,-0.0629,-0.0539,-0.0449,-0.0405,-0.0405,-0.0405,-0.0405,-0.0405,-0.0405,-0.045,-0.0494,-0.0539,-0.0584,-0.0674,-0.0629,-0.0539,-0.0494,-0.0539,-0.0629,-0.0629,-0.0718,-0.0853,-0.0806,-0.0704,-0.0607,-0.0658,-0.0396,-0.0044,0.0403,0.0584,0.0764,0.0942,0.0986,0.0986,0.0986,0.0941,0.0897,0.0809,0.0764,0.0719,0.0629,0.0539,0.045,0.0405,0.0334,0.029,0.0316,0.0382,0.0386,0.0406,0.0462,0.0509,0.0584,0.042,0.019,-0.0095,-0.0297,-0.0403,-0.0454,-0.0576,-0.0746,-0.0959,-0.1104,-0.1234,-1.3433,0.0,0.0,0.0,0.0,0.0,0.0,0.0,0.0,0.0,0.0,0.0,0.0,-0.6113,0.0,-0.464,-0.4256,-0.3922,-0.3643,-0.3445,-0.3176,-0.2812,-0.2499,-0.2144,-0.1789,-0.1746,-0.1748,-0.1658,-0.1748,-0.1884,-0.202,-0.202,-0.202,-0.202,-0.1658,-0.1254,-0.0805,-0.0494,-0.009,0.0405,0.0405,0.018,-0.027,-0.027,-0.027,-0.027,-0.018,-0.0135,-0.0135,-0.0135,-0.018,-0.018,-0.018,-0.018,-0.018,-0.018,-0.018,-0.027,-0.036,-0.0405,-0.0494,-0.0539,-0.0494,-0.036,-0.0135,-0.009,-0.0135,0.0,-0.0045,-0.0134,-0.0045,0.0045,0.0045,-0.0314,-0.0179,0.018,0.0584,0.0807,0.0987,0.1165,0.1208,0.1208,0.1208,0.1208,0.1165,0.1077,0.0944,0.0764,0.0629,0.0494,0.0405,0.045,0.0434,0.0443,0.0462,0.0544,0.0603,0.0615,0.0578,0.058,0.0519,0.0342,0.0199,0.005,-0.0103,-0.021,-0.0263,-0.0377,-0.0598,-0.0816,-0.0889,-0.101,0.0,0.0,0.0,0.0,0.0,0.0,0.0,0.0,0.0,0.0,0.0,0.0,0.0,-0.5491,-0.496,-0.424,-0.3908,-0.3727,-0.3551,-0.3179,-0.2776,-0.237,-0.1789,-0.1389,-0.1344,-0.1344,-0.1344,-0.1389,-0.1478,-0.1614,-0.1748,-0.1748,-0.1748,-0.1748,-0.1433,-0.1074,-0.0671,-0.0314,0.0045,0.045,0.045,0.045,0.0405,0.0405,0.0405,0.0405,0.0405,0.0405,0.0405,0.027,0.0225,0.0225,0.0225,0.0225,0.0225,0.0225,0.0135,0.0,-0.0135,-0.027,-0.0405,-0.0405,-0.0315,-0.009,0.0269,0.0403,0.0447,0.0671,0.0716,0.0716,0.0716,0.0805,0.0806,0.0269,0.0359,0.0629,0.0895,0.1119,0.1299,0.1389,0.1389,0.1389,0.1389,0.1344,0.1299,0.1299,0.0943,0.0629,0.0494,0.0316,0.0226,0.0362,0.0388,0.0449,0.0624,0.0819,0.0944,0.0961,0.0961,0.0862,0.076,0.0523,0.0426,0.0426,0.0275,0.0112,0.0,-0.0112,-0.0336,-0.0673,-0.0673,-0.0785,0.0,0.0,0.0,0.0,0.0,0.0,0.0,0.0,0.0,0.0,0.0,0.0,-0.5118,-0.4697,-0.4298,-0.3788,-0.3577,-0.3385,-0.3081,-0.3043,-0.269,-0.1746,-0.1478,-0.1256,-0.0898,-0.0944,-0.1033,-0.1164,-0.1299,-0.1389,-0.1478,-0.1478,-0.1478,-0.1478,-0.1164,-0.0805,-0.0447,-0.009,0.027,0.0629,0.0629,0.0629,0.0629,0.0494,0.0405,0.0405,0.0405,0.0405,0.0405,0.027,0.027,0.036,0.0225,0.027,0.036,0.0225,0.018,0.0135,-0.0135,-0.0225,-0.027,-0.036,-0.0225,0.0,0.0358,0.0493,0.0539,0.0895,0.0852,0.0718,0.0851,0.094,0.1074,0.1075,0.1031,0.1031,0.1164,0.1254,0.1299,0.1389,0.1389,0.1389,0.1389,0.1389,0.1344,0.1164,0.0807,0.0494,0.045,0.0185,0.0094,0.0236,0.0454,0.0622,0.075,0.1039,0.1207,0.1213,0.1192,0.1211,0.1158,0.0849,0.0586,0.0426,0.0275,0.0168,0.0168,-0.0056,-0.0224,-0.0336,-0.0561,-0.0729,0.0,0.0,0.0,0.0,0.0,0.0,0.0,0.0,0.0,0.0,0.0,0.0,-0.4557,-0.4124,-0.3744,-0.3334,-0.3087,-0.2996,-0.304,-0.2642,-0.2061,-0.1164,-0.1121,-0.1033,-0.0719,-0.081,-0.0944,-0.0987,-0.112,-0.1208,-0.1164,-0.1164,-0.112,-0.1077,-0.0807,-0.0493,-0.0134,0.0179,0.0539,0.0897,0.0897,0.0897,0.0897,0.0629,0.0539,0.0539,0.0539,0.0539,0.0539,0.0405,0.0405,0.045,0.036,0.0405,0.045,0.036,0.036,0.0315,0.0135,0.009,0.009,0.0,0.009,0.0314,0.0672,0.0806,0.0852,0.1165,0.1121,0.0987,0.1075,0.1164,0.1343,0.1655,0.1523,0.1389,0.1523,0.1524,0.1569,0.1569,0.1614,0.1614,0.1614,0.1614,0.1523,0.1299,0.0986,0.0718,0.0494,0.0186,0.0048,0.0191,0.0357,0.0581,0.083,0.1124,0.1301,0.1278,0.1298,0.1257,0.1202,0.0928,0.0765,0.071,0.0556,0.0449,0.0449,0.0224,0.0,-0.0112,-0.028,-0.0449,0.0,0.0,0.0,0.0,0.0,0.0,0.0,0.0,0.0,0.0,0.0,-0.4778,-0.4009,-0.3592,-0.319,-0.2794,-0.2504,-0.246,-0.2779,-0.2061,-0.1299,-0.0716,-0.0718,-0.0764,-0.0674,-0.0764,-0.081,-0.081,-0.0936,-0.0934,-0.0806,-0.0756,-0.0667,-0.0494,-0.0359,-0.009,0.0268,0.0494,0.0763,0.1119,0.1119,0.1119,0.1074,0.0853,0.0763,0.0763,0.0763,0.0763,0.0763,0.0629,0.0584,0.0584,0.0539,0.0539,0.0539,0.0539,0.0539,0.0494,0.045,0.0405,0.0405,0.0405,0.045,0.0584,0.0941,0.1075,0.112,0.1344,0.1344,0.1254,0.1254,0.1299,0.1478,0.1923,0.1835,0.1703,0.1882,0.1882,0.1882,0.1839,0.1839,0.1839,0.1839,0.1849,0.1811,0.1539,0.1366,0.1099,0.0688,0.0333,0.0097,0.0146,0.0259,0.043,0.0698,0.0994,0.1122,0.1122,0.1122,0.1122,0.101,0.0842,0.0842,0.0898,0.0729,0.0617,0.0617,0.0449,0.0224,0.0,0.0,-0.0168,0.0,0.0,0.0,0.0,0.0,0.0,0.0,0.0,0.0,0.0,-0.4264,-0.385,-0.3178,-0.281,-0.2485,-0.2024,-0.183,-0.1652,-0.1432,-0.1298,-0.1031,-0.0494,-0.0359,-0.0315,-0.045,-0.0494,-0.0539,-0.0539,-0.0564,-0.0475,-0.0314,-0.0173,0.0,0.0223,0.0313,0.0447,0.0626,0.0761,0.094,0.1119,0.1119,0.1119,0.1119,0.1075,0.103,0.103,0.103,0.103,0.103,0.0895,0.0852,0.0855,0.0719,0.0674,0.0674,0.0674,0.0584,0.0494,0.0494,0.045,0.0405,0.0405,0.045,0.0539,0.0851,0.0942,0.0988,0.1256,0.1208,0.1119,0.0985,0.1119,0.1389,0.1612,0.1703,0.1882,0.2328,0.2326,0.2192,0.2062,0.2064,0.2064,0.2064,0.2169,0.2168,0.2027,0.1941,0.1736,0.1243,0.077,0.0315,0.0052,0.0054,0.0056,0.0111,0.0391,0.0505,0.0505,0.0505,0.0505,0.0505,0.0393,0.0224,0.0168,0.0224,0.028,0.028,0.0112,0.0056,0.0,-0.0112,-0.028,0.0,0.0,0.0,0.0,0.0,0.0,0.0,0.0,0.0,0.0,-0.349,-0.3014,-0.2651,-0.2142,-0.1699,-0.1351,-0.111,-0.0918,-0.0763,-0.0672,-0.0494,-0.009,-0.009,-0.009,-0.018,-0.0225,-0.0223,-0.0217,-0.017,-0.0084,0.0125,0.0252,0.0424,0.069,0.084,0.0985,0.1074,0.1208,0.1344,0.1478,0.1433,0.1433,0.1478,0.1433,0.1299,0.1119,0.1119,0.1119,0.1074,0.103,0.1031,0.0987,0.0854,0.0854,0.0897,0.0854,0.0809,0.0807,0.0764,0.0719,0.0674,0.0584,0.0584,0.0629,0.0763,0.0808,0.0809,0.0943,0.0853,0.0763,0.0673,0.0763,0.0947,0.1245,0.1437,0.1633,0.2049,0.2219,0.2241,0.2154,0.2154,0.2154,0.2154,0.2318,0.2377,0.2233,0.226,0.2114,0.1712,0.1093,0.0639,0.0426,0.011,-0.0056,0.0112,0.0224,0.0336,0.0393,0.0336,0.028,0.028,0.0112,-0.0056,-0.0112,-0.0112,-0.0168,-0.028,-0.0448,-0.0504,-0.0505,-0.0505,-0.0561,0.0,0.0,0.0,0.0,0.0,0.0,0.0,0.0,0.0,0.0,-0.2627,-0.2055,-0.1841,-0.1414,-0.0957,-0.0576,-0.038,-0.0235,-0.0135,0.0045,0.0224,0.0449,0.0404,0.0359,0.0359,0.0359,0.0309,0.0295,0.0333,0.0448,0.0629,0.0722,0.0898,0.1112,0.1336,0.15,0.1544,0.1604,0.1703,0.1794,0.1703,0.1703,0.1794,0.1703,0.1478,0.1208,0.1208,0.1208,0.1208,0.1208,0.1208,0.1164,0.1077,0.1076,0.1075,0.1033,0.1032,0.1075,0.1033,0.0988,0.0943,0.0853,0.0808,0.0808,0.0808,0.0808,0.0808,0.0808,0.0718,0.0629,0.0629,0.0629,0.0724,0.1071,0.1276,0.1443,0.1798,0.2023,0.2129,0.2129,0.2129,0.2129,0.2221,0.2435,0.2596,0.2594,0.273,0.2691,0.2274,0.1643,0.1132,0.081,0.0221,-0.0112,0.0056,0.0056,0.0112,0.0168,0.0112,0.0056,0.0056,-0.0168,-0.028,-0.0393,-0.0505,-0.0617,-0.0673,-0.0784,-0.084,-0.0842,-0.0673,-0.0729,0.0,0.0,0.0,0.0,0.0,0.0,0.0,0.0,0.0,-0.2633,-0.179,-0.1062,-0.0559,-0.0489,-0.0208,0.0482,0.0428,0.0422,0.0856,0.103,0.112,0.1165,0.1254,0.1344,0.1344,0.1254,0.1188,0.1052,0.1047,0.1098,0.1252,0.1313,0.1498,0.1728,0.1894,0.1983,0.1983,0.1846,0.1794,0.1794,0.1794,0.1794,0.1794,0.1794,0.1703,0.1569,0.1433,0.1478,0.1569,0.1569,0.1478,0.1389,0.1389,0.1254,0.1119,0.1254,0.1208,0.1119,0.1254,0.121,0.1075,0.1075,0.1075,0.1075,0.1075,0.1075,0.1075,0.1075,0.1075,0.103,0.0895,0.0985,0.112,0.1258,0.139,0.1588,0.1847,0.1905,0.19,0.19,0.19,0.2,0.2253,0.2682,0.3061,0.3329,0.3701,0.3724,0.3113,0.2508,0.1788,0.0951,0.0336,-0.0112,-0.0336,-0.0224,-0.0224,-0.0336,-0.0224,-0.0224,-0.0336,-0.0393,-0.0561,-0.0842,-0.101,-0.0954,-0.0673,-0.0729,-0.0729,-0.0729,-0.0505,-0.0617,0.0,0.0,0.0,0.0,0.0,0.0,0.0,0.0,-0.2517,-0.1734,-0.1119,-0.0448,0.028,0.0444,0.0538,0.09,0.0988,0.1063,0.1221,0.1433,0.1614,0.1748,0.1839,0.1794,0.1658,0.1614,0.1585,0.1475,0.1572,0.1597,0.1612,0.1779,0.1859,0.1946,0.2098,0.2211,0.2186,0.2091,0.2064,0.2064,0.2064,0.2064,0.2064,0.2064,0.1975,0.1839,0.1703,0.1614,0.1614,0.1703,0.1703,0.1658,0.1569,0.1478,0.1389,0.1344,0.1299,0.1299,0.1299,0.1254,0.1208,0.1119,0.1119,0.1119,0.1119,0.1119,0.1119,0.1119,0.1119,0.1074,0.103,0.1074,0.1134,0.1196,0.1297,0.1398,0.1501,0.1772,0.1967,0.1967,0.1967,0.2017,0.2069,0.2441,0.2764,0.2872,0.3175,0.3299,0.2912,0.2408,0.1849,0.1234,0.0561,0.0112,0.0112,0.0,0.0,0.0112,0.0,-0.0112,-0.0168,-0.0336,-0.0449,-0.0561,-0.0842,-0.1066,-0.129,-0.1288,-0.1288,-0.129,-0.101,-0.0954,-1.1739,0.0,0.0,0.0,0.0,0.0,0.0,0.0,-0.2073,-0.1231,-0.056,0.0056,0.0842,0.1121,0.1316,0.153,0.1563,0.1669,0.1855,0.2057,0.2237,0.2373,0.2375,0.2333,0.2196,0.2152,0.2113,0.2021,0.2099,0.2098,0.1974,0.2107,0.2166,0.2164,0.23,0.2403,0.2413,0.2328,0.2288,0.2288,0.2288,0.2288,0.2288,0.2288,0.2241,0.2107,0.1973,0.1839,0.1748,0.1884,0.1928,0.1884,0.1839,0.1748,0.1658,0.1523,0.1478,0.1524,0.1478,0.1478,0.1433,0.1344,0.1344,0.1344,0.1344,0.1344,0.1344,0.1344,0.1344,0.1344,0.1344,0.1344,0.1372,0.1437,0.1492,0.1539,0.161,0.1678,0.1782,0.1782,0.1782,0.1782,0.1939,0.2188,0.2437,0.2545,0.2813,0.2907,0.2689,0.224,0.1849,0.1458,0.0842,0.0449,0.0505,0.0336,0.028,0.0393,0.028,0.0224,0.0112,-0.0056,-0.0168,-0.028,-0.0505,-0.0785,-0.1178,-0.1289,-0.1345,-0.129,-0.101,-0.0954,0.0,0.0,0.0,0.0,0.0,0.0,0.0,0.0,-0.1792,-0.1009,-0.028,0.0392,0.1008,0.1623,0.2131,0.2444,0.2213,0.2155,0.2797,0.2898,0.2898,0.2898,0.2907,0.2912,0.2912,0.2912,0.2863,0.2699,0.2691,0.2588,0.2315,0.2296,0.2344,0.2498,0.2501,0.2577,0.2684,0.2551,0.2504,0.2504,0.2504,0.2504,0.2504,0.2504,0.2415,0.2279,0.2152,0.2064,0.202,0.2154,0.2109,0.202,0.2154,0.2064,0.1794,0.1794,0.1794,0.1794,0.1794,0.1794,0.1794,0.1794,0.1794,0.1794,0.1796,0.1798,0.1798,0.1798,0.1798,0.1796,0.1794,0.1794,0.1832,0.1981,0.2019,0.206,0.2204,0.1736,0.1347,0.1347,0.1347,0.1403,0.1741,0.1905,0.2127,0.241,0.2571,0.2627,0.2519,0.2184,0.1905,0.1628,0.1178,0.0842,0.0729,0.0729,0.0617,0.0449,0.0617,0.0617,0.0449,0.0393,0.028,0.0056,0.0,-0.0112,-0.0393,-0.0729,-0.0785,-0.0673,-0.0505,-0.0561,-1.1926,0.0,0.0,0.0,0.0,0.0,0.0,0.0,-0.1567,-0.0617,-0.0056,0.0445,0.13,0.1779,0.2265,0.2883,0.2864,0.2839,0.3072,0.3306,0.3262,0.2943,0.2901,0.2904,0.2912,0.2912,0.2898,0.2863,0.286,0.271,0.2468,0.2259,0.2259,0.2495,0.2501,0.2577,0.2684,0.264,0.2595,0.2504,0.2595,0.2595,0.2504,0.2595,0.2551,0.246,0.2417,0.2373,0.2373,0.2417,0.2373,0.2373,0.2417,0.2328,0.2148,0.2062,0.202,0.202,0.202,0.202,0.202,0.202,0.202,0.2029,0.2133,0.2152,0.2152,0.2152,0.2152,0.2137,0.2033,0.202,0.2046,0.2102,0.2223,0.2297,0.2404,0.2367,0.2242,0.2017,0.1849,0.1849,0.1905,0.1959,0.2015,0.2127,0.2238,0.2294,0.2183,0.2071,0.1905,0.1628,0.1347,0.1178,0.1122,0.1066,0.101,0.1066,0.101,0.0954,0.0898,0.0785,0.0729,0.0673,0.0393,0.0336,0.0393,-0.0056,-0.028,-0.0336,-0.028,-0.028,0.0,0.0,0.0,0.0,0.0,0.0,-0.3704,-0.2772,-0.1846,0.0,-0.0224,0.0446,0.1416,0.1901,0.2401,0.3171,0.3198,0.3191,0.3356,0.349,0.349,0.3214,0.3034,0.2901,0.2904,0.2909,0.2912,0.2912,0.2912,0.2827,0.2588,0.2317,0.2299,0.2571,0.2577,0.2628,0.2776,0.2776,0.2732,0.2684,0.2732,0.2732,0.2684,0.2732,0.2732,0.2687,0.269,0.2685,0.269,0.269,0.2637,0.2504,0.2551,0.2504,0.237,0.2284,0.2286,0.2286,0.2286,0.2286,0.2286,0.2286,0.2286,0.2303,0.2443,0.2472,0.2481,0.2523,0.2505,0.2459,0.2359,0.2316,0.2318,0.2405,0.2529,0.2607,0.2741,0.2815,0.2745,0.2408,0.2184,0.2071,0.2015,0.1903,0.1849,0.1905,0.1961,0.2015,0.2015,0.2015,0.1959,0.1793,0.157,0.1403,0.1403,0.129,0.1234,0.1291,0.1234,0.1234,0.1291,0.1289,0.1232,0.1176,0.1008,0.0896,0.0842,0.0393,0.0224,0.028,0.0224,0.0112,-1.3297,-1.18,0.0,0.0,0.0,0.0,-0.4446,-0.34,-0.2514,0.0,-0.0561,0.028,0.1391,0.1892,0.2477,0.3242,0.3274,0.3267,0.3501,0.3581,0.3584,0.3584,0.326,0.2985,0.2937,0.2945,0.2945,0.2934,0.2907,0.2843,0.2691,0.2474,0.2455,0.2677,0.2686,0.2743,0.2909,0.2912,0.2912,0.2912,0.2912,0.2912,0.2912,0.2912,0.2912,0.2918,0.2982,0.2968,0.2921,0.2985,0.2825,0.2551,0.2684,0.264,0.2551,0.2549,0.2549,0.2551,0.2549,0.2549,0.2553,0.2563,0.2568,0.259,0.2758,0.2795,0.2817,0.2966,0.2913,0.2825,0.2778,0.2704,0.2633,0.2827,0.2833,0.289,0.3073,0.3123,0.3021,0.2689,0.2408,0.224,0.2071,0.185,0.174,0.1853,0.1905,0.1958,0.2015,0.2071,0.2071,0.2015,0.1794,0.1684,0.1684,0.1515,0.1402,0.1402,0.1402,0.1459,0.1684,0.1792,0.179,0.1679,0.1677,0.1511,0.1178,0.0729,0.0617,0.0954,0.0785,0.0561,-1.4176,-1.2695,-1.1115,-0.9304,0.0,0.0,-0.5042,-0.4061,-0.307,0.0,-0.1007,-0.0166,0.1186,0.1824,0.2387,0.312,0.3203,0.3179,0.3058,0.334,0.3584,0.3584,0.3733,0.3632,0.3186,0.3243,0.3209,0.2973,0.2832,0.271,0.2686,0.2547,0.2536,0.268,0.2686,0.2743,0.2909,0.2912,0.2912,0.2912,0.2912,0.2912,0.2912,0.2912,0.2912,0.2912,0.2892,0.2889,0.2912,0.2892,0.2887,0.2821,0.2868,0.2868,0.2821,0.2904,0.286,0.2821,0.2904,0.286,0.2839,0.2887,0.2918,0.2958,0.3318,0.3439,0.3442,0.3565,0.3586,0.3488,0.3287,0.3268,0.3213,0.3158,0.3192,0.3274,0.3319,0.3403,0.3469,0.3246,0.2912,0.2577,0.241,0.2354,0.2354,0.2354,0.2465,0.2521,0.241,0.2408,0.2352,0.2183,0.2128,0.2073,0.2073,0.2073,0.2017,0.2017,0.2017,0.2017,0.2073,0.224,0.2296,0.2071,0.1959,0.1903,0.1847,0.1233,0.1066,0.1234,0.1066,0.0954,-1.5025,-1.357,-1.2064,-1.0324,0.0,0.0,0.0,-0.5097,-0.4058,-0.2625,-0.1789,-0.0834,0.0655,0.1362,0.2005,0.2927,0.3239,0.3348,0.3239,0.3706,0.4172,0.4416,0.4729,0.4626,0.39,0.3764,0.3618,0.3245,0.2994,0.2875,0.2942,0.282,0.2809,0.2939,0.2945,0.2976,0.3043,0.3043,0.3043,0.3043,0.3043,0.3043,0.3043,0.3043,0.3043,0.3046,0.3109,0.3101,0.3046,0.3112,0.3101,0.304,0.2957,0.2909,0.2951,0.299,0.3037,0.3043,0.299,0.3035,0.3055,0.3028,0.3088,0.3268,0.3505,0.3714,0.3815,0.3866,0.3822,0.3721,0.3616,0.3518,0.3388,0.34,0.3409,0.3417,0.3479,0.3539,0.3583,0.3413,0.319,0.2968,0.2742,0.2685,0.2685,0.2685,0.2912,0.2968,0.2798,0.2798,0.2742,0.2573,0.2464,0.2465,0.2465,0.2465,0.2465,0.2465,0.2465,0.2464,0.2573,0.2685,0.2742,0.2629,0.2516,0.2406,0.2352,0.2017,0.185,0.1737,0.1625,0.1457,0.0,0.0,0.0,0.0,0.0,-0.8881,0.0,0.0,0.0,0.0,0.0,0.0,0.0,0.0,0.0,0.2571,0.0,0.0,0.0,0.4002,0.0,0.5233,0.5719,0.5668,0.4754,0.4275,0.3863,0.3504,0.3266,0.3178,0.3288,0.3162,0.3138,0.3251,0.323,0.3214,0.3214,0.3214,0.317,0.317,0.3126,0.3129,0.3081,0.3081,0.3081,0.3135,0.3242,0.3272,0.3179,0.3287,0.3315,0.3173,0.3043,0.2996,0.3034,0.3078,0.3126,0.3173,0.3152,0.3187,0.3236,0.3195,0.3345,0.3568,0.3673,0.3884,0.4076,0.4076,0.3996,0.3909,0.3912,0.3727,0.3573,0.3679,0.3596,0.357,0.3671,0.3694,0.3638,0.3524,0.3524,0.3411,0.3074,0.3019,0.3019,0.3072,0.3297,0.3413,0.3244,0.3188,0.3074,0.2961,0.2854,0.28,0.28,0.28,0.28,0.28,0.28,0.28,0.2961,0.3019,0.313,0.3132,0.3019,0.2907,0.28,0.28,0.2633,0.2296,0.2183,0.2017,0.0,0.0,0.0,0.0,-1.1323,0.0,0.0,0.0,-0.6244,-0.4988,0.0,0.0,0.0,0.0,0.0,0.0,0.0,0.0,0.3585,0.3663,0.4081,0.5183,0.6268,0.65,0.5295,0.44,0.3789,0.3773,0.3689,0.3615,0.363,0.3449,0.3382,0.3398,0.3278,0.3214,0.3214,0.3214,0.3126,0.3034,0.2951,0.2865,0.2773,0.264,0.264,0.2776,0.2881,0.2965,0.3034,0.3185,0.323,0.3214,0.3173,0.317,0.317,0.3306,0.3306,0.3233,0.345,0.3457,0.3411,0.3643,0.3868,0.4094,0.411,0.4288,0.4463,0.4463,0.445,0.4385,0.4223,0.4155,0.4094,0.3996,0.3944,0.3947,0.3965,0.3968,0.3968,0.391,0.391,0.3802,0.3413,0.3413,0.358,0.3685,0.3741,0.3688,0.3583,0.3413,0.3299,0.3074,0.3074,0.3074,0.3074,0.3074,0.3074,0.3074,0.3074,0.3074,0.3074,0.3074,0.3188,0.3357,0.3188,0.3074,0.3074,0.3074,0.291,0.2635,0.2635,0.2521,0.0,0.0,0.0,0.0,0.0,0.0,-1.001,0.0,-0.7676,0.0,0.0,0.0,0.0,0.0,0.0,0.0,0.1849,0.0,0.0,0.0,0.4015,0.5175,0.0,0.6225,0.5297,0.4492,0.4033,0.4033,0.3955,0.3873,0.3873,0.3733,0.3651,0.3651,0.3514,0.3442,0.3442,0.3442,0.3306,0.3126,0.2948,0.2771,0.2595,0.2368,0.237,0.2595,0.2815,0.2993,0.3126,0.335,0.3442,0.3452,0.3621,0.3514,0.3306,0.3398,0.3449,0.3569,0.3591,0.3672,0.3786,0.3984,0.4088,0.4249,0.4356,0.4408,0.4519,0.4519,0.4519,0.4463,0.4408,0.4301,0.4193,0.4138,0.4079,0.4024,0.4024,0.4024,0.4024,0.4024,0.4024,0.3968,0.386,0.3916,0.3916,0.391,0.3965,0.3968,0.3858,0.3802,0.3688,0.3633,0.3633,0.3633,0.3633,0.3633,0.3633,0.3633,0.3633,0.3633,0.3633,0.3633,0.3688,0.3747,0.3688,0.3633,0.3633,0.3633,0.3577,0.3466,0.3077,0.2854,-1.5421,0.0,0.0,0.0,0.0,0.0,0.0,0.0,0.0,0.0,0.0,0.0,0.0,0.0,0.0,0.0,0.0,0.1567,0.0,0.2963,0.0,0.0,0.0,0.0,0.5069,0.453,0.4201,0.4254,0.4202,0.4141,0.4141,0.3958,0.3856,0.3856,0.3676,0.3581,0.3581,0.3581,0.3442,0.3126,0.2901,0.2635,0.2373,0.2057,0.2057,0.2326,0.2591,0.2857,0.3084,0.3353,0.3513,0.3559,0.3804,0.3711,0.3468,0.356,0.3765,0.3911,0.3814,0.3938,0.416,0.4268,0.4301,0.4301,0.4463,0.4519,0.4574,0.4574,0.4574,0.4625,0.4625,0.4519,0.4411,0.4411,0.4301,0.419,0.419,0.4187,0.4132,0.4132,0.4132,0.4187,0.4245,0.4249,0.4193,0.4135,0.419,0.4138,0.4079,0.4024,0.4024,0.4024,0.4024,0.4024,0.4024,0.4024,0.4024,0.4024,0.4024,0.4024,0.4024,0.4024,0.4024,0.4024,0.4024,0.4024,0.4024,0.4024,0.4024,0.3965,0.3577,0.3297,0.0,0.0,0.0,-1.4094,0.0,0.0,0.0,0.0,-1.0246,0.0,0.0,0.0,0.0,0.0,0.0,0.0,0.0,0.0,0.0,0.0,0.0,0.0,0.0,0.0,0.0,0.446,0.4294,0.4457,0.4508,0.4505,0.4505,0.4172,0.4012,0.4012,0.3731,0.3581,0.3581,0.3581,0.3398,0.299,0.2682,0.2328,0.202,0.1614,0.1569,0.1837,0.2192,0.246,0.2729,0.3084,0.3294,0.3416,0.3563,0.3598,0.3664,0.4009,0.4165,0.4189,0.4185,0.4331,0.4512,0.4515,0.4519,0.4519,0.4519,0.4577,0.4688,0.4688,0.4794,0.4897,0.4897,0.4897,0.4901,0.4901,0.4794,0.4688,0.4688,0.4574,0.4463,0.4463,0.4463,0.4463,0.4519,0.4301,0.4249,0.4463,0.4301,0.4193,0.4193,0.4079,0.4024,0.4024,0.4024,0.4024,0.4024,0.4024,0.4024,0.4024,0.4024,0.4024,0.4024,0.4024,0.4024,0.4024,0.4024,0.4024,0.4024,0.4024,0.4024,0.4024,0.3965,0.3965,-1.4289,-1.4181,-1.4062,-1.3581,-1.3333,0.0,0.0,0.0,0.0,0.0,0.0,0.0,0.0,0.0,0.0,0.0,0.0,0.0,0.0,0.0,0.0,0.0,0.0,0.0,0.0,0.0,0.4249,0.4301,0.4411,0.4519,0.4519,0.4182,0.4019,0.4019,0.3734,0.3581,0.3581,0.3581,0.3357,0.2909,0.246,0.2014,0.1569,0.1122,0.1121,0.1478,0.1746,0.2014,0.2324,0.2637,0.275,0.2847,0.3096,0.3183,0.3268,0.3767,0.3982,0.4085,0.4338,0.4423,0.4519,0.4519,0.4519,0.4519,0.4632,0.4688,0.4743,0.4794,0.4846,0.4897,0.4897,0.4897,0.4897,0.4897,0.4794,0.4691,0.4691,0.4577,0.4519,0.4519,0.4519,0.4519,0.4519,0.4463,0.4411,0.4519,0.4522,0.4522,0.4522,0.4574,0.457,0.457,0.457,0.457,0.457,0.457,0.457,0.457,0.457,0.457,0.457,0.457,0.457,0.457,0.457,0.457,0.457,0.457,0.457,0.457,0.457,0.4408,-1.2845,-1.2847,-1.2812,-1.2519,-1.2574,-1.2615,-1.2299,0.0,-1.0785,0.0,0.0,0.0,0.0,0.0,0.0,0.0,0.0,0.0,0.0,0.1398,0.0,0.0,0.0,0.0,0.0,0.0,0.4138,0.4193,0.4411,0.4519,0.4519,0.4233,0.405,0.3996,0.3718,0.3569,0.352,0.3468,0.322,0.2732,0.2324,0.1834,0.1389,0.1032,0.1032,0.1299,0.1523,0.1746,0.2014,0.2239,0.2416,0.249,0.2763,0.2861,0.298,0.3447,0.3816,0.4066,0.4375,0.457,0.4625,0.4625,0.4625,0.468,0.4739,0.4794,0.4853,0.4956,0.5011,0.5069,0.5069,0.5069,0.5069,0.5069,0.4959,0.4853,0.4853,0.4739,0.4625,0.4625,0.4625,0.4625,0.4625,0.4625,0.4625,0.4574,0.4632,0.4743,0.4743,0.4846,0.4897,0.4897,0.4897,0.4897,0.4897,0.4897,0.4897,0.4897,0.4897,0.4897,0.4897,0.4897,0.4897,0.4897,0.4897,0.4897,0.4897,0.4897,0.4901,0.4956,0.4956,0.4791]},{"header":{"parameterUnit":"m.s-1","parameterCategory":1,"la1":30.6,"la2":29.2853,"lo1":-89.7004,"lo2":-87.6739,"dy":0.0162,"dx":0.0183,"nx":112,"ny":82,"refTime":"2026-03-23T00:00:00:Z","depth":0,"parameterNumber":3,"parameterNumberName":"V-component_of_WINDS"},"data":[0.0,0.0,0.0,0.0,0.0,0.0,0.0,0.0,0.0,0.0,0.0,0.0,0.0,0.0,0.0,0.0,0.0,0.0,0.0,0.0,0.0,0.0,0.0,0.0,0.0,0.0,0.0,0.0,0.0,0.0,0.0,0.0,0.0,0.0,0.0,0.0,0.0,0.0,0.0,0.0,0.0,0.0,0.0,0.0,0.0,0.0,0.0,0.0,0.0,0.0,0.0,0.0,0.0,0.0,0.0,0.0,0.0,0.0,0.0,0.0,0.0,0.0,0.0,0.0,0.0,0.0,0.0,0.0,0.0,0.0,0.0,0.0,0.0,0.0,0.0,0.0,0.0,0.0,0.0,0.0,0.0,0.0,0.0,0.0,0.0,0.0,0.0,0.0,0.0,0.0,0.0,-1.311,-1.3302,-1.3963,-1.5159,-1.6272,-1.7385,-1.8395,0.0,0.0,0.0,0.0,0.0,0.0,0.0,0.0,0.0,0.0,0.0,0.0,0.0,0.0,0.0,0.0,0.0,0.0,0.0,0.0,0.0,0.0,0.0,0.0,0.0,0.0,0.0,0.0,0.0,0.0,0.0,0.0,0.0,0.0,0.0,0.0,0.0,0.0,0.0,0.0,0.0,0.0,0.0,0.0,0.0,0.0,0.0,0.0,0.0,0.0,0.0,0.0,0.0,0.0,0.0,0.0,0.0,0.0,0.0,0.0,0.0,0.0,0.0,0.0,0.0,0.0,0.0,0.0,0.0,0.0,0.0,0.0,0.0,0.0,0.0,0.0,0.0,0.0,0.0,0.0,0.0,0.0,0.0,0.0,0.0,0.0,0.0,0.0,0.0,0.0,0.0,0.0,0.0,0.0,0.0,0.0,0.0,0.0,0.0,0.0,0.0,0.0,0.0,0.0,-1.3525,-1.3427,-1.3438,-1.3909,-1.5061,-1.6571,-1.7729,-1.8222,0.0,0.0,0.0,0.0,0.0,0.0,0.0,0.0,0.0,0.0,0.0,0.0,0.0,0.0,0.0,0.0,0.0,0.0,0.0,0.0,0.0,0.0,0.0,0.0,0.0,0.0,0.0,0.0,0.0,0.0,0.0,0.0,0.0,0.0,0.0,0.0,0.0,0.0,0.0,0.0,0.0,0.0,0.0,0.0,0.0,0.0,0.0,0.0,0.0,0.0,0.0,0.0,0.0,0.0,0.0,0.0,0.0,0.0,0.0,0.0,0.0,0.0,0.0,0.0,0.0,0.0,0.0,0.0,0.0,0.0,0.0,0.0,0.0,0.0,0.0,0.0,0.0,0.0,0.0,0.0,0.0,0.0,0.0,0.0,0.0,0.0,0.0,0.0,0.0,0.0,0.0,0.0,0.0,0.0,0.0,0.0,0.0,0.0,0.0,0.0,0.0,0.0,0.0,-1.315,-1.295,-1.315,-1.3258,-1.3837,-1.5027,-1.6138,-1.7232,-1.8364,-1.967,0.0,0.0,0.0,0.0,0.0,0.0,0.0,0.0,0.0,0.0,0.0,0.0,0.0,0.0,0.0,0.0,0.0,0.0,0.0,0.0,0.0,0.0,0.0,0.0,0.0,0.0,0.0,0.0,0.0,0.0,0.0,0.0,0.0,0.0,0.0,0.0,0.0,0.0,0.0,0.0,0.0,0.0,0.0,0.0,0.0,0.0,0.0,0.0,0.0,0.0,0.0,0.0,0.0,0.0,0.0,0.0,0.0,0.0,0.0,0.0,0.0,0.0,0.0,0.0,0.0,0.0,0.0,0.0,0.0,0.0,0.0,0.0,0.0,0.0,0.0,0.0,0.0,0.0,0.0,0.0,0.0,0.0,0.0,0.0,0.0,0.0,0.0,0.0,0.0,0.0,0.0,0.0,0.0,0.0,0.0,0.0,0.0,0.0,0.0,0.0,0.0,0.0,-1.2636,-1.249,-1.2799,-1.2973,-1.3593,-1.4798,-1.5588,-1.668,-1.8207,-1.9516,0.0,0.0,0.0,0.0,0.0,0.0,0.0,0.0,0.0,0.0,0.0,0.0,0.0,0.0,0.0,0.0,0.0,0.0,0.0,0.0,0.0,0.0,0.0,0.0,0.0,0.0,0.0,0.0,0.0,0.0,0.0,0.0,0.0,0.0,0.0,0.0,0.0,0.0,0.0,0.0,0.0,0.0,0.0,0.0,0.0,0.0,0.0,0.0,0.0,0.0,0.0,0.0,0.0,0.0,0.0,0.0,0.0,0.0,0.0,0.0,0.0,0.0,0.0,0.0,0.0,0.0,0.0,0.0,0.0,0.0,0.0,0.0,0.0,0.0,0.0,0.0,0.0,0.0,0.0,0.0,0.0,0.0,0.0,0.0,0.0,0.0,0.0,0.0,0.0,0.0,0.0,0.0,0.0,0.0,0.0,0.0,0.0,0.0,0.0,0.0,0.0,0.0,-1.2394,-1.2352,-1.2599,-1.2599,-1.3064,-1.4103,-1.5273,-1.6343,-1.7343,-1.9349,0.0,0.0,0.0,0.0,0.0,0.0,0.0,0.0,0.0,0.0,0.0,0.0,0.0,0.0,0.0,0.0,0.0,0.0,0.0,0.0,0.0,0.0,0.0,0.0,0.0,0.0,0.0,0.0,0.0,0.0,0.0,0.0,0.0,0.0,0.0,0.0,0.0,0.0,0.0,0.0,0.0,0.0,0.0,0.0,0.0,0.0,0.0,0.0,0.0,0.0,0.0,0.0,0.0,0.0,0.0,0.0,0.0,0.0,0.0,0.0,0.0,0.0,0.0,0.0,0.0,0.0,0.0,0.0,0.0,0.0,0.0,0.0,0.0,0.0,0.0,0.0,0.0,0.0,0.0,0.0,0.0,0.0,0.0,0.0,0.0,0.0,0.0,0.0,0.0,0.0,0.0,0.0,0.0,0.0,0.0,0.0,0.0,0.0,0.0,0.0,0.0,0.0,-1.2158,-1.2157,0.0,-1.2673,-1.3201,-1.414,-1.5074,-1.616,-1.7525,0.0,0.0,0.0,0.0,0.0,0.0,0.0,0.0,0.0,0.0,0.0,0.0,0.0,0.0,0.0,0.0,0.0,0.0,0.0,0.0,0.0,0.0,0.0,0.0,0.0,0.0,0.0,0.0,0.0,0.0,0.0,0.0,0.0,0.0,0.0,0.0,0.0,0.0,0.0,0.0,0.0,0.0,0.0,0.0,0.0,0.0,0.0,0.0,0.0,0.0,0.0,0.0,0.0,0.0,0.0,0.0,0.0,0.0,0.0,0.0,0.0,0.0,0.0,0.0,0.0,0.0,0.0,0.0,0.0,0.0,0.0,0.0,0.0,0.0,0.0,0.0,0.0,0.0,0.0,0.0,0.0,0.0,0.0,0.0,0.0,0.0,0.0,0.0,0.0,0.0,0.0,0.0,0.0,0.0,0.0,0.0,0.0,0.0,0.0,0.0,0.0,0.0,-1.1784,-1.1781,-1.1855,0.0,-1.2673,-1.323,-1.411,-1.495,-1.6004,-1.7474,0.0,0.0,0.0,0.0,0.0,0.0,0.0,0.0,0.0,0.0,0.0,0.0,0.0,0.0,0.0,0.0,0.0,0.0,0.0,0.0,0.0,0.0,0.0,0.0,0.0,0.0,0.0,0.0,0.0,0.0,0.0,0.0,0.0,0.0,0.0,0.0,0.0,0.0,0.0,0.0,0.0,0.0,0.0,0.0,0.0,0.0,0.0,0.0,0.0,0.0,0.0,0.0,0.0,0.0,0.0,0.0,0.0,0.0,0.0,0.0,0.0,0.0,0.0,0.0,0.0,0.0,0.0,0.0,0.0,0.0,0.0,0.0,0.0,0.0,0.0,0.0,0.0,0.0,0.0,0.0,0.0,0.0,0.0,0.0,0.0,0.0,0.0,0.0,0.0,0.0,0.0,0.0,0.0,0.0,0.0,0.0,0.0,0.0,0.0,0.0,0.0,0.0,-1.1255,-1.1174,-1.1397,-1.2218,-1.2666,-1.3199,-1.3957,-1.485,-1.588,0.0,0.0,0.0,0.0,0.0,0.0,0.0,0.0,0.0,0.0,0.0,0.0,0.0,0.0,0.0,0.0,0.0,0.0,0.0,0.0,0.0,0.0,0.0,0.0,0.0,0.0,0.0,0.0,0.0,0.0,0.0,0.0,0.0,0.0,0.0,0.0,0.0,0.0,0.0,0.0,0.0,0.0,0.0,0.0,0.0,0.0,0.0,0.0,0.0,0.0,0.0,0.0,0.0,0.0,0.0,0.0,0.0,0.0,0.0,0.0,0.0,0.0,0.0,0.0,0.0,0.0,0.0,0.0,0.0,0.0,0.0,0.0,0.0,0.0,0.0,0.0,0.0,0.0,0.0,0.0,0.0,0.0,0.0,0.0,0.0,0.0,0.0,0.0,0.0,0.0,0.0,0.0,0.0,0.0,0.0,0.0,0.0,0.0,0.0,0.0,0.0,0.0,0.0,-1.0449,-1.0556,-1.0833,-1.148,-1.2033,-1.2757,-1.3687,-1.4755,-1.5908,-1.7213,0.0,0.0,0.0,0.0,0.0,0.0,0.0,0.0,0.0,0.0,0.0,0.0,0.0,0.0,0.0,0.0,0.0,0.0,0.0,0.0,0.0,0.0,0.0,0.0,0.0,0.0,0.0,0.0,0.0,0.0,0.0,0.0,0.0,0.0,0.0,0.0,0.0,0.0,0.0,0.0,0.0,0.0,0.0,0.0,0.0,0.0,0.0,0.0,0.0,0.0,0.0,0.0,0.0,0.0,0.0,0.0,0.0,0.0,0.0,0.0,0.0,0.0,0.0,0.0,0.0,0.0,0.0,0.0,0.0,0.0,0.0,0.0,0.0,0.0,0.0,0.0,0.0,0.0,0.0,0.0,0.0,0.0,0.0,0.0,0.0,0.0,0.0,0.0,0.0,0.0,0.0,0.0,0.0,0.0,0.0,0.0,0.0,0.0,0.0,0.0,0.0,0.0,-0.9956,-0.9974,-1.0315,-1.1018,-1.1771,-1.2639,-1.3722,-1.4878,-1.6059,-1.7424,0.0,0.0,0.0,0.0,0.0,0.0,0.0,0.0,0.0,0.0,0.0,0.0,0.0,0.0,0.0,0.0,0.0,0.0,0.0,0.0,0.0,0.0,0.0,0.0,0.0,0.0,0.0,0.0,0.0,0.0,0.0,0.0,0.0,0.0,0.0,0.0,0.0,0.0,0.0,0.0,0.0,0.0,0.0,0.0,0.0,0.0,0.0,0.0,0.0,0.0,0.0,0.0,0.0,0.0,0.0,0.0,0.0,0.0,0.0,0.0,0.0,0.0,0.0,0.0,0.0,0.0,0.0,0.0,0.0,0.0,0.0,0.0,0.0,0.0,0.0,0.0,0.0,0.0,0.0,0.0,0.0,0.0,0.0,0.0,0.0,0.0,0.0,0.0,0.0,0.0,0.0,0.0,0.0,0.0,0.0,0.0,0.0,0.0,0.0,0.0,0.0,0.0,-0.9616,-0.9483,-0.9742,-1.0697,-1.1573,-1.2636,-1.376,-1.4958,-1.6191,-1.7412,0.0,0.0,0.0,0.0,0.0,0.0,0.0,0.0,0.0,0.0,0.0,0.0,0.0,0.0,0.0,0.0,0.0,0.0,0.0,0.0,0.0,0.0,0.0,0.0,0.0,0.0,0.0,0.0,0.0,0.0,0.0,0.0,0.0,0.0,0.0,0.0,0.0,0.0,0.0,0.0,0.0,0.0,0.0,0.0,0.0,0.0,0.0,0.0,0.0,0.0,0.0,0.0,0.0,0.0,0.0,0.0,0.0,0.0,0.0,0.0,-0.9097,-0.9685,0.0,0.0,0.0,0.0,0.0,0.0,0.0,0.0,0.0,0.0,0.0,0.0,0.0,0.0,0.0,0.0,0.0,0.0,0.0,0.0,0.0,0.0,0.0,0.0,0.0,0.0,0.0,0.0,0.0,0.0,0.0,0.0,0.0,0.0,0.0,0.0,0.0,0.0,0.0,0.0,-0.9105,-0.91,-0.9338,-0.9976,-1.1008,-1.2022,-1.2954,-1.4088,-1.5287,-1.6553,-1.8287,0.0,0.0,0.0,0.0,0.0,0.0,0.0,0.0,0.0,0.0,0.0,0.0,0.0,0.0,0.0,0.0,0.0,0.0,0.0,0.0,0.0,0.0,0.0,0.0,0.0,0.0,0.0,0.0,0.0,0.0,0.0,0.0,0.0,0.0,0.0,0.0,0.0,0.0,0.0,0.0,0.0,0.0,0.0,0.0,0.0,0.0,0.0,0.0,0.0,0.0,0.0,0.0,0.0,0.0,0.0,0.0,0.0,0.0,0.0,-0.8063,-0.8608,0.0,0.0,0.0,0.0,0.0,0.0,0.0,0.0,0.0,0.0,0.0,0.0,0.0,0.0,0.0,0.0,0.0,0.0,0.0,0.0,0.0,0.0,0.0,0.0,0.0,0.0,0.0,0.0,0.0,0.0,0.0,0.0,0.0,0.0,0.0,0.0,0.0,0.0,0.0,0.0,-0.8952,-0.9,-0.9214,-0.9829,-1.0996,-1.2035,-1.2903,-1.3956,-1.5101,-1.6389,-1.7987,0.0,0.0,0.0,0.0,0.0,0.0,0.0,0.0,0.0,0.0,0.0,0.0,0.0,0.0,0.0,0.0,0.0,0.0,0.0,0.0,0.0,0.0,0.0,0.0,0.0,0.0,0.0,0.0,0.0,0.0,0.0,0.0,0.0,0.0,0.0,0.0,0.0,0.0,0.0,0.0,0.0,0.0,0.0,0.0,0.0,0.0,0.0,0.0,0.0,0.0,0.0,0.0,0.0,-0.7604,-0.7681,-0.7613,-0.7649,-0.7509,-0.7189,-0.7373,-0.7846,-0.8668,-0.9485,0.0,0.0,0.0,0.0,0.0,0.0,0.0,0.0,0.0,0.0,0.0,0.0,0.0,0.0,0.0,0.0,0.0,0.0,0.0,0.0,0.0,0.0,-1.0349,-0.9315,-0.8757,-0.8488,-0.8782,0.0,0.0,0.0,0.0,0.0,0.0,0.0,0.0,0.0,0.0,0.0,-0.8758,-0.8811,-0.9146,-0.98,-1.1004,-1.2125,-1.2959,-1.4004,-1.5084,-1.6128,-1.7654,-1.8343,0.0,0.0,0.0,0.0,0.0,0.0,0.0,0.0,0.0,0.0,0.0,0.0,0.0,0.0,0.0,0.0,0.0,0.0,0.0,0.0,0.0,0.0,0.0,0.0,0.0,0.0,0.0,0.0,0.0,0.0,0.0,0.0,-0.562,-0.5554,0.0,0.0,0.0,0.0,0.0,0.0,0.0,0.0,0.0,0.0,0.0,0.0,0.0,-0.5997,-0.6083,-0.63,-0.6374,-0.6312,-0.6781,-0.6855,-0.6622,-0.6776,-0.6695,-0.6356,-0.6331,0.0,-0.8125,-0.9055,0.0,0.0,0.0,0.0,0.0,0.0,0.0,0.0,0.0,0.0,0.0,0.0,0.0,0.0,0.0,0.0,0.0,0.0,0.0,0.0,0.0,0.0,-0.9515,-0.8939,-0.8067,-0.7345,-0.7077,-0.7285,-0.7586,-0.7827,-0.8181,-0.8533,0.0,0.0,0.0,0.0,0.0,0.0,-0.7947,-0.8175,-0.8604,-0.9309,-1.0606,-1.1657,-1.2291,-1.3223,-1.4137,-1.505,-1.6159,-1.6918,-1.7151,-1.7773,0.0,0.0,0.0,0.0,0.0,0.0,0.0,0.0,0.0,0.0,0.0,0.0,0.0,0.0,0.0,0.0,0.0,0.0,0.0,0.0,0.0,0.0,0.0,0.0,0.0,0.0,0.0,0.0,0.0,-0.4353,-0.3863,-0.3925,-0.4001,-0.409,0.0,0.0,0.0,0.0,0.0,0.0,0.0,0.0,0.0,-0.4342,-0.429,-0.4388,-0.4643,-0.5059,-0.5342,-0.5545,-0.605,-0.6231,-0.6095,-0.6161,-0.6088,-0.596,-0.6054,-0.6539,-0.7433,-0.8344,-0.917,-1.007,0.0,0.0,0.0,0.0,-1.1973,-1.1973,-1.1973,-1.1973,-1.1973,-1.1973,0.0,0.0,0.0,0.0,0.0,0.0,0.0,-1.0567,-0.9845,-0.9254,-0.8641,-0.7795,-0.7205,-0.662,-0.6196,-0.6151,-0.6391,-0.6849,-0.725,-0.7607,-0.7892,-0.8316,0.0,0.0,0.0,-0.7315,-0.7671,-0.7898,-0.8375,-0.919,-1.057,-1.1653,-1.2135,-1.3064,-1.3931,-1.464,-1.5567,-1.6269,-1.6612,-1.7186,-1.7516,0.0,0.0,0.0,0.0,0.0,0.0,0.0,0.0,0.0,0.0,0.0,0.0,0.0,0.0,0.0,0.0,0.0,0.0,0.0,0.0,0.0,0.0,0.0,0.0,0.0,0.0,0.0,0.0,-0.2623,-0.2304,-0.2439,-0.25,-0.2603,0.0,0.0,0.0,0.0,0.0,0.0,-0.2889,-0.2891,-0.2954,-0.2954,-0.2993,-0.3164,-0.3471,-0.4023,-0.4461,-0.4837,-0.539,-0.5583,-0.5547,-0.5547,-0.5547,-0.5557,-0.5706,-0.6118,-0.674,-0.7776,-0.8643,-0.9427,-1.0469,-1.0876,-1.0926,-1.1185,-1.1247,-1.1247,-1.131,-1.131,-1.131,-1.131,-1.131,-1.131,-1.131,0.0,0.0,0.0,0.0,-0.943,-0.8729,-0.8251,-0.7725,-0.6917,-0.6468,-0.6072,-0.5605,-0.5407,-0.5485,-0.6097,-0.6443,-0.6735,-0.707,-0.7428,0.0,0.0,0.0,-0.6793,-0.7259,-0.7649,-0.8256,-0.9173,-1.0539,-1.1645,-1.2234,-1.3084,-1.3847,-1.4512,-1.5266,-1.5888,-1.6194,-1.6723,-1.706,-1.7201,0.0,0.0,0.0,0.0,0.0,0.0,0.0,0.0,0.0,0.0,0.0,0.0,0.0,0.0,0.0,0.0,0.0,0.0,0.0,0.0,0.0,0.0,0.0,0.0,0.0,0.0,0.0,0.0,0.0,-0.1179,-0.1412,0.0,0.0,0.0,0.0,-0.2166,-0.2032,-0.2086,-0.239,-0.2458,-0.2519,-0.2644,-0.2518,-0.2614,-0.2959,-0.3547,-0.3929,-0.4038,-0.4766,-0.5036,-0.4849,-0.4849,-0.4849,-0.4858,-0.5195,-0.5586,-0.6081,-0.7682,-0.8533,-0.8902,-0.9844,-1.0093,-0.9926,-1.0238,-1.0364,-1.0371,-1.0561,-1.0624,-1.0624,-1.0624,-1.0624,-1.0624,-1.0434,-0.9977,0.0,0.0,-0.8678,-0.8193,-0.7849,-0.7374,-0.6899,-0.6515,-0.601,-0.5563,-0.5337,-0.5301,-0.5356,-0.5593,-0.5868,-0.6082,-0.6242,0.0,-0.6569,-0.6296,-0.6137,-0.6142,-0.6415,-0.7106,-0.7949,-0.9099,-1.0395,-1.1578,-1.2421,-1.319,-1.3905,-1.4534,-1.5153,-1.568,-1.5988,-1.6349,-1.665,-1.6918,-1.7141,0.0,0.0,0.0,0.0,0.0,0.0,0.0,0.0,0.0,0.0,0.0,0.0,0.0,0.0,0.0,0.0,0.0,0.0,0.0,0.0,0.0,0.0,0.0,0.0,0.0,0.0,0.0,0.0,0.0453,0.028,0.0,0.0,-0.012,-0.0177,-0.0168,-0.0112,-0.0227,-0.0579,-0.087,-0.1044,-0.1159,-0.1347,-0.1607,-0.2009,-0.248,-0.2829,-0.3111,-0.3656,-0.3818,-0.3783,-0.3789,-0.3887,-0.4167,-0.4626,-0.5086,-0.5645,-0.6733,-0.7546,-0.8169,-0.8963,-0.9297,-0.9344,-0.9536,-0.9792,-0.9989,-1.018,-1.0301,-1.0428,-1.0428,-1.0428,-1.0268,-0.965,-0.9208,-0.886,-0.8091,-0.7677,-0.7327,-0.6879,-0.6548,-0.6253,-0.5956,-0.5665,-0.5374,-0.5313,-0.5297,-0.5297,-0.5407,-0.5462,-0.5567,-0.5622,-0.5673,-0.5732,-0.5622,-0.5567,-0.5732,-0.6213,-0.6907,-0.7812,-0.8974,-1.0261,-1.1384,-1.2255,-1.3084,-1.3858,-1.443,-1.4971,-1.5379,-1.5691,-1.5913,-1.6132,-1.6306,-1.6595,-1.6808,0.0,0.0,0.0,0.0,0.0,0.0,0.0,0.0,0.0,0.0,0.0,0.0,0.0,0.0,0.0,0.0,0.0,0.0,0.0,0.0,0.0,0.0,0.0,0.0,0.0,0.0,0.197,0.1698,0.1513,0.1346,0.1234,0.1177,0.1119,0.106,0.1119,0.1009,0.0617,0.0283,0.0,-0.0168,-0.0464,-0.0766,-0.1179,-0.1562,-0.195,-0.2339,-0.2724,-0.2953,-0.3021,-0.3045,-0.322,-0.356,-0.4034,-0.4569,-0.5096,-0.5929,-0.6584,-0.7204,-0.7982,-0.8371,-0.8495,-0.8683,-0.8947,-0.9344,-0.9786,-1.011,-1.0371,-1.0301,-1.0174,-0.9863,-0.9154,-0.8572,-0.8032,-0.7223,-0.6753,-0.6412,-0.5991,-0.5837,-0.5732,-0.5567,-0.5407,-0.5297,-0.5297,-0.5297,-0.5297,-0.5297,-0.5297,-0.5297,-0.5297,-0.5297,-0.5297,-0.5297,-0.5297,-0.5513,-0.61,-0.6907,-0.7812,-0.8922,-1.0261,-1.1434,-1.2236,-1.3218,-1.3941,-1.4466,-1.4971,-1.5334,-1.5603,-1.578,-1.5957,-1.6132,-1.6436,-1.665,-1.6778,0.0,0.0,0.0,0.0,0.0,0.0,0.0,0.0,0.0,0.0,0.0,0.0,0.0,0.0,0.0,0.0,0.0,0.0,0.0,0.0,0.0,0.0,0.0,0.1962,0.2294,0.2567,0.2399,0.2179,0.2017,0.1853,0.1849,0.1732,0.1393,0.1675,0.1568,0.1011,0.0811,0.0581,0.0281,0.0116,-0.0118,-0.0412,-0.0822,-0.1251,-0.1721,-0.2152,-0.2376,-0.2508,-0.2584,-0.2753,-0.2956,-0.3491,-0.3956,-0.4353,-0.5216,-0.5686,-0.5954,-0.6994,-0.7386,-0.7386,-0.7577,-0.7902,-0.8361,-0.939,-1.0098,-1.0561,-1.0295,-0.9901,-0.9388,-0.8804,-0.7984,-0.7031,-0.6513,-0.6001,-0.5563,-0.5341,-0.5297,-0.5297,-0.5297,-0.5297,-0.5297,-0.5297,-0.5293,-0.5289,-0.5289,-0.5285,-0.5285,-0.5297,-0.5297,-0.5297,-0.5297,-0.5297,0.0,-0.61,-0.6956,-0.7913,-0.9072,-1.0372,-1.1592,-1.2521,-1.3484,-1.4212,-1.4697,-1.5198,-1.5603,-1.5792,-1.5957,-1.612,-1.6436,-1.6633,-1.6761,-1.6918,0.0,0.0,0.0,0.0,0.0,0.0,0.0,0.0,0.0,0.0,0.0,0.0,0.0,0.0,0.0,0.0,0.0,0.0,0.0,0.0,0.0,0.2934,0.3175,0.2778,0.3323,0.3691,0.3566,0.3408,0.3251,0.3144,0.2863,0.2687,0.2625,0.2683,0.2655,0.2373,0.1989,0.1716,0.1558,0.1243,0.0999,0.0823,0.0516,0.0171,-0.023,-0.0669,-0.0936,-0.1063,-0.138,-0.168,-0.2017,-0.2417,-0.2952,-0.3558,-0.4353,-0.4824,-0.5226,-0.628,-0.6741,-0.6868,-0.6933,-0.7517,-0.8301,-0.8888,-0.9472,-0.9894,-0.9301,-0.9042,-0.8713,-0.7629,-0.6983,-0.6522,-0.5987,-0.5588,-0.5357,-0.5313,-0.5242,-0.5128,-0.5128,-0.5069,-0.5011,-0.5011,-0.4923,-0.4839,-0.4839,-0.4792,-0.4836,-0.5253,-0.5297,-0.5297,-0.5297,-0.5297,0.0,-0.61,-0.6853,-0.7812,-0.8922,-1.0254,-1.1466,-1.2511,-1.3579,-1.4444,-1.4971,-1.5424,-1.578,-1.5957,-1.6207,-1.6565,-1.6989,-1.7031,-1.7073,0.0,0.0,0.0,0.0,0.0,0.0,0.0,0.0,0.0,0.0,0.0,0.0,0.0,0.0,0.0,0.0,0.0,0.0,0.0,0.0,0.0,0.0,0.3758,0.4116,0.3936,0.4271,0.446,0.4385,0.4233,0.4024,0.3869,0.3585,0.3357,0.3297,0.3352,0.3268,0.2989,0.2716,0.2509,0.2248,0.2028,0.1774,0.1497,0.1354,0.1063,0.0617,0.03,0.0,-0.0309,-0.059,-0.1003,-0.1388,-0.1716,-0.2229,-0.2855,-0.3623,-0.414,-0.4476,0.0,0.0,0.0,0.0,-0.6863,-0.7642,-0.8112,-0.863,-0.9041,-0.859,-0.8253,-0.7921,-0.6939,-0.6354,-0.5971,-0.5567,-0.5407,-0.5297,-0.5242,-0.5073,-0.4908,-0.4849,-0.468,-0.4498,-0.4487,-0.4407,-0.4327,-0.4316,-0.4228,0.0,-0.4561,-0.4866,-0.5105,-0.5175,-0.5242,-0.5458,-0.61,-0.6853,-0.7711,-0.8869,-1.0202,-1.1408,-1.2414,-1.3616,0.0,0.0,0.0,-1.5563,-1.5624,-1.5929,0.0,0.0,0.0,0.0,0.0,0.0,0.0,0.0,-1.5856,-1.5175,0.0,0.0,0.0,0.0,0.0,0.0,0.0,0.0,0.0,0.0,0.0,0.0,0.0,0.0,0.0,0.0,0.4703,0.5214,0.5273,0.516,0.5042,0.4976,0.4736,0.4525,0.4353,0.4073,0.3849,0.3735,0.3849,0.3747,0.3322,0.0,0.0,0.0,0.0,0.2443,0.197,0.1962,0.168,0.1123,0.0958,0.0617,0.0186,-0.0066,-0.0398,-0.084,-0.1289,-0.1711,-0.2219,-0.3011,-0.3503,-0.3832,-0.4884,-0.5311,-0.5311,-0.5639,-0.6086,-0.6595,-0.7126,0.0,0.0,-0.7819,-0.7434,-0.6932,-0.6374,-0.5865,-0.5437,-0.5286,-0.5187,-0.5187,-0.5014,-0.4798,-0.4577,-0.4463,-0.4174,-0.3911,-0.3847,-0.3847,-0.3788,-0.3664,-0.3627,-0.3624,-0.3636,-0.4182,-0.4714,-0.4965,-0.5003,-0.5344,-0.6046,-0.6804,-0.7711,-0.8869,-1.0151,0.0,-1.2316,-1.3532,-1.4281,-1.4298,-1.4845,-1.5166,-1.5184,-1.5447,-1.5647,-1.5821,-1.6329,-1.6622,-1.6728,-1.7008,-1.7037,-1.6765,-1.5901,-1.5096,0.0,0.0,0.0,0.0,0.0,0.0,0.0,0.0,0.0,0.0,0.0,0.0,0.0,0.0,0.0,0.5265,0.571,0.6041,0.6258,0.6312,0.6091,0.5538,0.5284,0.5122,0.5089,0.4718,0.4494,0.4663,0.4663,0.4633,0.4578,0.4309,0.4142,0.403,0.3732,0.3414,0.3145,0.2947,0.2685,0.2355,0.1971,0.0,0.1359,0.0983,0.0596,0.0193,-0.0258,-0.0823,-0.1417,-0.2093,-0.2709,-0.3326,-0.4294,-0.4686,-0.4686,-0.4875,-0.5185,-0.5613,-0.592,-0.6463,-0.6913,-0.647,-0.629,-0.6075,-0.5398,-0.4949,0.0,-0.4691,-0.4629,-0.4629,-0.4401,-0.4239,-0.4076,-0.3962,-0.3721,-0.3537,-0.3512,-0.3346,-0.3243,-0.3217,-0.3138,-0.3101,-0.3197,-0.3708,-0.4092,-0.4284,-0.4555,-0.5069,-0.5773,-0.6593,-0.7557,-0.8718,-0.9953,-1.1116,-1.2169,-1.3484,-1.4246,-1.4298,-1.4825,-1.5312,-1.5808,-1.5978,-1.6208,-1.65,-1.6611,-1.6917,-1.7404,-1.712,-1.701,-1.7073,-1.6064,-1.513,0.0,0.0,0.0,0.0,0.0,0.0,0.0,0.0,0.0,0.0,0.0,0.3159,0.4142,0.0,0.5914,0.6475,0.6956,0.7233,0.7222,0.6989,0.6742,0.6396,0.5987,0.5817,0.5959,0.5515,0.528,0.5433,0.5382,0.527,0.5114,0.4826,0.4591,0.4473,0.4151,0.3862,0.3667,0.3495,0.3299,0.3026,0.2763,0.2464,0.2167,0.1828,0.1456,0.1046,0.0554,0.0,-0.0588,-0.1411,-0.1997,-0.2525,-0.2993,-0.3409,-0.3811,-0.3872,-0.4055,-0.4238,-0.4601,-0.5083,-0.5475,-0.5253,-0.5201,-0.5056,-0.4501,-0.4067,-0.3788,-0.3788,-0.3788,-0.379,-0.3683,-0.3572,-0.345,-0.3341,-0.3123,-0.2949,-0.2893,-0.2784,-0.2691,-0.2641,-0.259,-0.2573,-0.2624,-0.2906,-0.3288,-0.3808,-0.4195,-0.4662,-0.5379,-0.6206,-0.7183,-0.8237,-0.9411,-1.0477,-1.1425,-1.2679,-1.3667,-1.4106,-1.4374,-1.4717,-1.5182,-1.5353,-1.5555,-1.575,-1.6045,-1.6508,-1.714,-1.6975,-1.6983,-1.7199,-1.6151,-1.5209,0.0,0.0,0.0,0.0,0.0,0.0,0.0,0.0,0.2276,0.2783,0.3462,0.423,0.5201,0.6396,0.732,0.7652,0.8187,0.8436,0.8169,0.7681,0.7395,0.7483,0.6808,0.6375,0.6649,0.6262,0.6022,0.6134,0.6021,0.5788,0.55,0.5193,0.4922,0.4684,0.4448,0.4222,0.4018,0.4018,0.3907,0.3691,0.3585,0.3401,0.311,0.2845,0.2476,0.1995,0.1341,0.0745,0.0112,-0.0615,-0.1119,-0.1399,-0.1399,-0.1791,-0.2477,-0.272,-0.2841,-0.2901,-0.3322,-0.374,-0.4082,-0.4155,-0.4119,-0.3983,-0.3602,-0.3181,-0.2843,-0.2843,-0.2843,-0.2839,-0.2826,-0.2711,-0.2634,-0.255,-0.2463,-0.236,-0.2217,-0.2127,-0.2096,-0.2031,-0.202,-0.1975,-0.1975,-0.2025,-0.2379,-0.3357,-0.3801,-0.4264,-0.5046,-0.5878,-0.6798,-0.7801,-0.8874,-0.9976,-1.0997,-1.2075,-1.3068,-1.4011,-1.3973,-1.4105,-1.4461,-1.4651,-1.4746,-1.4808,-1.5286,-1.5918,-1.6691,-1.6701,-1.6876,-1.7199,-1.6238,-1.5254,-0.5914,-0.3412,-0.1163,0.0106,0.1334,0.2297,0.0,0.0,0.3943,0.4551,0.5039,0.5713,0.6839,0.757,0.8258,0.9013,0.9206,0.9267,0.9237,0.875,0.8583,0.8898,0.757,0.6707,0.6958,0.6754,0.662,0.6726,0.6598,0.6393,0.6109,0.5753,0.5419,0.5226,0.4978,0.4812,0.4787,0.4787,0.4791,0.4736,0.4841,0.4796,0.4564,0.4468,0.4099,0.3397,0.2221,0.1346,0.0783,0.056,0.0336,0.0168,0.0168,0.0113,-0.017,-0.147,-0.1924,-0.198,-0.2264,-0.277,-0.322,-0.2979,-0.3033,-0.3144,-0.2577,-0.2181,-0.1956,-0.1956,-0.1956,-0.1943,-0.1776,-0.1815,-0.1801,-0.169,-0.1682,-0.1685,-0.167,-0.1573,-0.1486,-0.1435,-0.1299,-0.1208,-0.1208,-0.1213,-0.1599,-0.2664,-0.3294,-0.3959,-0.4755,-0.5731,-0.6798,-0.7801,-0.8835,-1.0185,-1.2064,-1.2451,-1.3106,-1.4277,-1.4117,-1.4241,-1.4732,-1.4777,-1.4808,-1.4808,-1.4878,-1.5497,-1.6691,-1.6291,-1.6476,-1.7199,-1.6238,-1.5254,-0.1648,-0.0271,0.0,0.0,0.3305,0.3996,0.4367,0.4787,0.5246,0.6016,0.6394,0.6962,0.8195,0.9083,0.9775,0.0,1.0475,1.0466,1.0238,0.9564,0.9296,0.9714,0.9334,0.8897,0.8557,0.8133,0.7889,0.7892,0.7517,0.7162,0.7021,0.6508,0.6245,0.6367,0.6032,0.5864,0.591,0.5901,0.5851,0.5764,0.5742,0.5669,0.5613,0.5515,0.505,0.4254,0.336,0.2565,0.1953,0.1676,0.1454,0.1231,0.1231,0.1231,0.1064,-0.0112,-0.0504,-0.056,-0.1008,-0.151,-0.1955,-0.2012,-0.2012,-0.1843,-0.1453,-0.0951,-0.0504,-0.0504,-0.0504,-0.0556,-0.059,-0.0732,-0.0914,-0.0909,-0.105,-0.1188,-0.1158,-0.1072,-0.0991,-0.0819,-0.0615,-0.0446,-0.0447,-0.0447,-0.0718,-0.1512,-0.2465,-0.3333,-0.4075,-0.5084,-0.6349,-0.7903,-0.8821,-0.9915,-1.1386,-1.1883,-1.2586,-1.3709,-1.3799,-1.4065,-1.461,-1.4624,-1.4655,-1.4746,-1.4746,-1.5212,-1.6129,-1.6044,-1.6197,-1.6608,-1.6132,-1.5433,0.2972,0.0,0.0,0.4969,0.551,0.5848,0.6072,0.6337,0.6711,0.7543,0.7815,0.8345,0.9613,1.0538,1.1197,1.1501,1.1691,1.1759,1.1445,1.0738,1.0403,1.0861,1.112,1.1066,1.0655,0.9787,0.9167,0.9036,0.8393,0.7977,0.795,0.7333,0.7183,0.754,0.7315,0.7191,0.718,0.7169,0.7068,0.6945,0.674,0.6691,0.6637,0.647,0.6023,0.5358,0.471,0.3999,0.334,0.2896,0.2565,0.2291,0.2291,0.2291,0.2235,0.1511,0.1008,0.056,0.0112,-0.0448,-0.095,-0.1007,-0.1007,-0.0837,-0.0387,0.0166,0.0607,0.0656,0.0654,0.0648,0.0522,0.0251,0.0,0.0,-0.0255,-0.0409,-0.028,-0.0245,-0.0168,0.0127,0.0393,0.0578,0.058,0.0579,0.0356,-0.0223,-0.1205,-0.2273,-0.3429,-0.4735,-0.6198,-0.7882,-0.8748,-0.9667,-1.0802,-1.1442,-1.2187,-1.3216,-1.3535,-1.3901,-1.442,-1.4452,-1.4515,-1.4624,-1.4669,-1.504,-1.5688,-1.5743,-1.5904,-1.6191,-1.5914,-1.5437,0.0,0.0,0.7338,0.8098,0.8192,0.8117,0.8197,0.8204,0.8443,0.9281,0.9479,0.9938,1.1268,1.1846,1.2346,1.2861,1.2929,1.2951,1.2931,1.2438,1.2271,1.2669,1.264,1.2695,0.0,1.161,1.0392,0.9803,0.9144,0.8808,0.8844,0.8345,0.8234,0.8619,0.8626,0.8626,0.8626,0.8626,0.8528,0.8224,0.7972,0.7871,0.7818,0.7599,0.7374,0.7154,0.6298,0.5588,0.498,0.4391,0.3901,0.3572,0.3572,0.3572,0.3514,0.3355,0.246,0.123,0.0953,0.028,-0.0335,0.0168,0.0,-0.0278,0.0538,0.096,0.1166,0.1279,0.1313,0.1351,0.1351,0.1112,0.0933,0.1104,0.0892,0.0753,0.1073,0.1126,0.1268,0.1635,0.1912,0.2047,0.2053,0.2049,0.1823,0.1247,0.0668,-0.0533,-0.2932,-0.4938,-0.6579,-0.7592,-0.8496,-0.9531,-1.0802,-1.1319,-1.2067,-1.3148,-1.3433,-1.3815,-1.43,-1.4365,-1.4433,-1.4501,-1.4624,-1.504,-1.5688,-1.5305,-1.5514,-1.6191,-1.5611,-1.5234,0.0,0.0,0.9619,1.0376,1.0508,1.0358,1.0182,1.0116,1.0303,1.107,1.1219,1.1576,1.2882,1.3375,1.3726,1.4086,1.4026,1.3937,1.3937,1.3513,1.3379,1.3827,1.4083,0.0,0.0,0.0,0.0,1.1471,1.0628,1.0105,1.0052,0.9592,0.9533,0.9878,1.0213,1.0332,1.0332,1.0332,1.023,0.9931,0.9423,0.9177,0.917,0.8644,0.8352,0.8205,0.7511,0.6812,0.6202,0.5668,0.5166,0.4711,0.4711,0.4711,0.4711,0.4459,0.4105,0.35,0.2106,0.1176,0.0616,0.0729,0.0672,0.0668,0.1184,0.1571,0.1833,0.1961,0.2093,0.2123,0.2081,0.1907,0.1821,0.1969,0.1904,0.1959,0.236,0.2562,0.2811,0.3316,0.3598,0.3719,0.3639,0.3632,0.3312,0.2381,0.0797,-0.0844,-0.2304,-0.3702,-0.5048,-0.6295,-0.739,-0.8545,-0.9933,-1.0715,-1.1605,-1.2742,-1.3135,-1.3568,-1.4065,-1.4222,-1.4287,-1.4383,-1.4447,-1.4685,-1.5053,-1.5046,-1.5207,-1.5595,-1.5371,-1.5222,1.4166,1.3042,1.2082,1.2941,1.2901,1.2645,1.2669,1.2543,1.2623,1.3438,1.3693,1.3973,1.4732,1.5255,1.5484,1.5466,1.5346,1.5229,1.5253,1.4911,1.4827,1.5131,1.5377,1.5579,0.0,0.0,0.0,1.3086,1.2288,1.1684,1.1465,1.0897,1.0746,1.115,1.1601,1.1861,1.1861,1.2057,1.1975,1.1522,1.0853,1.0539,1.0522,0.9956,0.969,0.9554,0.8913,0.8296,0.7729,0.7133,0.6614,0.6176,0.6181,0.6181,0.6133,0.5843,0.5724,0.5444,0.3467,0.2441,0.1971,0.1946,0.1885,0.198,0.2324,0.2585,0.277,0.2981,0.3078,0.304,0.3036,0.2907,0.2832,0.3125,0.3127,0.3265,0.3875,0.4176,0.444,0.4969,0.5292,0.5444,0.5363,0.5305,0.5024,0.4273,0.2743,0.1048,-0.0791,-0.2111,-0.338,-0.4714,-0.6048,-0.7445,-0.905,-1.0099,-1.1164,-1.2413,-1.2906,-1.3399,-1.3914,-1.4026,-1.4124,-1.4176,-1.4319,-1.4447,-1.4624,-1.468,-1.4928,-1.531,-1.5084,-1.503,1.7652,1.6114,1.4561,1.5535,1.5242,1.4861,1.5432,1.5268,1.5271,1.6315,1.6771,1.6922,0.0,0.0,1.7648,1.6989,1.6912,1.6883,1.6795,1.668,1.6595,0.0,0.0,0.0,0.0,0.0,0.0,1.4674,0.0,1.3488,1.3084,1.2184,1.1888,1.2331,1.2869,1.3157,1.3201,1.3683,1.3606,1.3,1.2309,1.1957,1.1947,1.145,1.1267,1.1224,1.048,0.9983,0.9518,0.8837,0.8286,0.7915,0.7836,0.7789,0.7789,0.7502,0.7369,0.7043,0.5029,0.4063,0.3709,0.3776,0.3575,0.3444,0.3889,0.401,0.3975,0.4172,0.4217,0.414,0.414,0.4012,0.4037,0.4565,0.4562,0.4675,0.5611,0.5915,0.6148,0.6629,0.6919,0.712,0.712,0.7093,0.699,0.6818,0.6454,0.4983,0.1572,-0.0175,-0.1574,-0.2694,-0.429,-0.6103,-0.8135,-0.9406,-1.076,-1.2378,-1.2941,-1.3391,-1.3841,-1.3921,-1.396,-1.4019,-1.4222,-1.4383,-1.4501,-1.4273,-1.4557,-1.5259,-1.4672,-1.4601,1.8009,1.6383,1.4882,1.5456,1.5272,1.5273,1.6294,1.637,1.6591,1.8104,1.8748,1.8929,0.0,0.0,0.0,1.8419,1.8218,0.0,1.7933,1.7787,0.0,1.7625,0.0,1.7571,1.7666,1.7626,0.0,0.0,1.5272,1.4426,1.4058,1.3131,1.2692,1.2828,1.3709,1.4281,1.4441,1.4588,1.4506,1.4234,1.3268,1.2702,1.256,1.2201,1.2016,1.1979,1.154,1.1134,1.0714,1.0272,0.9873,0.9528,0.9456,0.9334,0.9252,0.912,0.9081,0.8937,0.8165,0.6711,0.5101,0.4824,0.4488,0.4252,0.451,0.4607,0.4678,0.4833,0.4883,0.4925,0.4925,0.5123,0.5371,0.5655,0.6033,0.6499,0.7121,0.7525,0.7896,0.8327,0.8601,0.8847,0.8998,0.9072,0.9184,0.938,0.9044,0.7644,0.4515,0.3229,0.2269,0.1317,0.0042,-0.2526,-0.6917,-0.8123,-1.0365,-1.444,-1.4614,-1.4642,-1.4755,-1.4655,-1.4497,-1.4374,-1.4369,-1.4401,-1.4501,-1.4092,-1.4245,-1.4904,-1.4241,-1.3986,1.7917,1.6605,1.546,1.5976,1.6179,1.6566,1.7834,1.816,1.8709,2.0518,2.1118,0.0,0.0,0.0,0.0,0.0,0.0,0.0,1.9082,1.8933,1.8835,0.0,1.8712,0.0,1.8841,1.853,1.8251,0.0,1.6418,1.5304,1.4785,1.4008,1.3576,1.3576,1.4663,1.56,1.6342,1.5977,1.5809,1.5743,1.4525,1.3725,1.3298,1.321,1.3036,1.2788,1.2765,1.262,1.2329,1.2013,1.1556,1.1012,1.088,1.0584,1.0203,1.0122,1.023,1.0318,0.9926,0.8896,0.7632,0.6678,0.6049,0.5691,0.5869,0.5866,0.5902,0.6017,0.6077,0.609,0.6113,0.6474,0.6934,0.7206,0.7713,0.8314,0.8991,0.9375,0.978,1.0298,1.0583,1.0824,1.0952,1.1191,1.1472,1.1697,1.1593,1.0805,0.9039,0.7172,0.5791,0.519,0.4388,0.1594,-0.4127,-0.5727,-0.8839,-1.4532,-1.5238,-1.5406,-1.5372,-1.5138,-1.4907,-1.4655,-1.4606,-1.4529,-1.4501,-1.4046,-1.4114,-1.4569,-1.3686,-1.3309,1.752,1.6673,1.5979,1.6656,1.718,1.7936,1.9488,2.0135,2.0945,2.298,0.0,2.3422,2.2573,0.0,2.2505,2.0905,0.0,2.0452,2.0234,2.0193,2.0104,1.9939,1.9854,1.9858,1.9921,1.9183,1.8772,1.8852,1.7246,1.5997,1.5413,1.4763,1.4424,1.4474,1.5476,1.6674,1.8033,1.7325,1.6983,1.7001,1.5703,1.4719,1.4051,1.4342,1.4145,1.3576,1.4032,1.4156,1.3992,1.3748,1.3252,1.2563,1.2285,1.1721,1.1082,1.093,1.1069,1.1305,1.0888,1.0687,1.0378,0.8744,0.7839,0.744,0.7466,0.7457,0.7446,0.7621,0.7682,0.7695,0.7686,0.8188,0.8795,0.9041,0.9571,1.0216,1.0952,1.1348,1.1739,1.2388,1.2677,1.2837,1.2935,1.333,1.3693,1.3884,1.3997,1.4004,1.3878,1.1148,0.9169,0.8967,0.8705,0.6104,-0.0017,-0.2534,-0.6517,-1.2986,-1.4979,-1.5921,-1.5927,-1.5598,-1.5336,-1.511,-1.4914,-1.4729,-1.4582,-1.4084,-1.3922,-1.4038,-1.2918,-1.2476,1.6862,1.6143,1.5579,1.6317,1.6516,1.7271,2.0057,2.1001,0.0,0.0,0.0,2.521,2.3721,2.393,0.0,2.2065,0.0,0.0,0.0,0.0,2.1827,0.0,0.0,0.0,0.0,0.0,0.0,0.0,1.6901,1.6115,1.6268,1.5404,1.5022,1.5365,1.5886,1.6556,1.7358,1.695,1.6693,1.6617,1.5918,1.514,1.4357,1.5125,1.5065,1.4435,1.5095,1.5301,1.5109,1.5065,1.4859,1.4537,1.3836,1.3381,1.3025,1.2466,1.2232,1.2171,1.2104,1.1732,1.1118,0.9769,0.8955,0.8513,0.8542,0.8843,0.921,0.9389,0.9889,1.0237,0.9885,1.06,1.1303,1.082,1.1462,1.2256,1.2537,1.307,1.3572,1.402,1.4301,1.4546,1.4788,1.5125,1.5497,1.5926,1.6009,1.6056,1.6189,1.4183,1.2737,1.275,1.2633,1.068,0.5888,0.15,-0.3483,-0.9355,-1.3657,-1.6342,-1.7141,-1.6492,-1.6306,-1.668,-1.5555,-1.5009,-1.5091,-1.4049,-1.3348,-1.288,-1.1931,-1.1098,1.6816,1.6011,1.5485,1.631,1.6772,1.7723,2.0389,0.0,0.0,0.0,0.0,2.6247,2.5422,0.0,0.0,0.0,0.0,0.0,0.0,0.0,0.0,0.0,0.0,0.0,0.0,0.0,0.0,0.0,1.7209,1.6271,1.6092,1.5435,1.5286,1.5737,1.6335,1.6877,1.7254,1.6758,1.6342,1.6016,1.5411,1.4744,1.4083,1.5267,1.5427,1.4858,1.5973,1.6358,1.6235,1.6235,1.6192,1.6088,1.5656,1.5145,1.4604,1.3905,1.3357,1.2902,1.2482,1.215,1.1861,1.1565,1.0834,1.0044,1.0044,1.047,1.099,1.1162,1.1484,1.1757,1.1707,1.2379,1.3031,1.2765,1.3408,1.4014,1.3866,1.4468,1.5155,1.5472,1.5793,1.6049,1.6218,1.6534,1.6881,1.7172,1.7321,1.7444,1.7652,1.6909,1.6084,1.5328,1.56,1.3697,0.8395,0.5505,0.1543,-0.4129,-0.7145,-0.9799,-1.2204,-1.2257,-1.3485,-1.6105,-1.5668,-1.5432,-1.5458,-1.4078,-1.2782,-1.1619,-1.0358,-0.9265,1.6875,1.6023,1.5571,1.6619,1.7589,1.887,2.1179,2.2863,0.0,0.0,0.0,2.7068,2.6836,0.0,0.0,0.0,0.0,0.0,0.0,0.0,0.0,0.0,0.0,0.0,0.0,0.0,0.0,1.864,1.7247,1.6139,1.5612,1.5411,1.5474,1.5848,1.6653,1.7047,1.6962,1.6483,1.5987,1.5479,1.4952,1.4422,1.3869,1.5201,1.5561,1.5199,1.6459,1.7052,1.7167,1.7167,1.7298,1.7445,1.7167,1.6767,1.6192,1.5143,1.4368,1.3748,1.2788,1.2577,1.2764,1.3205,1.2558,1.1635,1.1784,1.2265,1.2817,1.2941,1.3122,1.333,1.3484,1.4082,1.4663,1.4797,1.5267,1.5604,1.5314,1.59,1.6553,1.6797,1.7116,1.7336,1.744,1.7735,1.7996,1.8118,1.8329,1.8556,1.8726,1.8981,1.8669,1.7358,1.773,1.6131,1.1325,0.9388,0.6417,0.1709,-0.0427,-0.2948,-0.6145,-0.7458,-0.9957,-1.3893,-1.4751,-1.4727,-1.3883,-1.2609,-1.0576,-0.7835,-0.6745,-0.57,1.6717,1.6052,1.5775,1.7385,1.8983,2.0759,2.3103,0.0,0.0,0.0,2.8054,2.8018,2.7284,0.0,0.0,0.0,0.0,0.0,0.0,0.0,0.0,0.0,0.0,0.0,0.0,0.0,0.0,1.754,1.6112,1.5211,1.5155,1.5694,1.5919,1.5734,1.6559,1.6654,1.5853,1.596,1.569,1.506,1.5129,1.4824,1.4257,1.5154,1.5533,1.5576,1.6324,1.7064,1.7743,1.7743,1.8091,1.8572,1.7893,1.7964,1.8169,1.6027,1.5193,1.4924,1.3528,1.3425,1.3933,1.394,1.3442,1.297,1.3626,1.4202,1.4693,1.4801,1.5338,1.5772,1.537,1.5959,1.6655,1.6791,1.6938,1.7085,1.7283,1.7501,1.7715,1.7979,1.822,1.8419,1.8607,1.8717,1.8807,1.8894,1.917,1.9425,1.9581,1.983,1.9695,1.8969,1.8727,1.8403,1.7844,1.3108,0.9429,0.7683,0.2865,-0.0635,-0.2252,-0.525,-0.7751,-0.9625,-1.1917,-1.1399,-0.7984,-0.7832,-0.4514,0.1632,0.0999,0.1462,1.826,1.7636,1.7233,1.8393,1.955,2.0882,2.2709,0.0,0.0,2.7214,2.807,2.8567,2.8178,2.7558,0.0,0.0,0.0,0.0,0.0,0.0,0.0,0.0,0.0,0.0,0.0,0.0,0.0,1.629,1.5666,1.5127,1.4642,1.5481,1.589,1.5654,1.6375,1.6351,1.5457,1.5138,1.4894,1.471,1.4375,1.4417,1.4727,1.509,1.554,1.6063,1.6829,1.7857,1.9011,1.8969,1.9643,2.068,2.0362,2.0385,2.0413,1.856,1.7297,1.6297,1.4762,1.4417,1.471,1.5121,1.542,1.5556,1.5346,1.5767,1.6305,1.6443,1.6727,1.6963,1.6908,1.7282,1.7586,1.7241,1.7518,1.7783,1.748,1.7867,1.8342,1.8517,1.8771,1.8993,1.9188,1.9283,1.9339,1.9411,1.96,1.9794,1.9917,2.0096,2.016,1.9953,1.8866,1.7959,1.7478,1.496,1.318,1.2656,1.0477,0.7875,0.489,0.2923,0.0471,-0.2606,-0.3905,-0.362,-0.1716,-0.0956,0.1577,0.5659,0.5808,0.6414,1.9431,1.8652,1.8181,1.8995,2.0177,2.1473,0.0,0.0,2.6987,2.7323,2.8225,2.8915,2.8791,2.8166,2.7547,0.0,0.0,0.0,0.0,0.0,0.0,0.0,0.0,0.0,0.0,0.0,1.7722,1.566,1.5546,1.5342,1.4794,1.5917,1.6342,1.5816,1.6463,1.6379,1.5485,1.4819,1.4416,1.4298,1.3926,1.4099,1.4768,1.5071,1.5666,1.6447,1.7021,1.8289,1.9914,1.9606,2.0548,2.2113,2.1564,2.1485,2.141,1.9394,1.7965,1.68,1.5263,1.4874,1.5141,1.5655,1.636,1.694,1.6678,1.7071,1.7636,1.7725,1.7795,1.7902,1.8083,1.8278,1.8313,1.7878,1.8162,1.8409,1.7932,1.8342,1.884,1.8992,1.9179,1.9416,1.9607,1.97,1.9741,1.9801,1.9925,2.0039,2.0137,2.0276,2.04,2.0526,1.9153,1.7893,1.7066,1.6253,1.5665,1.5418,1.5272,1.3884,1.0985,0.9395,0.7117,0.3999,0.2767,0.2969,0.4593,0.5272,0.7393,1.0795,1.0946,1.1108,1.9778,1.8666,1.8182,1.8996,2.1042,2.309,0.0,2.6519,2.8715,2.8523,2.88,2.9079,2.8998,2.8785,2.8316,2.7519,0.0,0.0,0.0,0.0,0.0,0.0,0.0,0.0,0.0,0.0,1.744,1.5827,1.5764,0.0,1.5889,1.7335,1.7607,1.6335,1.6938,1.6853,1.5903,1.5227,1.4539,1.3813,1.3997,1.4136,1.4242,1.509,1.5928,1.6704,1.6693,1.8071,2.0245,1.9359,2.0391,2.2343,2.0749,2.0511,2.0722,1.7592,1.6415,1.6201,1.4635,1.4585,1.5211,1.5211,1.5695,1.6492,1.7487,1.8161,1.8589,1.8589,1.8627,1.8717,1.8857,1.8945,1.9013,1.9075,1.9091,1.9091,1.9073,1.9201,1.932,1.9481,1.9594,1.9764,1.9955,1.9992,2.0018,2.0092,2.0153,2.0216,2.0294,2.0418,2.0528,2.0591,1.9814,1.8908,1.7975,1.7148,1.6321,1.5452,1.5391,1.5296,1.5054,1.2343,1.0412,0.9443,0.6604,0.7059,1.0908,1.0191,1.2824,1.8461,1.7058,1.5999,2.2051,2.084,1.9917,2.0765,2.1949,2.3082,2.3812,2.5971,2.7759,2.7472,2.8305,2.9048,2.8881,2.8712,2.8515,2.8243,2.7779,0.0,0.0,0.0,0.0,0.0,0.0,0.0,0.0,0.0,1.7935,1.5225,1.5548,1.587,1.5897,1.7405,1.7785,1.6737,1.6874,1.7037,1.7214,1.5947,1.545,1.5721,1.5358,1.5521,1.6116,1.5917,1.6606,1.7919,1.7938,1.934,2.1563,2.1254,2.2221,2.3762,2.205,2.1521,2.1377,1.8647,1.728,1.6657,1.5618,1.541,1.5603,1.5603,1.6137,1.6953,1.7858,1.8128,1.8259,1.8952,1.9164,1.9196,1.9227,1.9289,1.935,1.9372,1.9401,1.9448,1.9439,1.954,1.9663,1.975,1.988,2.0022,2.018,2.0234,2.0289,2.0305,2.0313,2.0143,1.9616,1.9597,1.9636,1.9693,1.9464,1.9171,1.8874,1.7527,1.6828,1.7087,1.6582,1.6538,1.7059,1.6239,1.5887,1.6186,1.53,1.5718,1.7499,1.7261,1.8381,2.0695,2.0031,1.9383,0.0,2.3224,2.2503,2.3032,2.3709,2.4353,2.473,2.6341,2.7702,2.7438,2.8257,2.8975,2.8834,2.8687,2.8587,2.8587,2.8196,0.0,0.0,0.0,0.0,0.0,0.0,0.0,0.0,1.9582,1.8659,1.631,1.6593,1.6859,1.6835,1.8093,1.8374,1.7457,1.7064,1.7069,1.7453,1.5955,1.5423,1.5888,1.5551,1.5836,1.6653,1.6568,1.7267,1.8531,1.8531,1.9593,0.0,2.0921,2.1765,2.3026,2.1022,2.0428,2.041,1.7857,1.6597,1.6094,1.5588,1.5428,1.5417,1.5417,1.5986,1.676,1.7305,1.799,1.8709,1.9374,1.955,1.955,1.955,1.9601,1.9649,1.965,1.9701,1.9757,1.9786,1.9855,1.9939,2.0001,2.0106,2.0215,2.0328,2.0394,2.0458,2.046,2.049,2.0185,1.9339,1.9249,1.9255,1.9303,1.9309,1.9411,1.9726,1.8475,1.7753,1.7929,1.7478,1.7436,1.7983,1.8313,1.8745,1.9296,1.9629,2.0037,2.0539,2.0516,2.077,2.1234,2.0977,2.0636,0.0,2.5697,2.5473,2.5467,2.5989,2.6465,2.6378,2.7415,0.0,2.8201,2.854,2.8881,2.8785,2.8687,2.8569,2.8515,0.0,0.0,0.0,0.0,0.0,0.0,0.0,0.0,2.0013,1.9801,1.9407,1.8483,1.8458,1.8458,1.8415,1.9167,1.9239,1.8422,1.7572,1.7101,1.7093,1.5689,1.499,1.4991,1.5131,1.5591,1.6328,1.7141,1.7955,1.872,1.872,1.9171,1.9847,1.9054,1.9665,2.0872,1.8316,1.7855,1.8308,1.5753,1.4811,1.4811,1.4812,1.4812,1.4812,1.4812,1.5404,1.6111,1.6111,1.7764,1.965,1.9701,1.9782,1.982,1.982,1.9849,1.9919,1.9907,1.9971,2.0031,2.0098,2.0068,2.0046,2.0096,2.0111,2.0147,2.0206,2.0278,2.0344,2.0414,2.0419,2.0105,1.9227,1.9129,1.9148,1.9207,1.9214,1.9551,2.0426,1.9764,1.8984,1.8237,1.8114,1.8109,1.8187,1.895,1.9385,1.9392,2.0176,2.0585,2.0582,2.0537,2.0501,2.0503,2.0376,2.0218,2.8938,0.0,2.5404,2.6015,2.6224,2.6397,0.0,2.7652,2.8165,0.0,0.0,0.0,0.0,0.0,0.0,0.0,0.0,0.0,0.0,0.0,0.0,0.0,0.0,0.0,2.0043,1.9801,1.9188,1.7701,1.814,1.8488,1.8477,1.9294,1.9656,1.9451,1.865,1.8488,1.9045,1.8192,1.7795,1.7832,1.7914,1.8081,1.8324,1.8482,1.9019,1.9812,1.9774,2.0241,2.0965,2.0097,2.0726,2.1907,1.8764,1.8059,1.8516,1.5964,1.5038,1.5026,1.5018,1.5033,1.5035,1.5035,1.5582,1.6243,1.6243,1.7501,1.8944,1.8955,1.9439,1.9949,1.9949,1.9955,2.0,2.004,2.0098,2.0171,2.0233,1.9727,1.9256,1.9277,1.8838,1.847,1.8477,1.8546,1.8586,1.86,1.8605,1.8293,1.7417,1.7301,1.7576,1.8222,1.8301,1.8903,2.0377,1.9756,1.948,1.989,1.928,1.9222,1.9887,2.0109,2.0219,2.0211,2.0429,2.0522,2.0518,2.0501,2.0503,2.0503,2.0478,2.0394,2.9531,2.8427,2.737,2.7818,2.7835,2.7843,2.8179,0.0,0.0,0.0,0.0,0.0,0.0,0.0,0.0,0.0,0.0,0.0,0.0,0.0,0.0,0.0,0.0,2.1652,0.0,1.9812,1.9419,1.8519,1.8873,1.9145,1.9136,1.9612,1.988,1.9901,1.9513,1.9282,1.9239,1.8544,1.8229,1.8297,1.834,1.8574,1.8993,1.8958,1.9394,2.0192,2.0155,2.0184,2.0222,1.9753,1.9868,2.0125,1.7903,1.7344,1.7535,1.5786,1.5146,1.5152,1.5158,1.5145,1.5157,1.5157,1.5439,1.5792,1.5792,1.6685,1.7846,1.8555,1.9097,1.9535,1.9934,2.0069,2.0107,2.0152,2.0195,2.0262,2.0337,1.9651,1.9045,1.9049,1.8435,1.7913,1.7942,1.7979,1.8147,1.8547,1.8609,1.8416,1.791,1.7851,1.8026,1.8509,1.8542,1.908,2.0394,2.0104,2.0043,2.0474,2.0065,2.001,2.0486,2.0494,2.0508,2.0543,2.0547,2.0544,2.0558,2.0508,2.0492,2.0494,2.0495,2.0473,2.9074,2.9303,2.955,2.9624,2.9513,2.9345,2.9286,0.0,0.0,0.0,0.0,0.0,0.0,0.0,0.0,0.0,0.0,0.0,0.0,0.0,0.0,0.0,0.0,0.0,1.9979,1.9856,1.982,1.9818,1.988,1.991,1.9929,1.9984,2.0016,2.0024,2.0096,1.9726,1.8935,1.8306,1.8029,1.8095,1.811,1.8474,1.9193,1.9193,1.9553,2.0209,2.0201,1.979,1.9084,1.8975,1.8589,1.798,1.6856,1.6586,1.6707,1.5755,1.5496,1.5598,1.5453,1.5337,1.5222,1.5222,1.5222,1.5222,1.5222,1.5738,1.6617,1.8068,1.8546,1.8805,1.9551,1.9777,1.9838,1.9831,1.9875,1.9928,1.9999,1.9331,1.8717,1.874,1.8088,1.7533,1.7595,1.7719,1.8057,1.8785,1.9022,1.9082,1.902,1.9016,1.9067,1.921,1.9219,1.9562,2.0429,2.0503,2.0503,2.0503,2.0503,2.0494,2.0492,2.0499,2.0531,2.0582,2.0583,2.0586,2.0604,2.0521,2.0492,2.0492,2.0648,2.0686,2.8464,2.8664,2.8925,2.9275,2.8834,2.8311,0.0,0.0,0.0,0.0,0.0,0.0,0.0,0.0,0.0,0.0,0.0,0.0,0.0,0.0,0.0,0.0,0.0,2.086,2.0066,1.9918,1.9873,1.9868,1.9944,2.0007,2.0073,2.0082,2.0118,2.0161,2.0184,2.0109,1.9967,1.986,1.9838,1.99,1.99,1.9977,2.0092,2.0046,2.0068,2.0195,2.0197,2.0131,1.9958,1.9265,1.935,1.9663,1.7381,1.7382,1.8494,1.6958,1.6851,1.7387,1.6635,1.5897,1.5276,1.5276,1.5276,1.5276,1.5276,1.5389,1.5695,1.6663,1.7399,1.7902,1.8036,1.8127,1.8166,1.8177,1.8181,1.8202,1.8271,1.7594,1.6995,1.7067,1.6369,1.5783,1.5792,1.6401,1.695,1.7087,1.7734,1.8203,1.82,1.8175,1.8461,1.9212,1.9283,1.9606,2.0438,2.0499,2.0511,2.0511,2.0506,2.0509,2.0492,2.0498,2.0502,2.0521,2.0519,2.054,2.0602,2.0527,2.0503,2.0511,2.125,2.1565,2.8146,2.8335,2.8543,2.8803,2.8445,2.7911,0.0,0.0,0.0,0.0,0.0,0.0,0.0,0.0,0.0,0.0,0.0,0.0,0.0,0.0,0.0,0.0,0.0,2.0443,2.0031,1.9971,1.9955,1.995,2.0015,2.0081,2.0149,2.0195,2.0241,2.0313,2.0306,2.028,2.0253,2.0253,2.0258,2.0312,2.0312,2.0312,2.0312,2.0265,2.0238,2.0192,2.0249,2.0222,2.0175,1.9834,1.9406,1.884,1.7699,1.7461,1.7703,1.7412,1.728,1.719,1.6785,1.6085,1.5342,1.5342,1.5342,1.5342,1.5342,1.5342,1.5436,1.5834,1.6517,1.7219,1.7697,1.7824,1.7975,1.8435,1.855,1.8687,1.9208,1.8623,1.8013,1.8039,1.7387,1.6792,1.6795,1.7148,1.7558,1.8027,1.8457,1.8866,1.929,1.9342,1.9491,1.9907,1.996,2.0094,2.0461,2.049,2.0499,2.0508,2.049,2.0494,2.0492,2.054,2.0544,2.0544,2.0541,2.0561,2.0605,2.0527,2.0505,2.0511,2.1393,2.1772,2.7824,2.8025,2.8174,2.811,0.0,2.7453,2.6806,0.0,0.0,0.0,0.0,0.0,0.0,0.0,0.0,0.0,0.0,0.0,0.0,2.2481,2.1912,2.0289,2.0088,2.0089,2.0038,2.0028,2.0019,2.0044,2.0106,2.0176,2.0243,2.0296,2.0347,2.0392,2.0392,2.0372,2.0321,2.0321,2.0314,2.0308,2.0308,2.0308,2.0308,2.0308,2.0262,2.0235,2.0289,2.0269,2.0258,2.0308,1.9571,1.8421,1.8263,1.7803,1.7335,1.8189,1.7994,1.7313,1.729,1.6726,1.6005,1.6005,1.6005,1.6005,1.6005,1.6002,1.6,1.5987,1.644,1.6965,1.7223,1.7295,1.7529,1.841,1.8604,1.8849,1.9734,1.9396,1.8914,1.8916,1.8414,1.8007,1.8008,1.8164,1.8535,1.9199,1.9472,1.9822,2.0441,2.0515,2.0527,2.0511,2.0528,2.0528,2.0503,2.0503,2.0494,2.0496,2.0494,2.0509,2.0506,2.0558,2.0584,2.0605,2.0604,2.0605,2.0605,2.0742,2.0798,2.082,2.1906,2.2407,2.7496,2.7689,2.7699,2.713,0.0,0.0,2.653,0.0,0.0,0.0,0.0,0.0,0.0,0.0,0.0,0.0,0.0,0.0,2.2716,0.0,2.1967,2.0299,2.0088,2.0107,2.0095,2.0079,2.0127,2.0183,2.0257,2.0315,2.0379,2.0398,2.0396,2.0408,2.0388,2.0388,2.0388,2.0388,2.0359,2.0294,2.0294,2.0294,2.0294,2.0294,2.0294,2.0294,2.0295,2.0334,2.0385,2.0399,2.0351,2.0221,1.9428,1.9107,1.9195,2.0009,1.9792,1.9107,1.9041,1.8493,1.7811,1.7811,1.7811,1.7811,1.7811,1.7769,1.7725,1.7712,1.7761,1.7455,1.5889,1.5534,1.5808,1.6668,1.6875,1.7117,1.7981,1.8121,1.8084,1.8083,1.8046,1.8008,1.8008,1.8672,1.9238,1.9297,2.0,2.0526,2.0582,2.058,2.0597,2.0593,2.0591,2.0568,2.0516,2.0509,2.0503,2.0497,2.049,2.0497,2.0497,2.0501,2.0546,2.0605,2.0605,2.0605,2.0605,2.1347,2.1715,2.1743,2.3433,2.4179,2.7465,2.7707,2.788,2.7727,0.0,0.0,0.0,0.0,0.0,0.0,0.0,0.0,0.0,0.0,0.0,0.0,0.0,2.3588,2.2092,2.1855,2.1435,2.0308,2.0155,2.0161,2.0165,2.0188,2.025,2.032,2.034,2.0365,2.0396,2.0402,2.0408,2.0394,2.0404,2.0395,2.0391,2.0439,2.0443,2.0419,2.0388,2.0359,2.0359,2.0359,2.0359,2.0359,2.0349,2.0385,2.04,2.0437,2.0156,1.9668,1.937,1.9277,1.9394,2.025,2.0033,1.9307,1.9266,1.872,1.7998,1.7998,1.7998,1.7998,1.7998,1.7974,1.7969,1.7961,1.7952,1.7803,1.7101,1.696,1.7224,1.8069,1.8294,1.8554,1.9433,1.9628,1.9628,1.9628,1.9628,1.9628,1.9627,1.9881,2.0115,2.0115,2.0388,2.0602,2.0601,2.0601,2.0601,2.0601,2.1072,2.1189,2.0618,2.1021,2.1072,2.0538,2.0503,2.0525,2.0568,2.0561,2.0566,2.0604,2.0603,2.0601,2.0599,2.1442,2.1848,2.185,2.3592,2.439,2.7369,2.7719,2.7936,0.0,0.0,0.0,0.0,0.0,0.0,0.0,0.0,0.0,0.0,0.0,0.0,0.0,2.3651,2.321,2.1723,2.1464,2.112,2.0307,2.0199,2.0211,2.0236,2.0283,2.0353,2.0404,2.0418,2.0432,2.0424,2.0424,2.0424,2.0424,2.0425,2.0424,2.0426,2.048,2.0516,2.0533,2.0496,2.0448,2.0434,2.0434,2.0434,2.0434,2.0437,2.043,2.0437,2.0483,2.0165,1.9645,1.9695,1.9716,1.9772,2.0377,2.0219,1.9708,1.9708,1.9317,1.883,1.883,1.883,1.883,1.883,1.8824,1.8817,1.8793,1.8785,1.8773,1.8733,1.8358,1.8208,1.9049,1.9275,1.9531,2.0405,2.0598,2.0598,2.0599,2.0599,2.0599,2.0599,2.0601,2.0601,2.0601,2.0601,2.0601,2.0601,2.0601,2.0602,2.0604,2.1386,2.1543,2.0663,2.1362,2.1455,2.0591,2.0521,2.0538,2.0568,2.0834,2.0976,2.0976,2.1247,2.1382,2.1396,2.2259,2.2665,2.2664,2.4121,2.4813,2.7192,2.7589,0.0,0.0,0.0,0.0,0.0,0.0,0.0,0.0,0.0,0.0,0.0,0.0,0.0,2.3693,2.3688,2.3228,2.1704,2.1484,2.1167,2.0299,2.02,2.0238,2.0283,2.0353,2.0402,2.0395,2.0464,2.0507,2.0507,2.0507,2.0507,2.0507,2.0495,2.0499,2.05,2.0492,2.0525,2.0594,2.0594,2.0564,2.05,2.05,2.05,2.05,2.0503,2.0494,2.0508,2.0494,2.0539,2.0601,2.0601,2.0601,2.0601,2.0601,2.0601,2.0599,2.0599,2.0597,2.0593,2.0593,2.0593,2.0593,2.0593,2.059,2.0584,2.0519,2.0492,2.0506,2.05,1.9275,1.8235,1.9109,1.9314,1.9551,2.0405,2.0597,2.0593,2.0593,2.0593,2.0593,2.0593,2.0597,2.0599,2.0599,2.0601,2.0601,2.0601,2.0601,2.0602,2.0604,2.1386,2.1562,2.0663,2.1404,2.1539,2.0658,2.0615,2.059,2.0499,2.1336,2.1794,2.1796,2.2655,2.3101,2.3097,2.3977,2.4403,2.4427,2.5283,2.5704,2.7487,2.7525,0.0,0.0,0.0,0.0,0.0,0.0,0.0,0.0,0.0,0.0,0.0,0.0,0.0,2.2205,2.2064,2.178,2.0798,2.0664,2.0554,2.0306,2.0262,2.0302,2.0351,2.0425,2.0473,2.0472,2.0487,2.0497,2.0507,2.0507,2.0507,2.0507,2.0504,2.0494,2.0499,2.0552,2.0583,2.0605,2.0605,2.0584,2.0566,2.0566,2.0566,2.0566,2.057,2.0575,2.0576,2.0579,2.0581,2.0601,2.0601,2.0601,2.0601,2.0601,2.0601,2.0601,2.0599,2.0598,2.0597,2.0594,2.0596,2.0598,2.0599,2.0598,2.0596,2.0576,2.0573,2.0568,2.0511,2.0163,1.9873,2.0087,2.0172,2.0293,2.0543,2.0597,2.0591,2.0545,2.0523,2.0523,2.0523,2.0525,2.0547,2.059,2.0591,2.0593,2.0596,2.0598,2.0601,2.0601,2.1892,2.2166,2.072,2.1911,2.2125,2.0699,2.1186,2.1224,2.0597,2.1363,2.1816,2.1875,2.2674,2.3102,2.3101,2.3977,2.4403,2.4415,2.5288,2.5693,2.7239,0.0,0.0,0.0,0.0,0.0,0.0,0.0,0.0,0.0,0.0,0.0,0.0,2.3636,0.0,2.1597,2.1397,2.1163,2.04,2.0315,2.0339,2.0334,2.0355,2.0395,2.0449,2.0472,2.0492,2.0499,2.0492,2.05,2.0506,2.0506,2.0506,2.0506,2.0499,2.0509,2.0492,2.056,2.0605,2.0601,2.0601,2.0605,2.0604,2.0604,2.0604,2.0604,2.0605,2.0605,2.0605,2.0605,2.0605,2.0605,2.0605,2.0605,2.0605,2.0605,2.0605,2.0604,2.0602,2.0601,2.0599,2.0598,2.0599,2.0602,2.0566,2.0566,2.0566,2.0566,2.0566,2.0546,2.0508,2.0527,2.0566,2.0544,2.0566,2.0585,2.0578,2.0551,2.0543,2.0514,2.0492,2.0492,2.0492,2.0492,2.0514,2.0558,2.0584,2.0591,2.0596,2.0599,2.0601,2.0601,2.2105,2.2554,2.1186,2.265,2.3039,2.1671,2.2082,2.2141,2.1615,2.24,2.2851,2.2891,2.3711,2.412,2.4139,2.4665,2.4915,2.4928,2.5453,2.5703,0.0,0.0,0.0,0.0,0.0,0.0,0.0,0.0,0.0,0.0,0.0,0.0,0.0,2.3548,2.3086,2.156,2.1344,2.1139,2.0396,2.0359,2.0398,2.041,2.0449,2.05,2.0503,2.0503,2.0503,2.05,2.0494,2.0503,2.0492,2.0492,2.0492,2.0492,2.0497,2.0499,2.0497,2.0564,2.0605,2.0601,2.0601,2.0601,2.0601,2.0601,2.0601,2.0601,2.0601,2.0601,2.0601,2.0604,2.0604,2.0604,2.0604,2.0604,2.0604,2.0604,2.0605,2.0605,2.0605,2.0604,2.0601,2.0601,2.0603,2.0586,2.0526,2.0504,2.0503,2.0497,2.0495,2.0515,2.0495,2.0492,2.0511,2.0584,2.0583,2.0576,2.0508,2.0497,2.0506,2.05,2.05,2.05,2.05,2.0503,2.0506,2.0506,2.0564,2.0596,2.0599,2.0662,2.0721,2.0719,2.2223,2.2867,2.1983,2.3443,2.4024,2.3164,2.3164,2.3226,2.323,2.3979,2.4391,2.4391,2.5252,2.5703,2.5703,2.5703,2.5701,2.5694,2.5694,2.5691,0.0,0.0,0.0,0.0,0.0,0.0,0.0,0.0,0.0,0.0,0.0,0.0,2.195,2.1864,2.1608,2.0691,2.055,2.0504,2.0314,2.036,2.0429,2.0472,2.0494,2.0528,2.0566,2.0584,2.056,2.0494,2.0506,2.05,2.0494,2.0494,2.0494,2.0494,2.0494,2.0492,2.0503,2.0566,2.0604,2.0596,2.0596,2.0596,2.0596,2.0599,2.0601,2.0601,2.0601,2.0601,2.0601,2.0604,2.0604,2.0602,2.0604,2.0604,2.0602,2.0604,2.0605,2.0605,2.0605,2.0604,2.0604,2.0602,2.0604,2.0586,2.0524,2.0541,2.0579,2.0508,2.0549,2.0573,2.051,2.0506,2.0499,2.0519,2.0521,2.0521,2.0494,2.0509,2.0506,2.05,2.05,2.05,2.05,2.05,2.0503,2.0494,2.0551,2.0599,2.0601,2.1191,2.1621,2.162,2.312,2.3761,2.2898,2.3786,2.4032,2.3152,2.374,2.411,2.4113,2.4302,2.4407,2.4391,2.5252,2.5703,2.5703,2.5703,2.5702,2.5701,2.5697,2.5693,0.0,0.0,0.0,0.0,0.0,0.0,0.0,0.0,0.0,0.0,0.0,0.0,2.2153,2.1721,2.1235,2.0472,2.0353,2.0347,2.034,2.0416,2.0463,2.0494,2.0536,2.056,2.0593,2.0609,2.0584,2.0543,2.0516,2.0492,2.0494,2.0494,2.0516,2.0558,2.0551,2.0521,2.0507,2.0566,2.0579,2.0547,2.0547,2.0547,2.0547,2.0596,2.0598,2.0598,2.0598,2.0598,2.0598,2.0601,2.0601,2.0601,2.0602,2.0601,2.0601,2.0602,2.0602,2.0603,2.0605,2.0605,2.0605,2.0605,2.0605,2.0583,2.0516,2.0511,2.0549,2.0514,2.0536,2.0543,2.0519,2.0494,2.0483,2.046,2.049,2.05,2.049,2.051,2.0506,2.0506,2.0503,2.0503,2.0503,2.0503,2.049,2.0506,2.0523,2.0554,2.0599,2.1366,2.1894,2.1894,2.3396,2.4212,2.3755,2.4525,2.4829,2.4381,2.4771,2.5027,2.503,2.5022,2.5027,2.5029,2.5463,2.5699,2.5699,2.5702,2.5703,2.5703,2.5702,2.5699,0.0,0.0,0.0,0.0,0.0,0.0,0.0,0.0,0.0,0.0,0.0,2.3484,2.2735,2.2053,2.1345,2.0533,2.0394,2.0399,2.0417,2.0463,2.0506,2.0515,2.0573,2.0591,2.0594,2.0591,2.0609,2.0609,2.0408,2.0369,2.0511,2.0377,2.038,2.058,2.0583,2.0566,2.0506,2.056,2.0552,2.0497,2.0497,2.0497,2.0499,2.0568,2.0572,2.0572,2.0572,2.0572,2.0572,2.0576,2.0597,2.0597,2.0598,2.0598,2.0598,2.0598,2.0598,2.0599,2.0601,2.0601,2.0601,2.0601,2.0601,2.0597,2.0525,2.0519,2.0516,2.0503,2.0503,2.0509,2.0509,2.0506,2.0494,2.0437,2.0465,2.0496,2.048,2.048,2.048,2.0504,2.0504,2.0504,2.0504,2.062,2.0702,2.0705,2.0834,2.0967,2.1024,2.1794,2.2324,2.2324,2.3709,2.4625,2.4619,2.5293,2.5698,2.5698,2.5698,2.5698,2.5703,2.5709,2.5709,2.5707,2.5693,2.5696,2.5696,2.5699,2.5702,2.5703,2.5703,2.5703,0.0,0.0,0.0,0.0,0.0,0.0,0.0,0.0,0.0,0.0,2.388,2.2703,2.1919,2.1713,2.1399,2.0545,2.0406,2.0422,2.0477,2.0486,2.0521,2.058,2.0583,2.0603,2.0601,2.0599,2.0598,2.0598,1.9894,1.9799,2.0544,1.9862,1.9785,2.0487,2.0505,2.0503,2.0498,2.0513,2.0506,2.0497,2.0497,2.0497,2.0497,2.0519,2.0501,2.0501,2.0501,2.0501,2.0501,2.0508,2.0549,2.0607,2.0593,2.0594,2.0594,2.0594,2.0597,2.0599,2.0599,2.0601,2.0601,2.0601,2.0601,2.0598,2.0529,2.0545,2.0562,2.0528,2.0492,2.0497,2.0504,2.0497,2.05,2.0483,2.0496,2.048,2.0434,2.0415,2.043,2.0482,2.0502,2.0502,2.0502,2.108,2.1532,2.1545,2.2181,2.2688,2.2759,2.3522,2.406,2.4062,2.4941,2.5527,2.5527,2.5622,2.5698,2.5698,2.5698,2.5698,2.5698,2.57,2.5702,2.5703,2.5702,2.5702,2.5702,2.5703,2.5703,2.5703,2.5703,2.5702,0.0,0.0,0.0,0.0,0.0,0.0,0.0,0.0,0.0,0.0,2.4834,2.4109,2.3267,2.277,2.2201,2.1324,2.1182,2.1015,2.0552,2.0536,2.056,2.0605,2.0605,2.0605,2.0605,2.0604,2.0409,1.9901,1.9511,1.9258,1.916,1.9237,1.9448,1.9754,2.0256,2.0504,2.0499,2.0492,2.0503,2.0494,2.0497,2.0497,2.0494,2.0497,2.0506,2.0497,2.0497,2.0497,2.0499,2.0501,2.0521,2.0543,2.0588,2.0588,2.0547,2.0588,2.059,2.0551,2.0591,2.0593,2.0594,2.0597,2.0597,2.0596,2.0552,2.057,2.059,2.0564,2.0568,2.0552,2.0555,2.0552,2.0662,2.1116,2.1221,2.1344,2.1779,2.1114,2.0464,2.0493,2.0493,2.0493,2.0493,2.1162,2.1706,2.1702,2.2445,2.3008,2.3042,2.3842,2.4406,2.4391,2.5175,2.5703,2.5703,2.5702,2.5701,2.57,2.5701,2.5702,2.5702,2.5703,2.5703,2.5703,2.5703,2.5703,2.5702,2.566,2.5659,2.5698,2.5698,2.5697,0.0,0.0,0.0,0.0,0.0,0.0,0.0,0.0,0.0,0.0,2.5529,2.5405,2.4775,2.3982,2.3066,2.1985,2.1794,2.1503,2.0625,2.0547,2.0565,2.0561,2.0562,2.0563,2.0563,2.0563,2.0212,1.9334,1.9079,1.8666,1.8016,1.8384,1.8689,1.8854,1.972,2.0179,2.0175,2.0386,2.0496,2.0508,2.0496,2.0496,2.0508,2.0496,2.0494,2.0492,2.0492,2.0492,2.0492,2.0492,2.0492,2.0494,2.0558,2.0538,2.0519,2.056,2.054,2.0519,2.056,2.0562,2.0564,2.0568,2.057,2.057,2.057,2.057,2.057,2.057,2.0573,2.0576,2.0576,2.0576,2.073,2.1321,2.1642,2.2023,2.2839,2.2017,2.1143,2.1143,2.1143,2.1143,2.1134,2.1798,2.235,2.233,2.3062,2.3617,2.3621,2.4261,2.4701,2.4733,2.5311,2.5703,2.5703,2.5703,2.5703,2.5703,2.5703,2.5703,2.5703,2.5703,2.5702,2.57,2.5698,2.5696,2.5694,2.5652,2.565,2.5709,2.5694,2.5693,0.0,0.0,0.0,0.0,0.0,0.0,0.0,0.0,0.0,2.5587,2.5601,2.5603,2.5619,2.4917,2.3788,2.2085,2.1793,2.15,2.0627,2.0501,2.0516,2.0514,2.0509,2.0503,2.0503,2.0509,2.0141,1.9268,1.8447,1.7955,1.7905,1.7157,1.7122,1.7944,1.8811,1.9273,1.9273,2.0091,2.0508,2.0508,2.0508,2.0508,2.0508,2.0508,2.0496,2.0506,2.0497,2.0494,2.0506,2.0506,2.0494,2.05,2.05,2.0509,2.0497,2.0509,2.0492,2.0497,2.0509,2.0511,2.0519,2.0519,2.0519,2.0519,2.0519,2.0519,2.0519,2.0519,2.0519,2.0501,2.0508,2.0504,2.0516,2.0567,2.1204,2.2013,2.2836,2.2929,2.287,2.287,2.287,2.2862,2.2878,2.3539,2.4064,2.4068,2.4764,2.5294,2.5356,2.5463,2.5563,2.5627,2.5662,2.5703,2.5701,2.5702,2.5702,2.5701,2.5702,2.5702,2.5701,2.57,2.5697,2.5709,2.5703,2.5705,2.5694,2.5693,2.5693,2.5693,2.5698,2.5696,0.0,0.0,0.0,0.0,0.0,0.0,0.0,0.0,2.556,2.5605,2.562,2.566,2.5702,2.5445,2.4662,2.2912,2.2635,2.2123,2.0706,2.0497,2.0503,2.0492,2.0504,2.0508,2.0499,2.0503,2.0133,1.928,1.8919,1.8251,1.7131,1.7291,1.7322,1.7077,1.8416,1.9406,1.9959,2.0322,2.0502,2.0502,2.0502,2.0502,2.0502,2.0502,2.0511,2.0504,2.0496,2.0503,2.0503,2.0496,2.0496,2.0499,2.0506,2.0494,2.05,2.0503,2.0506,2.0506,2.0506,2.0509,2.0492,2.0497,2.0497,2.0497,2.0497,2.0497,2.0497,2.0497,2.0497,2.0499,2.0501,2.0499,2.077,2.1901,2.2834,2.3709,2.4544,2.384,2.3061,2.3061,2.3061,2.3056,2.3071,2.3722,2.4257,2.4264,2.4955,2.549,2.5557,2.559,2.5636,2.5693,2.5697,2.5703,2.5703,2.5703,2.5703,2.5703,2.5703,2.5703,2.5703,2.5701,2.5699,2.5697,2.5709,2.5701,2.569,2.5651,2.5651,2.569,2.5703,2.5705,2.3675,0.0,0.0,0.0,0.0,0.0,0.0,0.0,2.5619,2.5634,2.5677,2.5703,2.5709,2.5679,2.5102,2.3348,2.3072,2.2458,2.0679,2.0424,2.0425,2.0429,2.0448,2.0473,2.0468,2.0473,2.0104,1.923,1.9163,1.8416,1.668,1.7156,1.7326,1.7011,1.8077,1.9225,2.0385,2.0434,2.0478,2.0478,2.0478,2.0478,2.0478,2.0478,2.0464,2.0478,2.0491,2.0504,2.0492,2.05,2.0495,2.05,2.0504,2.0492,2.0499,2.049,2.0494,2.051,2.0494,2.0494,2.0497,2.0503,2.0503,2.0503,2.0503,2.0503,2.0503,2.0503,2.0503,2.0503,2.0503,2.0503,2.0932,2.2689,2.3546,2.4287,2.5418,2.4767,2.3977,2.3977,2.3977,2.3977,2.3965,2.4394,2.4743,2.4733,2.5175,2.5518,2.5582,2.5605,2.5636,2.5681,2.5709,2.5699,2.5698,2.5701,2.5702,2.57,2.5702,2.5702,2.5703,2.5703,2.5703,2.5702,2.5698,2.5691,2.5696,2.5671,2.5668,2.569,2.5703,2.5705,0.0,0.0,0.0,0.0,0.0,0.0,0.0,0.0,2.5621,2.5683,2.5702,2.5681,2.5664,2.5613,2.4987,2.3251,2.298,2.2377,2.0553,2.0302,2.0302,2.0302,2.036,2.0399,2.0399,2.0399,2.0051,1.9206,1.9148,1.8413,1.6735,1.66,1.6948,1.7774,1.7794,1.8631,2.039,2.0408,2.0394,2.0394,2.0394,2.0394,2.0394,2.0394,2.0404,2.04,2.0473,2.0502,2.0506,2.0493,2.0497,2.0506,2.0493,2.0502,2.0508,2.0508,2.0508,2.0508,2.0508,2.0508,2.0508,2.0508,2.0508,2.0508,2.0527,2.0546,2.0546,2.0546,2.0546,2.0527,2.0508,2.0508,2.0936,2.2648,2.3076,2.3543,2.5197,2.5625,2.5707,2.5707,2.5707,2.5704,2.5703,2.5632,2.5595,2.5609,2.5535,2.5529,2.5579,2.561,2.5632,2.5691,2.5696,2.5709,2.5693,2.5693,2.5696,2.5699,2.5696,2.5696,2.5699,2.57,2.5702,2.5703,2.5703,2.5703,2.57,2.5693,2.5691,2.5694,2.5698,2.5697,2.2548,0.0,0.0,0.0,0.0,0.0,0.0,0.0,2.5616,2.5696,2.5703,2.5484,2.481,2.4662,2.4073,2.2275,2.2514,2.232,2.0553,2.0299,2.0306,2.0296,2.0321,2.0341,2.0399,2.0399,2.0302,2.0051,2.0031,1.9283,1.7562,1.6329,1.6329,1.7755,1.7794,1.8631,2.039,2.0396,2.0402,2.0394,2.0402,2.0402,2.0394,2.0402,2.0408,2.0399,2.0424,2.0429,2.0429,2.0424,2.0429,2.0429,2.0424,2.0434,2.0434,2.0482,2.0506,2.0506,2.0506,2.0506,2.0506,2.0506,2.0506,2.0603,2.1182,2.1376,2.1376,2.1376,2.1376,2.1221,2.0642,2.0506,2.0778,2.1833,2.2567,2.3325,2.4413,2.5162,2.5625,2.5624,2.5636,2.5636,2.5632,2.5609,2.5604,2.5595,2.5586,2.5581,2.5591,2.56,2.5632,2.5691,2.5707,2.5696,2.5698,2.5701,2.5703,2.5701,2.5703,2.5705,2.5707,2.5691,2.5693,2.5694,2.57,2.5701,2.57,2.5703,2.5702,2.5701,2.5702,2.5702,0.0,0.0,0.0,0.0,0.0,0.0,2.5948,2.5828,2.5598,0.0,2.5702,2.5523,2.494,2.4849,2.4374,2.2926,2.312,2.2706,2.0607,2.0308,2.0308,2.0294,2.0302,2.0321,2.0341,2.0379,2.0399,2.0399,2.0399,1.9799,1.8413,1.6755,1.6619,1.8297,1.8335,1.8999,2.0398,2.0398,2.0404,2.039,2.0404,2.0404,2.039,2.0404,2.0404,2.041,2.0784,2.0745,2.0429,2.0784,2.0731,2.0394,2.0408,2.0394,2.041,2.0439,2.0459,2.0459,2.0459,2.0459,2.0459,2.0459,2.0459,2.0614,2.1443,2.1696,2.1773,2.2142,2.1987,2.1579,2.1119,2.073,2.075,2.1958,2.2633,2.3331,2.4535,2.5195,2.5576,2.559,2.561,2.56,2.5604,2.5613,2.5636,2.5632,2.5628,2.5604,2.5604,2.5604,2.5609,2.564,2.5675,2.5704,2.5704,2.569,2.5693,2.571,2.5693,2.5693,2.571,2.5671,2.5654,2.5657,2.5664,2.5668,2.5709,2.57,2.5702,2.5702,2.5702,2.5703,2.1699,2.2548,0.0,0.0,0.0,0.0,2.5216,2.5398,2.5521,0.0,2.5697,2.5643,2.547,2.5457,2.5152,2.4217,2.4056,2.3248,2.092,2.057,2.0589,2.0589,2.0583,2.0585,2.0573,2.0631,2.0631,2.0553,2.036,1.9915,1.9148,1.76,1.7465,1.9051,1.9109,1.9515,2.0379,2.0399,2.0399,2.0399,2.0399,2.0399,2.0399,2.0399,2.0399,2.0437,2.1217,2.1121,2.0457,2.1237,2.1101,2.0408,2.039,2.0396,2.0408,2.0388,2.0388,2.0408,2.0388,2.0388,2.0427,2.0504,2.0543,2.0718,2.1681,2.1971,2.2146,2.2914,2.2508,2.183,2.1836,2.1254,2.1066,2.2617,2.3069,2.3534,2.5027,2.5434,2.5525,2.5582,2.559,2.5605,2.56,2.5656,2.5683,2.5695,2.5632,2.5589,2.5604,2.56,2.56,2.5604,2.566,2.5687,2.5687,2.5697,2.5684,2.5684,2.5684,2.5701,2.5687,2.5621,2.5601,2.5609,2.559,2.5619,2.5696,2.5693,2.5696,2.5705,2.5691,2.5697,2.1017,2.1989,2.2915,2.3771,0.0,0.0,2.5064,2.5281,2.546,0.0,2.5625,2.541,2.4698,2.4542,2.4238,2.3308,2.3158,2.2984,2.2469,2.2349,2.2312,2.2312,2.2307,2.2304,2.2313,2.2364,2.2132,2.1495,2.0153,1.9283,1.9109,1.8123,1.8045,1.907,1.9109,1.9515,2.0379,2.0399,2.0399,2.0399,2.0399,2.0399,2.0399,2.0399,2.0399,2.0399,2.0579,2.056,2.0399,2.0579,2.054,2.0392,2.0405,2.0405,2.0392,2.0341,2.0347,2.0392,2.0341,2.0347,2.0527,2.1211,2.1443,2.1733,2.3241,2.3717,2.3736,2.3856,2.33,2.2663,2.2673,2.2538,2.2506,2.2829,2.3456,2.4056,2.4385,2.5004,2.5488,2.5517,2.5557,2.5593,2.5609,2.5615,2.5615,2.5615,2.5604,2.5599,2.5609,2.559,2.5595,2.5591,2.5615,2.5619,2.5619,2.5619,2.5624,2.5624,2.5624,2.5624,2.5619,2.5605,2.56,2.56,2.5609,2.5613,2.5617,2.5673,2.5701,2.5693,2.5701,2.5705,2.0492,2.1507,2.2452,2.3325,0.0,0.0,0.0,2.5053,2.5262,2.551,2.5582,2.5475,2.503,2.4943,2.4782,2.4277,2.4198,2.4203,2.4198,2.34,2.2785,2.2719,2.2736,2.2737,2.2695,2.2797,2.2524,2.1712,2.0031,1.9239,1.9684,1.8872,1.8795,1.9664,1.9703,1.9915,2.036,2.036,2.036,2.036,2.036,2.036,2.036,2.036,2.036,2.0379,2.0804,2.0746,2.0379,2.0823,2.0746,2.034,2.0392,2.0379,2.0354,2.0308,2.0321,2.036,2.0308,2.0618,2.1069,2.1546,2.1972,2.2538,2.3806,2.4485,2.4786,2.4759,2.4133,2.3496,2.3493,2.3192,2.3014,2.3446,2.3879,2.4312,2.4757,2.5182,2.5492,2.5495,2.5524,2.5551,2.5556,2.5543,2.5543,2.5543,2.5557,2.5551,2.555,2.555,2.5556,2.5554,2.5585,2.5604,2.5604,2.5604,2.5604,2.5604,2.5604,2.5585,2.5554,2.5543,2.5556,2.5549,2.554,2.5571,2.5595,2.5624,2.5656,2.5644,2.5652,2.5662,0.0,0.0,0.0,0.0,0.0,2.3912,0.0,0.0,0.0,0.0,0.0,0.0,0.0,0.0,0.0,2.5535,0.0,0.0,0.0,2.4242,0.0,2.3126,2.3152,2.3164,2.311,2.3064,2.278,2.2126,2.0622,2.0062,2.0757,1.9966,1.9812,2.0525,2.039,2.0294,2.0294,2.0294,2.0301,2.0301,2.0308,2.0327,2.0314,2.0314,2.0314,2.0366,2.1061,2.0957,2.0359,2.1053,2.093,2.032,2.036,2.0347,2.0302,2.0295,2.0308,2.032,2.0481,2.101,2.1654,2.2035,2.2724,2.352,2.4215,2.4874,2.5378,2.5378,2.4876,2.4336,2.4356,2.3871,2.3559,2.4254,2.4424,2.4625,2.5321,2.5476,2.5484,2.548,2.548,2.5476,2.5499,2.5506,2.5506,2.5479,2.5471,2.5495,2.5498,2.5505,2.5499,2.5493,2.5544,2.557,2.557,2.557,2.557,2.557,2.557,2.557,2.5493,2.5506,2.5492,2.5511,2.5506,2.5518,2.557,2.557,2.5587,2.56,2.5591,2.5624,0.0,0.0,0.0,0.0,2.2835,0.0,0.0,0.0,2.4812,2.5075,0.0,0.0,0.0,0.0,0.0,0.0,0.0,0.0,2.5511,2.5263,2.506,2.4916,2.4907,2.4908,2.4912,2.4332,2.3921,2.3824,2.2967,2.2504,2.2601,2.1779,2.1355,2.1451,2.0699,2.0294,2.0294,2.0294,2.0308,2.0302,2.0354,2.0386,2.0379,2.0396,2.0396,2.0398,2.0502,2.045,2.0302,2.0397,2.039,2.0294,2.032,2.0301,2.0301,2.0299,2.0299,2.041,2.1186,2.1521,2.1845,2.3331,2.4422,2.5138,2.5234,2.5283,2.5313,2.5313,2.5236,2.5188,2.5235,2.5167,2.5138,2.5232,2.526,2.528,2.5395,2.5415,2.5415,2.5404,2.5404,2.544,2.5495,2.5495,2.5472,2.5418,2.541,2.5437,2.5492,2.5495,2.549,2.5499,2.5499,2.5499,2.5499,2.5499,2.5499,2.5499,2.5499,2.5499,2.5499,2.5499,2.5505,2.5503,2.5505,2.5499,2.5499,2.5499,2.5538,2.5607,2.5607,2.5599,0.0,0.0,0.0,0.0,0.0,0.0,2.344,0.0,2.4346,0.0,0.0,0.0,0.0,0.0,0.0,0.0,2.5636,0.0,0.0,0.0,2.5348,2.5157,0.0,2.52,2.5191,2.4534,2.4098,2.4098,2.3319,2.2838,2.2838,2.201,2.1529,2.1529,2.072,2.0296,2.0296,2.0296,2.0299,2.0308,2.0334,2.0359,2.0402,2.039,2.041,2.0402,2.0353,2.0328,2.0308,2.0292,2.0296,2.0354,2.08,2.072,2.0299,2.0304,2.0612,2.1047,2.1459,2.2238,2.3248,2.4463,2.5099,2.5389,2.5351,2.5322,2.5303,2.5303,2.5303,2.5313,2.5322,2.5361,2.5398,2.5407,2.5397,2.5406,2.5406,2.5406,2.5406,2.5406,2.5406,2.5415,2.5451,2.5443,2.5443,2.5404,2.5395,2.5415,2.5432,2.544,2.5437,2.5445,2.5445,2.5445,2.5445,2.5445,2.5445,2.5445,2.5445,2.5445,2.5445,2.5445,2.5437,2.5448,2.5437,2.5445,2.5445,2.5445,2.5453,2.5468,2.5518,2.5544,1.7127,0.0,0.0,0.0,0.0,0.0,0.0,0.0,0.0,0.0,0.0,0.0,0.0,0.0,0.0,0.0,0.0,2.5616,0.0,2.5512,0.0,0.0,0.0,0.0,2.5198,2.4745,2.4446,2.4437,2.3832,2.3485,2.3485,2.2447,2.187,2.187,2.085,2.0312,2.0312,2.0312,2.0296,2.0308,2.0321,2.0357,2.0429,2.0424,2.0424,2.0415,2.0363,2.0328,2.0334,2.0311,2.0443,2.0712,2.1304,2.132,2.1005,2.0989,2.135,2.19,2.2194,2.3223,2.4532,2.5168,2.5361,2.5361,2.5313,2.5303,2.5293,2.5293,2.5293,2.5264,2.5264,2.5303,2.5341,2.5341,2.5361,2.5379,2.5379,2.536,2.5369,2.5369,2.5369,2.536,2.537,2.5389,2.5398,2.5388,2.5379,2.5407,2.5397,2.5406,2.5406,2.5406,2.5406,2.5406,2.5406,2.5406,2.5406,2.5406,2.5406,2.5406,2.5406,2.5406,2.5406,2.5406,2.5406,2.5406,2.5406,2.5406,2.5406,2.5395,2.5453,2.5471,0.0,0.0,0.0,1.8285,0.0,0.0,0.0,0.0,2.3424,0.0,0.0,0.0,0.0,0.0,0.0,0.0,0.0,0.0,0.0,0.0,0.0,0.0,0.0,0.0,0.0,2.5293,2.5322,2.5274,2.5245,2.5226,2.5226,2.3658,2.2754,2.2754,2.1158,2.0312,2.0312,2.0312,2.0304,2.0308,2.0371,2.0434,2.0506,2.0503,2.0506,2.0484,2.043,2.0399,2.0385,2.0334,2.0795,2.1567,2.1583,2.2092,2.2813,2.2735,2.2747,2.2881,2.3735,2.4562,2.5264,2.5284,2.5303,2.5303,2.5303,2.5312,2.5292,2.5292,2.5252,2.5192,2.5192,2.5192,2.5212,2.5212,2.5252,2.5292,2.5292,2.5293,2.5313,2.5313,2.5313,2.5313,2.5303,2.5361,2.5389,2.5313,2.5361,2.5398,2.5398,2.5397,2.5406,2.5406,2.5406,2.5406,2.5406,2.5406,2.5406,2.5406,2.5406,2.5406,2.5406,2.5406,2.5406,2.5406,2.5406,2.5406,2.5406,2.5406,2.5406,2.5406,2.5395,2.5395,1.5939,1.6604,1.7288,1.7619,1.8607,0.0,0.0,0.0,0.0,0.0,0.0,0.0,0.0,0.0,0.0,0.0,0.0,0.0,0.0,0.0,0.0,0.0,0.0,0.0,0.0,0.0,2.5389,2.5361,2.5341,2.5303,2.5303,2.3716,2.2793,2.2793,2.1177,2.0312,2.0312,2.0312,2.033,2.0379,2.0399,2.0448,2.0506,2.0555,2.0536,2.0494,2.0472,2.0448,2.0395,2.0377,2.0539,2.092,2.203,2.2648,2.2893,2.2816,2.3176,2.3773,2.4601,2.5082,2.5303,2.5303,2.5303,2.5303,2.5302,2.5292,2.5282,2.5252,2.5222,2.5192,2.5192,2.5192,2.5192,2.5192,2.5252,2.5311,2.5311,2.5312,2.5303,2.5303,2.5303,2.5303,2.5303,2.5313,2.5341,2.5303,2.5322,2.5322,2.5322,2.5293,2.5274,2.5274,2.5274,2.5274,2.5274,2.5274,2.5274,2.5274,2.5274,2.5274,2.5274,2.5274,2.5274,2.5274,2.5274,2.5274,2.5274,2.5274,2.5274,2.5274,2.5274,2.5322,1.4842,1.5379,1.5963,1.6169,1.7227,1.8442,1.9306,0.0,2.05,0.0,0.0,0.0,0.0,0.0,0.0,0.0,0.0,0.0,0.0,2.5606,0.0,0.0,0.0,0.0,0.0,0.0,2.5407,2.5398,2.5341,2.5303,2.5303,2.4005,2.3263,2.3253,2.1636,2.077,2.0758,2.045,2.0332,2.0404,2.0395,2.0445,2.05,2.054,2.054,2.0506,2.049,2.0472,2.0448,2.0444,2.0798,2.1438,2.2507,2.3302,2.3838,2.3775,2.4094,2.4627,2.513,2.5274,2.5264,2.5264,2.5264,2.5253,2.5262,2.5252,2.5261,2.5201,2.519,2.5198,2.5198,2.5198,2.5198,2.5198,2.522,2.5261,2.5261,2.5262,2.5264,2.5264,2.5264,2.5264,2.5264,2.5264,2.5264,2.5293,2.5302,2.5282,2.5282,2.5222,2.5192,2.5192,2.5192,2.5192,2.5192,2.5192,2.5192,2.5192,2.5192,2.5192,2.5192,2.5192,2.5192,2.5192,2.5192,2.5192,2.5192,2.5192,2.5212,2.5201,2.5201,2.5233]}]]